[[{"header":{"parameterUnit":"m.s-1","parameterCategory":1,"la1":30.6,"la2":29.2853,"lo1":-89.7004,"lo2":-87.6739,"dx":0.0162,"dy":0.0183,"nx":112,"ny":82,"refTime":"2022-12-04T18:00:00:Z","depth":0,"parameterNumber":2,"parameterNumberName":"U-component_of_WINDS"},"data":[0.0,0.0,0.0,0.0,0.0,0.0,0.0,0.0,0.0,0.0,0.0,0.0,0.0,0.0,0.0,0.0,0.0,0.0,0.0,0.0,0.0,0.0,0.0,0.0,0.0,0.0,0.0,0.0,0.0,0.0,0.0,0.0,0.0,0.0,0.0,0.0,0.0,0.0,0.0,0.0,0.0,0.0,0.0,0.0,0.0,0.0,0.0,0.0,0.0,0.0,0.0,0.0,0.0,0.0,0.0,0.0,0.0,0.0,0.0,0.0,0.0,0.0,0.0,0.0,0.0,0.0,0.0,0.0,0.0,0.0,0.0,0.0,0.0,0.0,0.0,0.0,0.0,0.0,0.0,0.0,0.0,0.0,0.0,0.0,0.0,0.0,0.0,0.0,0.0,0.0,-2.5717,-2.7158,-3.0875,-3.3422,-3.3773,-3.2392,-2.9308,-2.4147,0.0,0.0,0.0,0.0,0.0,0.0,0.0,0.0,0.0,0.0,0.0,0.0,0.0,0.0,0.0,0.0,0.0,0.0,0.0,0.0,0.0,0.0,0.0,0.0,0.0,0.0,0.0,0.0,0.0,0.0,0.0,0.0,0.0,0.0,0.0,0.0,0.0,0.0,0.0,0.0,0.0,0.0,0.0,0.0,0.0,0.0,0.0,0.0,0.0,0.0,0.0,0.0,0.0,0.0,0.0,0.0,0.0,0.0,0.0,0.0,0.0,0.0,0.0,0.0,0.0,0.0,0.0,0.0,0.0,0.0,0.0,0.0,0.0,0.0,0.0,0.0,0.0,0.0,0.0,0.0,0.0,0.0,0.0,0.0,0.0,0.0,0.0,0.0,0.0,0.0,0.0,0.0,0.0,0.0,0.0,0.0,0.0,0.0,0.0,0.0,0.0,0.0,0.0,0.0,-2.4651,-3.1562,-3.3589,-3.4267,-3.3842,-3.2684,-2.9929,-2.5095,0.0,0.0,0.0,0.0,0.0,0.0,0.0,0.0,0.0,0.0,0.0,0.0,0.0,0.0,0.0,0.0,0.0,0.0,0.0,0.0,0.0,0.0,0.0,0.0,0.0,0.0,0.0,0.0,0.0,0.0,0.0,0.0,0.0,0.0,0.0,0.0,0.0,0.0,0.0,0.0,0.0,0.0,0.0,0.0,0.0,0.0,0.0,0.0,0.0,0.0,0.0,0.0,0.0,0.0,0.0,0.0,0.0,0.0,0.0,0.0,0.0,0.0,0.0,0.0,0.0,0.0,0.0,0.0,0.0,0.0,0.0,0.0,0.0,0.0,0.0,0.0,0.0,0.0,0.0,0.0,0.0,0.0,0.0,0.0,0.0,0.0,0.0,0.0,0.0,0.0,0.0,0.0,0.0,0.0,0.0,0.0,0.0,0.0,0.0,0.0,0.0,0.0,0.0,-2.3834,-2.741,-3.3216,-3.4188,-3.426,-3.3829,-3.2921,-3.0084,-2.4737,-2.1543,0.0,0.0,0.0,0.0,0.0,0.0,0.0,0.0,0.0,0.0,0.0,0.0,0.0,0.0,0.0,0.0,0.0,0.0,0.0,0.0,0.0,0.0,0.0,0.0,0.0,0.0,0.0,0.0,0.0,0.0,0.0,0.0,0.0,0.0,0.0,0.0,0.0,0.0,0.0,0.0,0.0,0.0,0.0,0.0,0.0,0.0,0.0,0.0,0.0,0.0,0.0,0.0,0.0,0.0,0.0,0.0,0.0,0.0,0.0,0.0,0.0,0.0,0.0,0.0,0.0,0.0,0.0,0.0,0.0,0.0,0.0,0.0,0.0,0.0,0.0,0.0,0.0,0.0,0.0,0.0,0.0,0.0,0.0,0.0,0.0,0.0,0.0,0.0,0.0,0.0,0.0,0.0,0.0,0.0,0.0,0.0,0.0,0.0,0.0,0.0,0.0,0.0,-2.8151,-3.0753,-3.3869,-3.42,-3.4086,-3.3815,-3.3238,-3.0332,-2.435,-2.1971,0.0,0.0,0.0,0.0,0.0,0.0,0.0,0.0,0.0,0.0,0.0,0.0,0.0,0.0,0.0,0.0,0.0,0.0,0.0,0.0,0.0,0.0,0.0,0.0,0.0,0.0,0.0,0.0,0.0,0.0,0.0,0.0,0.0,0.0,0.0,0.0,0.0,0.0,0.0,0.0,0.0,0.0,0.0,0.0,0.0,0.0,0.0,0.0,0.0,0.0,0.0,0.0,0.0,0.0,0.0,0.0,0.0,0.0,0.0,0.0,0.0,0.0,0.0,0.0,0.0,0.0,0.0,0.0,0.0,0.0,0.0,0.0,0.0,0.0,0.0,0.0,0.0,0.0,0.0,0.0,0.0,0.0,0.0,0.0,0.0,0.0,0.0,0.0,0.0,0.0,0.0,0.0,0.0,0.0,0.0,0.0,0.0,0.0,0.0,0.0,0.0,0.0,-2.8942,-3.3067,-3.4088,-3.42,-3.4086,-3.3815,-3.3752,-3.0999,-2.4584,-2.2611,0.0,0.0,0.0,0.0,0.0,0.0,0.0,0.0,0.0,0.0,0.0,0.0,0.0,0.0,0.0,0.0,0.0,0.0,0.0,0.0,0.0,0.0,0.0,0.0,0.0,0.0,0.0,0.0,0.0,0.0,0.0,0.0,0.0,0.0,0.0,0.0,0.0,0.0,0.0,0.0,0.0,0.0,0.0,0.0,0.0,0.0,0.0,0.0,0.0,0.0,0.0,0.0,0.0,0.0,0.0,0.0,0.0,0.0,0.0,0.0,0.0,0.0,0.0,0.0,0.0,0.0,0.0,0.0,0.0,0.0,0.0,0.0,0.0,0.0,0.0,0.0,0.0,0.0,0.0,0.0,0.0,0.0,0.0,0.0,0.0,0.0,0.0,0.0,0.0,0.0,0.0,0.0,0.0,0.0,0.0,0.0,0.0,0.0,0.0,0.0,0.0,0.0,-2.7463,-3.1382,-3.3708,-3.3948,-3.3915,-3.382,-3.3807,-3.0834,-2.3896,0.0,0.0,0.0,0.0,0.0,0.0,0.0,0.0,0.0,0.0,0.0,0.0,0.0,0.0,0.0,0.0,0.0,0.0,0.0,0.0,0.0,0.0,0.0,0.0,0.0,0.0,0.0,0.0,0.0,0.0,0.0,0.0,0.0,0.0,0.0,0.0,0.0,0.0,0.0,0.0,0.0,0.0,0.0,0.0,0.0,0.0,0.0,0.0,0.0,0.0,0.0,0.0,0.0,0.0,0.0,0.0,0.0,0.0,0.0,0.0,0.0,0.0,0.0,0.0,0.0,0.0,0.0,0.0,0.0,0.0,0.0,0.0,0.0,0.0,0.0,0.0,0.0,0.0,0.0,0.0,0.0,0.0,0.0,0.0,0.0,0.0,0.0,0.0,0.0,0.0,0.0,0.0,0.0,0.0,0.0,0.0,0.0,0.0,0.0,0.0,0.0,0.0,-2.296,-2.7556,-3.1372,-3.3568,-3.3807,-3.3807,-3.3807,-3.3807,-3.0705,-2.3465,0.0,0.0,0.0,0.0,0.0,0.0,0.0,0.0,0.0,0.0,0.0,0.0,0.0,0.0,0.0,0.0,0.0,0.0,0.0,0.0,0.0,0.0,0.0,0.0,0.0,0.0,0.0,0.0,0.0,0.0,0.0,0.0,0.0,0.0,0.0,0.0,0.0,0.0,0.0,0.0,0.0,0.0,0.0,0.0,0.0,0.0,0.0,0.0,0.0,0.0,0.0,0.0,0.0,0.0,0.0,0.0,0.0,0.0,0.0,0.0,0.0,0.0,0.0,0.0,0.0,0.0,0.0,0.0,0.0,0.0,0.0,0.0,0.0,0.0,0.0,0.0,0.0,0.0,0.0,0.0,0.0,0.0,0.0,0.0,0.0,0.0,0.0,0.0,0.0,0.0,0.0,0.0,0.0,0.0,0.0,0.0,0.0,0.0,0.0,0.0,0.0,0.0,-2.3988,-2.9824,-3.3807,-3.3807,-3.3825,-3.3825,-3.3825,-3.3825,-3.0723,0.0,0.0,0.0,0.0,0.0,0.0,0.0,0.0,0.0,0.0,0.0,0.0,0.0,0.0,0.0,0.0,0.0,0.0,0.0,0.0,0.0,0.0,0.0,0.0,0.0,0.0,0.0,0.0,0.0,0.0,0.0,0.0,0.0,0.0,0.0,0.0,0.0,0.0,0.0,0.0,0.0,0.0,0.0,0.0,0.0,0.0,0.0,0.0,0.0,0.0,0.0,0.0,0.0,0.0,0.0,0.0,0.0,0.0,0.0,0.0,0.0,0.0,0.0,0.0,0.0,0.0,0.0,0.0,0.0,0.0,0.0,0.0,0.0,0.0,0.0,0.0,0.0,0.0,0.0,0.0,0.0,0.0,0.0,0.0,0.0,0.0,0.0,0.0,0.0,0.0,0.0,0.0,0.0,0.0,0.0,0.0,0.0,0.0,0.0,0.0,0.0,0.0,0.0,-2.3988,-3.032,-3.4656,-3.4656,-3.5202,-3.555,-3.555,-3.5,-3.1317,-2.3483,0.0,0.0,0.0,0.0,0.0,0.0,0.0,0.0,0.0,0.0,0.0,0.0,0.0,0.0,0.0,0.0,0.0,0.0,0.0,0.0,0.0,0.0,0.0,0.0,0.0,0.0,0.0,0.0,0.0,0.0,0.0,0.0,0.0,0.0,0.0,0.0,0.0,0.0,0.0,0.0,0.0,0.0,0.0,0.0,0.0,0.0,0.0,0.0,0.0,0.0,0.0,0.0,0.0,0.0,0.0,0.0,0.0,0.0,0.0,0.0,0.0,0.0,0.0,0.0,0.0,0.0,0.0,0.0,0.0,0.0,0.0,0.0,0.0,0.0,0.0,0.0,0.0,0.0,0.0,0.0,0.0,0.0,0.0,0.0,0.0,0.0,0.0,0.0,0.0,0.0,0.0,0.0,0.0,0.0,0.0,0.0,0.0,0.0,0.0,0.0,0.0,0.0,-2.3988,-3.0509,-3.5004,-3.5004,-3.5575,-3.5979,-3.5979,-3.5505,-3.2306,-2.5503,0.0,0.0,0.0,0.0,0.0,0.0,0.0,0.0,0.0,0.0,0.0,0.0,0.0,0.0,0.0,0.0,0.0,0.0,0.0,0.0,0.0,0.0,0.0,0.0,0.0,0.0,0.0,0.0,0.0,0.0,0.0,0.0,0.0,0.0,0.0,0.0,0.0,0.0,0.0,0.0,0.0,0.0,0.0,0.0,0.0,0.0,0.0,0.0,0.0,0.0,0.0,0.0,0.0,0.0,0.0,0.0,0.0,0.0,0.0,0.0,0.0,0.0,0.0,0.0,0.0,0.0,0.0,0.0,0.0,0.0,0.0,0.0,0.0,0.0,0.0,0.0,0.0,0.0,0.0,0.0,0.0,0.0,0.0,0.0,0.0,0.0,0.0,0.0,0.0,0.0,0.0,0.0,0.0,0.0,0.0,0.0,0.0,0.0,0.0,0.0,0.0,0.0,-2.408,-3.0638,-3.5137,-3.5168,-3.5548,-3.578,-3.5732,-3.566,-3.3538,-2.868,0.0,0.0,0.0,0.0,0.0,0.0,0.0,0.0,0.0,0.0,0.0,0.0,0.0,0.0,0.0,0.0,0.0,0.0,0.0,0.0,0.0,0.0,0.0,0.0,0.0,0.0,0.0,0.0,0.0,0.0,0.0,0.0,0.0,0.0,0.0,0.0,0.0,0.0,0.0,0.0,0.0,0.0,0.0,0.0,0.0,0.0,0.0,0.0,0.0,0.0,0.0,0.0,0.0,0.0,0.0,0.0,0.0,0.0,0.0,0.0,-2.5519,-2.2917,0.0,0.0,0.0,0.0,0.0,0.0,0.0,0.0,0.0,0.0,0.0,0.0,0.0,0.0,0.0,0.0,0.0,0.0,0.0,0.0,0.0,0.0,0.0,0.0,0.0,0.0,0.0,0.0,0.0,0.0,0.0,0.0,0.0,0.0,0.0,0.0,0.0,0.0,0.0,0.0,-2.486,-3.1513,-3.6098,-3.6309,-3.7351,-3.7856,-3.7423,-3.6812,-3.4542,-3.0051,-2.8087,0.0,0.0,0.0,0.0,0.0,0.0,0.0,0.0,0.0,0.0,0.0,0.0,0.0,0.0,0.0,0.0,0.0,0.0,0.0,0.0,0.0,0.0,0.0,0.0,0.0,0.0,0.0,0.0,0.0,0.0,0.0,0.0,0.0,0.0,0.0,0.0,0.0,0.0,0.0,0.0,0.0,0.0,0.0,0.0,0.0,0.0,0.0,0.0,0.0,0.0,0.0,0.0,0.0,0.0,0.0,0.0,0.0,0.0,0.0,-2.8006,-2.6503,0.0,0.0,0.0,0.0,0.0,0.0,0.0,0.0,0.0,0.0,0.0,0.0,0.0,0.0,0.0,0.0,0.0,0.0,0.0,0.0,0.0,0.0,0.0,0.0,0.0,0.0,0.0,0.0,0.0,0.0,0.0,0.0,0.0,0.0,0.0,0.0,0.0,0.0,0.0,0.0,-2.5658,-3.237,-3.6833,-3.6719,-3.746,-3.7755,-3.7211,-3.7022,-3.5702,-3.2781,-3.0596,0.0,0.0,0.0,0.0,0.0,0.0,0.0,0.0,0.0,0.0,0.0,0.0,0.0,0.0,0.0,0.0,0.0,0.0,0.0,0.0,0.0,0.0,0.0,0.0,0.0,0.0,0.0,0.0,0.0,0.0,0.0,0.0,0.0,0.0,0.0,0.0,0.0,0.0,0.0,0.0,0.0,0.0,0.0,0.0,0.0,0.0,0.0,0.0,0.0,0.0,0.0,0.0,0.0,-2.9973,-3.055,-3.0584,-3.119,-3.2121,-3.316,-3.1161,-3.1098,-3.2056,-2.7977,0.0,0.0,0.0,0.0,0.0,0.0,0.0,0.0,0.0,0.0,0.0,0.0,0.0,0.0,0.0,0.0,0.0,0.0,0.0,0.0,0.0,0.0,-2.7546,-2.6599,-2.8533,-2.9465,-2.5265,0.0,0.0,0.0,0.0,0.0,0.0,0.0,0.0,0.0,0.0,0.0,-2.7156,-3.3277,-3.7218,-3.6818,-3.7041,-3.7039,-3.6704,-3.6981,-3.6704,-3.5545,-3.3029,-3.0155,0.0,0.0,0.0,0.0,0.0,0.0,0.0,0.0,0.0,0.0,0.0,0.0,0.0,0.0,0.0,0.0,0.0,0.0,0.0,0.0,0.0,0.0,0.0,0.0,0.0,0.0,0.0,0.0,0.0,0.0,0.0,0.0,-2.7512,-2.8418,0.0,0.0,0.0,0.0,0.0,0.0,0.0,0.0,0.0,0.0,0.0,0.0,0.0,-2.8014,-2.8725,-3.1385,-3.2682,-3.2675,-3.5436,-3.6738,-3.6738,-3.684,-3.6992,-3.7144,-3.6831,0.0,-3.2577,-3.0627,0.0,0.0,0.0,0.0,0.0,0.0,0.0,0.0,0.0,0.0,0.0,0.0,0.0,0.0,0.0,0.0,0.0,0.0,0.0,0.0,0.0,0.0,-3.2462,-3.2317,-3.2612,-3.2878,-3.2601,-2.7686,-2.2962,-2.1675,-2.118,-1.9921,0.0,0.0,0.0,0.0,0.0,0.0,-3.0581,-3.4478,-3.689,-3.7109,-3.7176,-3.7341,-3.7667,-3.7396,-3.7003,-3.6538,-3.5687,-3.3158,-2.859,-2.7397,0.0,0.0,0.0,0.0,0.0,0.0,0.0,0.0,0.0,0.0,0.0,0.0,0.0,0.0,0.0,0.0,0.0,0.0,0.0,0.0,0.0,0.0,0.0,0.0,0.0,0.0,0.0,0.0,0.0,-2.6739,-2.8002,-2.8536,-2.7652,-2.6274,0.0,0.0,0.0,0.0,0.0,0.0,0.0,0.0,0.0,-3.1345,-3.1617,-3.2482,-3.3981,-3.5284,-3.5943,-3.5943,-3.728,-3.7905,-3.7922,-3.8328,-3.8514,-3.8514,-3.8514,-3.7661,-3.6088,-3.3737,-3.138,-2.9076,0.0,0.0,0.0,0.0,-2.5649,-2.5992,-2.8254,-2.9197,-2.9104,-2.7439,0.0,0.0,0.0,0.0,0.0,0.0,0.0,-2.6418,-2.8959,-3.119,-3.2882,-3.3305,-3.3728,-3.3961,-3.3765,-3.1459,-2.8757,-2.6355,-2.5315,-2.3161,-1.7922,-1.9229,0.0,0.0,0.0,-2.8886,-3.1756,-3.4974,-3.7041,-3.7175,-3.7209,-3.7285,-3.7488,-3.7323,-3.7012,-3.6563,-3.6317,-3.4905,-3.208,-2.9231,-2.5737,0.0,0.0,0.0,0.0,0.0,0.0,0.0,0.0,0.0,0.0,0.0,0.0,0.0,0.0,0.0,0.0,0.0,0.0,0.0,0.0,0.0,0.0,0.0,0.0,0.0,0.0,0.0,0.0,-2.8316,-2.9101,-2.9362,-2.8914,-2.751,0.0,0.0,0.0,0.0,0.0,0.0,-3.1081,-3.1538,-3.2757,-3.486,-3.5196,-3.618,-3.7889,-3.8091,-3.8176,-3.8176,-3.8379,-3.8464,-3.8481,-3.9022,-3.9276,-3.9276,-3.9276,-3.9276,-3.9073,-3.6451,-3.437,-3.2699,-3.1058,-2.9365,-2.796,-2.8889,-2.9227,-2.9531,-3.1613,-3.2514,-3.2565,-3.1261,-3.0626,-2.9844,-2.7282,0.0,0.0,0.0,0.0,-2.8653,-3.092,-3.2324,-3.3271,-3.3846,-3.4387,-3.4641,-3.4083,-3.3936,-3.3162,-3.0576,-2.9561,-2.7246,-2.1394,-2.3307,0.0,-2.2799,-2.7222,-3.1404,-3.3143,-3.548,-3.6999,-3.6999,-3.6999,-3.7097,-3.736,-3.7378,-3.7154,-3.6643,-3.6724,-3.618,-3.4854,-3.1514,-2.8918,-2.7197,0.0,0.0,0.0,0.0,0.0,0.0,0.0,0.0,0.0,0.0,0.0,0.0,0.0,0.0,0.0,0.0,0.0,0.0,0.0,0.0,0.0,0.0,0.0,0.0,0.0,0.0,0.0,0.0,0.0,-3.2369,-3.2202,0.0,0.0,0.0,0.0,-3.0265,-3.1765,-3.3159,-3.4219,-3.495,-3.6084,-3.7658,-3.7719,-3.7787,-3.7905,-3.8582,-3.8937,-3.8937,-3.9656,-3.9994,-3.9994,-4.0028,-4.0045,-4.0045,-4.0045,-4.0045,-3.9926,-3.8362,-3.6417,-3.437,-3.4273,-3.2882,-3.114,-3.2594,-3.3136,-3.3355,-3.4839,-3.5385,-3.5391,-3.5301,-3.3564,-3.1343,-3.0486,-2.9197,0.0,0.0,-3.1645,-3.253,-3.4737,-3.538,-3.543,-3.5481,-3.5515,-3.5532,-3.5498,-3.4404,-3.3526,-3.3785,-3.4105,-3.3247,-2.9844,0.0,-2.9823,-3.0421,-3.084,-3.2319,-3.5746,-3.635,-3.6437,-3.6437,-3.6437,-3.6825,-3.779,-3.7859,-3.7667,-3.7173,-3.7578,-3.7138,-3.5621,-3.5139,-3.2864,-2.848,-2.75,0.0,0.0,0.0,0.0,0.0,0.0,0.0,0.0,0.0,0.0,0.0,0.0,0.0,0.0,0.0,0.0,0.0,0.0,0.0,0.0,0.0,0.0,0.0,0.0,0.0,0.0,0.0,0.0,-3.2823,-3.3623,0.0,-3.1359,-3.2733,-3.3569,-3.311,-3.5211,-3.6582,-3.6677,-3.7398,-3.8041,-3.8582,-3.9056,-3.9334,-3.9334,-3.9588,-3.9723,-3.9723,-3.9977,-4.0096,-4.0096,-4.0096,-4.0096,-4.0096,-4.0096,-4.0096,-4.0062,-3.9537,-3.8548,-3.7398,-3.7398,-3.662,-3.5588,-3.6113,-3.5994,-3.5656,-3.618,-3.6045,-3.56,-3.56,-3.496,-3.413,-3.3858,-3.34,-3.3145,-3.3943,-3.4677,-3.5272,-3.5515,-3.5994,-3.6231,-3.5718,-3.56,-3.56,-3.56,-3.5194,-3.4871,-3.5027,-3.4685,-3.3446,-3.0536,-3.2562,-3.367,-3.0884,-3.2775,-3.4854,-3.577,-3.5876,-3.6028,-3.6354,-3.6395,-3.6805,-3.7807,-3.7632,-3.7506,-3.7649,-3.7193,-3.6845,-3.6643,-3.5442,-3.4315,-3.3354,-3.2035,-2.8152,0.0,0.0,0.0,0.0,0.0,0.0,0.0,0.0,0.0,0.0,0.0,0.0,0.0,0.0,0.0,0.0,0.0,0.0,0.0,0.0,0.0,0.0,0.0,0.0,0.0,-3.2707,-3.4265,-3.3479,-3.5029,-3.5259,-3.2875,-3.5015,-3.64,-3.6039,-3.794,-3.8978,-3.8657,-3.9106,-3.9385,-3.9385,-3.9859,-4.0096,-4.0096,-4.0096,-4.0096,-4.0096,-4.0096,-4.0096,-4.0096,-4.0096,-4.0096,-4.0096,-4.0096,-4.0096,-4.0096,-4.0096,-3.9808,-3.9385,-3.9385,-3.9056,-3.8616,-3.8362,-3.7956,-3.7472,-3.6981,-3.6603,-3.6276,-3.5769,-3.5769,-3.596,-3.5667,-3.5785,-3.6011,-3.6011,-3.6569,-3.7043,-3.6495,-3.6772,-3.7026,-3.6495,-3.6508,-3.6604,-3.6406,-3.6508,-3.6581,-3.6406,-3.5454,-3.4079,-3.2266,-3.4798,-3.5729,-3.18,-3.4451,-3.6503,-3.5379,-3.5887,-3.652,-3.6864,-3.722,-3.7717,-3.8384,-3.7488,-3.7414,-3.8633,-3.697,-3.6353,-3.7294,-3.5107,-3.3975,-3.4216,-3.2954,-2.9615,-2.414,0.0,0.0,0.0,0.0,0.0,0.0,0.0,0.0,0.0,0.0,0.0,0.0,0.0,0.0,0.0,0.0,0.0,0.0,0.0,0.0,0.0,0.0,0.0,-3.3885,-3.4316,-3.4663,-3.4668,-3.6626,-3.7117,-3.4922,-3.7343,-3.9046,-3.9039,-3.9706,-4.0096,-4.0121,-4.0096,-4.0096,-4.0121,-4.0096,-4.0096,-4.0096,-4.0096,-4.0096,-4.0096,-4.0096,-4.0096,-4.0096,-4.0096,-4.0096,-4.0096,-4.0096,-4.0096,-4.0096,-4.0096,-4.0096,-4.0096,-4.0096,-4.0096,-4.0011,-3.9317,-3.9005,-3.8785,-3.7354,-3.7297,-3.7652,-3.6157,-3.6197,-3.6694,-3.5932,-3.6237,-3.6852,-3.6875,-3.7394,-3.7946,-3.7929,-3.7922,-3.7939,-3.7922,-3.8317,-3.8558,-3.8014,-3.8317,-3.8535,-3.799,-3.6681,-3.5667,-3.5667,-3.6315,-3.6084,-3.388,-3.6045,0.0,-3.4878,-3.6535,-3.7872,-3.7804,-3.8734,-3.9365,-3.9385,-3.7489,-3.7429,-4.0113,-3.6989,-3.584,-3.7551,-3.4498,-3.2188,-3.089,-3.0188,-2.9199,-2.786,0.0,0.0,0.0,0.0,0.0,0.0,0.0,0.0,0.0,0.0,0.0,0.0,0.0,0.0,0.0,0.0,0.0,0.0,0.0,0.0,0.0,-3.2764,-3.4425,-3.3662,-3.5977,-3.7908,-3.8298,-3.9376,-3.9818,-3.9204,-3.9887,-4.0213,-3.9833,-3.9994,-4.0262,-4.0655,-4.0311,-4.0286,-4.0679,-4.0311,-4.0096,-4.0096,-4.0096,-4.0096,-4.0096,-4.0096,-4.0096,-4.0096,-4.0096,-4.0096,-4.0096,-4.0096,-4.0096,-4.0096,-4.0096,-4.0096,-4.0096,-4.0096,-4.0096,-4.0079,-3.9876,-3.9469,-3.8853,-3.7922,-3.7736,-3.7838,-3.7415,-3.7432,-3.7628,-3.7801,-3.7986,-3.8269,-3.872,-3.9042,-3.9152,-3.8624,-3.8583,-3.8565,-3.8041,-3.8317,-3.8558,-3.8014,-3.8317,-3.8535,-3.799,-3.7567,-3.728,-3.728,-3.7449,-3.7381,-3.6772,-3.7381,-3.7686,-3.706,-3.7516,-3.7379,-3.6011,-3.6125,-3.6474,-3.6863,-3.6363,-3.7059,-3.9493,-3.7856,-3.7189,-3.8068,-3.598,-3.4691,-3.4462,-3.2152,-3.0491,0.0,0.0,0.0,0.0,0.0,0.0,0.0,0.0,0.0,0.0,0.0,0.0,0.0,0.0,0.0,0.0,0.0,0.0,0.0,0.0,0.0,0.0,-3.4898,-3.6534,-3.6139,-3.7969,-3.9575,-4.0181,-4.0854,-4.1178,-4.0926,-4.0903,-4.0679,-4.0146,-4.0096,-4.0254,-4.0552,-4.0514,-4.049,-4.0552,-4.0473,-4.0336,-4.0096,-4.0096,-4.0096,-4.0096,-4.0096,-4.0096,-4.0096,-4.0096,-4.0096,-4.0096,-4.0096,-4.0096,-4.0096,-4.0096,-4.0096,-4.0096,0.0,0.0,0.0,0.0,-3.9842,-3.9368,-3.8616,-3.8565,-3.8717,-3.8108,-3.8108,-3.8367,-3.8374,-3.8755,-3.9202,-3.9308,-3.9979,-4.0428,-3.9514,-3.9545,-3.9689,-3.9262,-3.9576,-3.9831,-3.9283,-3.9598,-3.976,-3.8979,-3.8819,0.0,-3.8819,-3.8565,-3.8041,-3.707,-3.8007,-3.8481,-3.755,-3.8244,-3.8391,-3.7308,-3.7624,-3.7923,-3.7985,-3.743,0.0,0.0,0.0,-3.6958,-3.6601,-3.5272,0.0,0.0,0.0,-3.2279,-3.3238,-3.0577,0.0,0.0,-2.641,-2.6245,0.0,0.0,0.0,0.0,0.0,0.0,0.0,0.0,0.0,0.0,0.0,0.0,0.0,0.0,0.0,0.0,-3.6985,-3.9316,-3.9842,-3.9983,-4.0294,-4.1023,-4.1578,-4.1686,-4.1155,-4.1041,-4.0774,-4.0229,-4.0146,-4.0121,-4.0179,-4.0635,0.0,0.0,0.0,-4.0577,-4.0096,-4.0096,-4.0096,-4.0096,-4.0096,-4.0096,-4.0096,-4.0096,-4.0096,-4.0096,-4.0096,-4.0096,-4.0096,-4.0096,-4.0096,-4.0096,-4.0096,-4.0096,-4.0096,-4.0096,-4.0096,-4.0011,-3.9368,0.0,0.0,-3.8565,-3.8582,-3.9012,-3.8424,-3.9014,-3.9864,-3.9515,-4.0572,-4.1573,-4.0546,-4.0601,-4.0903,-4.0903,-4.1313,-4.1578,-4.111,-4.138,-4.1397,-4.0385,-4.0146,-4.0096,-4.0096,-3.9571,-3.843,-3.6394,-3.8379,-3.9385,-3.7422,-3.8894,-4.0036,-3.9815,-4.0744,0.0,-4.0636,-3.9444,-3.9585,-4.1556,-3.8657,-3.6181,-3.4681,-3.4104,-3.3966,-3.4303,-3.356,-3.4633,-3.7639,-3.6909,-3.656,-3.6413,-2.9836,-2.8679,0.0,0.0,0.0,0.0,0.0,0.0,0.0,0.0,0.0,0.0,0.0,0.0,0.0,0.0,0.0,-3.6135,-3.8299,-4.0065,-4.0602,-4.1125,-4.1633,-4.2284,-4.246,-4.248,-4.2362,-4.1916,-4.138,-4.078,-4.0343,-4.0286,-4.0709,-4.0441,-4.0434,-4.0825,-4.0458,-4.0204,-4.0096,-4.0096,-4.0096,-4.0096,-4.0096,0.0,-4.0096,-4.0096,-4.0096,-4.0096,-4.0096,-4.0096,-4.0096,-4.0096,-4.0096,-4.0096,-4.0096,-4.0096,-4.0096,-4.0096,-4.0096,-4.0079,-3.9943,-3.9977,-4.0045,-3.9774,-3.9774,-3.9942,-4.0229,-4.0498,0.0,-4.1724,-4.1911,-4.1746,-4.153,-4.1178,-4.0903,-4.0903,-4.0995,-4.1178,-4.1556,-4.1335,-4.1018,-4.078,-4.0392,-4.0096,-4.0096,-3.9994,-3.974,-3.93,-3.974,-3.9943,-3.952,-3.9842,-3.9508,-3.8003,-3.8482,-3.8853,-3.8731,-3.8866,-3.9545,-4.0976,-3.9485,-3.8128,-3.7205,-3.7875,-3.7998,-3.7437,-3.808,-3.8438,-3.8469,-3.8303,-3.8248,-3.8193,-3.6134,-3.5583,0.0,0.0,0.0,0.0,0.0,0.0,0.0,0.0,0.0,0.0,0.0,-3.3254,-3.4045,0.0,-3.72,-3.7801,-3.9364,-4.0703,-4.1268,-4.1874,-4.2362,-4.2655,-4.2939,-4.2995,-4.2731,-4.2162,-4.1556,-4.0949,-4.0417,-4.0229,-4.0497,-4.0497,-4.0538,-4.0556,-4.0538,-4.0368,-4.0096,-4.0096,-4.0096,-4.0096,-4.0096,-4.0096,-4.0096,-4.0096,-4.0096,-4.0096,-4.0096,-4.0096,-4.0096,-4.0096,-4.0096,-4.0096,-4.0096,-4.0096,-4.0096,-4.0096,-4.0096,-4.0096,-4.0096,-4.0096,-4.0096,-4.0096,-4.0096,-4.0146,-4.0417,-4.0897,-4.1424,-4.1707,-4.2206,-4.2446,-4.1578,-4.1358,-4.1251,-4.0972,-4.1133,-4.1446,-4.1729,-4.1556,-4.1268,-4.0972,-4.0473,-4.0096,-4.0096,-4.0096,-4.0096,-4.0096,-4.0096,-4.0096,-4.0096,-4.0096,-3.973,-3.8792,-3.9465,-3.989,-3.9594,-4.0061,-4.0659,-4.1292,-4.0458,-3.9778,-3.9418,-3.9826,-4.0,-3.9865,-3.9885,-3.9698,-3.9294,-3.8909,-3.8707,-3.8689,-3.8285,-3.8102,0.0,0.0,0.0,0.0,0.0,0.0,0.0,-3.1009,-3.1689,-3.3785,-3.4679,-3.5395,-3.631,-3.7499,-3.8514,-3.9106,-4.0175,-4.111,-4.1725,-4.2322,-4.275,-4.2845,-4.3232,-4.3321,-4.2902,-4.2304,-4.1771,-4.1291,-4.0625,-4.0311,-4.0417,-4.0625,-4.0601,-4.0279,-4.0577,-4.0546,-4.0096,-4.0096,-4.0096,-4.0096,-4.0096,-4.0096,-4.0096,-4.0096,-4.0096,-4.0096,-4.0096,-4.0096,-4.0096,-4.0096,-4.0096,-4.0096,-4.0096,-4.0096,-4.0096,-4.0096,-4.0096,-4.0096,-4.0096,-4.0096,-4.0096,-4.0096,-4.0096,-4.0096,-4.0096,-4.0814,-4.1556,-4.1178,-4.2167,-4.3032,-4.1603,-4.1534,-4.1664,-4.1201,-4.1268,-4.1573,-4.1895,-4.1789,-4.1512,-4.1155,-4.0625,-4.0229,-4.0121,-4.0096,-4.0096,-4.0096,-4.0096,-4.0096,-4.0096,-4.0096,-4.0096,-4.0096,-4.1122,-4.1686,-4.1429,-4.175,-4.1979,-4.1979,-4.1313,-4.0949,-4.1064,-4.0932,-4.1027,-4.1375,-4.0732,-4.0212,-3.99,-3.9143,-3.8831,-3.8927,-3.8603,-3.862,-3.0616,-3.0036,-3.0266,-3.1619,-3.1842,-3.2912,0.0,-3.6891,-3.6122,-3.8744,-3.935,-3.9451,-3.9571,-3.974,-3.9893,-3.996,-4.0501,-4.111,-4.1725,-4.2322,-4.2883,-4.3357,-4.3462,-4.348,-4.341,-4.292,-4.2577,-4.25,-4.1446,-4.1041,-4.1578,-4.0713,-4.0368,-4.0803,-4.0417,-4.0171,-4.0096,-4.0096,-4.0096,-4.0096,-4.0096,-4.0096,-4.0096,-4.0096,-4.0096,-4.0096,-4.0096,-4.0096,-4.0096,-4.0096,-4.0096,-4.0096,-4.0096,-4.0096,-4.0096,-4.0096,-4.0096,-4.0096,-4.0096,-4.0096,-4.0096,-4.0096,-4.0096,-4.0096,-4.0096,-4.0521,-4.111,-4.1578,-4.2223,-4.2732,-4.2539,-4.2142,-4.1771,-4.1725,-4.0984,-4.0713,-4.2262,-4.1768,-4.1155,-4.1599,-4.1223,-4.0655,-4.0179,-4.0096,-4.0096,-4.0096,-4.0096,-4.0096,-4.0096,-4.0096,-4.0096,-4.0096,-4.1122,-4.2185,-4.3123,-4.2846,-4.2596,-4.2596,-4.1534,-4.1155,-4.1664,-4.1679,-4.1581,-4.1393,-4.1827,-4.1332,-3.99,-3.9323,-3.9304,-3.9738,-3.8297,-3.841,-3.5471,-3.3968,-3.2678,-3.4322,-3.478,-3.5398,-3.7536,-3.7564,-3.7721,-3.9697,-4.0096,-4.0096,-4.0096,-4.0096,-4.0096,-4.0096,-4.0844,-4.1512,-4.175,-4.2599,-4.325,-4.3462,-4.3515,-4.3515,-4.3515,-4.3014,-4.2711,-4.2711,-4.1916,-4.138,-4.1291,-4.0827,-4.0546,-4.0424,-4.0229,-4.0096,-4.0096,-4.0096,-4.0096,-4.0096,-4.0096,-4.0096,-4.0096,-4.0096,-4.0096,-4.0096,-4.0096,-4.0096,-4.0096,-4.0096,-4.0096,-4.0096,-4.0096,-4.0096,-4.0096,-4.0096,-4.0096,-4.0096,-4.0096,-4.0096,-4.0096,-4.0096,-4.0096,-4.0096,-4.0096,-4.0473,-4.1018,-4.1621,-4.2223,-4.2711,-4.2711,-4.2519,-4.2241,-4.1895,-4.1703,-4.1807,-4.2537,-4.2021,-4.1512,-4.175,-4.1059,-4.0368,-4.0146,-4.0096,-4.0096,-4.0096,-4.0096,-4.0096,-4.0096,-4.0096,-4.0229,-4.0528,-4.099,-4.175,-4.2921,-4.2826,-4.2539,-4.2203,-4.1707,-4.138,-4.1291,-4.1621,-4.1902,-4.2151,-4.2247,-4.1974,-4.1295,-4.06,-4.0381,-4.0581,-3.9551,-3.9673,-3.6843,-3.5691,-3.466,-3.6151,-3.7109,-3.7709,-3.7709,-3.8108,-3.8802,-3.9893,-4.0096,-4.0096,-4.0096,-4.0096,-4.0096,-4.0096,-4.0914,-4.1599,-4.1789,-4.2657,-4.3321,-4.3479,-4.3515,-4.3515,-4.3515,-4.316,-4.292,-4.292,-4.2382,-4.1919,-4.1629,-4.1318,-4.1059,-4.0814,-4.049,-4.0336,-4.0336,-4.0154,-4.0096,-4.0096,-4.0096,-4.0096,-4.0096,-4.0096,-4.0096,-4.0096,-4.0096,-4.0096,-4.0096,-4.0096,-4.0096,-4.0096,-4.0096,-4.0096,-4.0096,-4.0096,-4.0096,-4.0096,-4.0096,-4.0096,-4.0096,-4.0096,-4.0096,-4.0121,-4.0286,-4.0601,-4.1064,-4.1832,-4.2362,-4.2713,-4.2883,-4.2807,-4.2596,-4.2142,-4.2244,-4.246,-4.246,-4.2121,-4.175,-4.1578,-4.0891,-4.0262,-4.0121,-4.0096,-4.0096,-4.0096,-4.0096,-4.0096,-4.0096,-4.0096,-4.0311,-4.0833,-4.0903,-4.1335,-4.2362,-4.246,-4.2282,-4.1832,-4.1643,-4.1424,-4.1155,-4.1424,-4.1916,-4.2674,-4.2523,-4.2299,-4.2062,-4.1339,-4.0978,-4.0942,-4.0206,-4.0461,-3.2668,-3.3511,-3.5332,-3.6508,-3.8403,-3.9994,-3.9994,-4.0028,-4.0045,-4.0096,-4.0096,-4.0096,-4.0096,-4.0096,-4.0096,-4.0096,-4.0552,-4.1133,-4.1707,-4.2342,-4.292,-4.3427,-4.3515,-4.3515,-4.3515,-4.3497,-4.348,-4.348,-4.2976,-4.2902,-4.3391,-4.2366,-4.2021,-4.2596,-4.149,-4.088,-4.088,-4.0343,-4.0096,-4.0096,-4.0096,-4.0096,-4.0096,-4.0096,-4.0096,-4.0096,-4.0096,-4.0096,-4.0096,-4.0096,-4.0096,-4.0096,-4.0096,-4.0096,-4.0096,-4.0096,-4.0096,-4.0096,-4.0096,-4.0096,-4.0096,-4.0096,-4.0096,-4.0204,-4.0726,-4.088,-4.1155,-4.2342,-4.2692,-4.2826,-4.3339,-4.3087,-4.2711,-4.2692,-4.2223,-4.1832,-4.1832,-4.1793,-4.1621,-4.1041,-4.0903,-4.0726,-4.0179,-4.0096,-4.0096,-4.0096,-4.0096,-4.0096,-4.0096,-4.0096,-4.0311,-4.0833,-4.0903,-4.1155,-4.1771,-4.1832,-4.1832,-4.181,-4.1246,-4.1178,-4.175,-4.1246,-4.149,-4.2692,-4.2694,-4.2279,-4.143,-4.0951,-4.0689,-4.0583,-3.9531,-4.0026,-3.6343,-3.7129,-3.7985,-3.9207,-4.0081,-4.0546,-4.0179,-4.0096,-4.0204,-4.0552,-4.0343,-4.0204,-4.0577,-4.0343,-4.0096,-4.0096,-4.0552,-4.111,-4.1725,-4.2322,-4.2902,-4.3427,-4.3515,-4.3515,-4.3515,-4.3515,-4.3515,-4.3515,-4.3321,-4.3142,-4.2976,-4.2598,-4.2302,-4.2121,-4.1335,-4.0903,-4.0903,-4.0368,-4.0096,-4.0096,-4.0096,-4.0096,-4.0096,-4.0096,-4.0096,-4.0096,-4.0096,-4.0096,-4.0096,-4.0096,-4.0096,-4.0096,-4.0096,-4.0096,-4.0096,-4.0096,-4.0096,-4.0096,-4.0096,-4.0096,-4.0096,-4.0096,-4.0096,-4.0146,-4.0311,-4.0368,-4.0601,-4.1768,-4.2101,-4.2324,-4.3268,-4.3375,-4.3142,-4.2788,-4.2539,-4.24,-4.24,-4.1771,-4.1268,-4.1468,-4.0891,-4.0311,-4.0121,-4.0096,-4.0096,-4.0096,-4.0096,-4.0096,-4.0096,-4.0096,-4.0154,-4.0343,-4.0368,-4.0618,-4.1155,-4.1183,-4.1183,-4.1183,-4.1018,-4.0827,-4.0689,-4.0803,-4.1087,-4.1512,-4.1895,-4.1958,-4.1673,-4.1508,-4.1421,-4.1379,-4.0625,-4.0585,-3.8359,-3.8995,-3.9352,-4.0849,-4.1223,-4.1133,-4.0791,-4.0713,-4.0814,-4.1155,-4.0504,-3.9973,-4.0424,-4.0152,-3.9905,-4.0078,-4.0968,-4.1783,-4.2135,-4.2734,-4.321,-4.3464,-4.3515,-4.3515,-4.3515,-4.3515,-4.3515,-4.3515,-4.3515,-4.3357,-4.2995,-4.2976,-4.2808,-4.2406,-4.1856,-4.1446,-4.1206,-4.0672,-4.0286,-4.0096,-4.0096,-4.0096,-4.0096,-4.0096,-4.0096,-4.0096,-4.0096,-4.0096,-4.0096,-4.0096,-4.0096,-4.0096,-4.0096,-4.0096,-4.0096,-4.0096,-4.0096,-4.0096,-4.0096,-4.0096,-4.0096,-4.0096,-4.0096,-4.0146,-4.0336,-4.0392,-4.0625,-4.1789,-4.2121,-4.2284,-4.3014,-4.3214,-4.3142,-4.2788,-4.2537,-4.2382,-4.2382,-4.1599,-4.0949,-4.115,-4.0594,-4.0096,-4.0096,-4.0096,-4.0096,-4.0096,-4.0096,-4.0096,-4.0096,-4.0096,-4.0096,-4.0096,-4.0096,-4.0254,-4.0577,-4.0607,-4.0607,-4.0607,-4.0607,-4.0449,-4.0121,-4.0441,-4.0685,-4.0903,-4.1291,-4.149,-4.149,-4.149,-4.138,-4.1173,-4.0797,-4.0607,-3.8629,-3.9157,-3.9643,-4.141,-4.1853,-4.1853,-4.181,-4.181,-4.1775,-4.1672,-4.0406,-3.937,-3.9512,-3.9431,-3.9476,-3.9904,-4.1638,-4.2934,-4.2894,-4.3435,-4.3755,-4.3519,-4.3515,-4.3515,-4.3515,-4.3515,-4.3515,-4.3515,-4.3515,-4.3515,-4.3515,-4.3515,-4.3515,-4.3515,-4.2976,-4.242,-4.181,-4.1178,-4.0601,-4.0096,-4.0096,-4.0096,-4.0096,-4.0096,-4.0096,-4.0096,-4.0096,-4.0096,-4.0096,-4.0096,-4.0096,-4.0096,-4.0096,-4.0096,-4.0096,-4.0096,-4.0096,-4.0096,-4.0096,-4.0096,-4.0096,-4.0096,-4.0096,-4.0179,-4.0685,-4.0856,-4.111,-4.2322,-4.2635,-4.2616,-4.2674,-4.2711,-4.2674,-4.2616,-4.2183,-4.1789,-4.175,-4.1291,-4.0726,-4.0229,-4.0121,-4.0096,-4.0096,-4.0096,-4.0096,-4.0096,-4.0096,-4.0096,-4.0096,-4.0096,-4.0096,-4.0096,-4.0096,-4.0096,-4.0096,-4.0096,-4.0096,-4.0096,-4.0096,-4.0121,-4.0146,-4.0146,-4.0368,-4.088,-4.0903,-4.088,-4.0856,-4.0856,-4.0601,-4.0096,-4.0096,-4.0096,-4.0286,-4.1439,-4.2376,-4.2454,-4.248,-4.2342,-4.1895,-4.181,-4.1402,-3.9995,-3.9066,-3.8007,-3.6383,-3.7406,-3.8444,-3.8269,-4.0412,-4.226,-4.2687,-4.2884,-4.3119,-4.3445,-4.3515,-4.3515,-4.3515,-4.3515,-4.3515,-4.3515,-4.3515,-4.3515,-4.3515,-4.3515,-4.3515,-4.3515,-4.2976,-4.242,-4.181,-4.0814,-4.0229,-4.0096,-4.0096,-4.0096,-4.0096,-4.0096,-4.0096,-4.0096,-4.0096,-4.0096,-4.0096,-4.0096,-4.0096,-4.0096,-4.0096,-4.0096,-4.0096,-4.0096,-4.0096,-4.0096,-4.0096,-4.0096,-4.0096,-4.0096,-4.0096,-4.0121,-4.0262,-4.0311,-4.0546,-4.1703,-4.1725,-4.1556,-4.246,-4.2711,-4.248,-4.1578,-4.1578,-4.1664,-4.1223,-4.0679,-4.0368,-4.0631,-4.0368,-4.0096,-4.0096,-4.0096,-4.0096,-4.0096,-4.0096,-4.0096,-4.0096,-4.0096,-4.0096,-4.0096,-4.0096,-4.0096,-4.0096,-4.0096,-4.0096,-4.0096,-4.0096,-4.0286,-4.0679,-4.0703,-4.0756,-4.0903,-4.0903,-4.0685,-4.0311,-4.0311,-4.0229,-4.0096,-4.0096,-4.0096,-4.1846,-4.28,-4.3427,-4.3142,-4.305,-4.2686,-4.1266,-4.0975,-4.0257,-3.7771,-3.6721,-3.5714,-3.3865,-3.5913,-3.7774,-3.7401,-4.0564,-4.3102,-4.3159,-4.3408,-4.3561,-4.3517,-4.3515,-4.3515,-4.3515,-4.3515,-4.3515,-4.3515,-4.3515,-4.3515,-4.3515,-4.3515,-4.3515,-4.3515,-4.3214,-4.2638,-4.181,-4.0914,-4.0336,-4.0096,-4.0096,-4.0096,-4.0096,-4.0096,-4.0096,-4.0096,-4.0096,-4.0096,-4.0096,-4.0096,-4.0096,-4.0096,-4.0096,-4.0096,-4.0096,-4.0096,-4.0096,-4.0096,-4.0096,-4.0096,-4.0096,-4.0096,-4.0096,-4.0096,-4.0096,-4.0262,-4.0648,-4.1552,-4.1746,-4.1853,-4.2519,-4.25,-4.2142,-4.1468,-4.1173,-4.103,-4.0926,-4.0473,-4.0179,-4.0497,-4.0311,-4.0096,-4.0096,-4.0096,-4.0096,-4.0096,-4.0096,-4.0096,-4.0096,-4.0096,-4.0096,-4.0096,-4.0096,-4.0096,-4.0096,-4.0096,-4.0096,-4.0096,-4.0096,-4.0343,-4.088,-4.0903,-4.0903,-4.0903,-4.0903,-4.0631,-4.0096,-4.0096,-4.0096,-4.0096,-4.0096,-4.0096,-4.3112,-4.3515,-4.3515,-4.3515,-4.3515,-4.2872,-4.0451,-3.9808,-3.8744,-3.5243,-3.388,-3.2898,-3.1542,-3.4328,-3.6838,-3.6824,-4.0999,-4.4108,-4.3785,-4.4217,-4.4287,-4.3588,-4.3515,-4.3515,-4.3515,-4.3515,-4.3515,-4.3515,-4.3515,-4.3515,-4.3515,-4.3515,-4.3515,-4.3515,-4.3427,-4.2922,-4.1937,-4.1335,-4.075,-4.0204,-4.0204,-4.0171,-4.0096,-4.0096,-4.0096,-4.0096,-4.0096,-4.0096,-4.0096,-4.0096,-4.0096,-4.0096,-4.0096,-4.0096,-4.0096,-4.0096,-4.0096,-4.0096,-4.0096,-4.0096,-4.0096,-4.0096,-4.0096,-4.0096,-4.0096,-4.0424,-4.092,-4.1512,-4.2018,-4.238,-4.244,-4.2062,-4.1664,-4.1578,-4.0868,-4.0311,-4.0726,-4.0441,-4.0096,-4.0096,-4.0096,-4.0096,-4.0096,-4.0096,-4.0096,-4.0096,-4.0096,-4.0096,-4.0096,-4.0096,-4.0096,-4.0096,-4.0096,-4.0096,-4.0096,-4.0096,-4.0096,-4.0096,-4.0096,-4.0343,-4.088,-4.0903,-4.0903,-4.0903,-4.0903,-4.0631,-4.0096,-4.0096,-4.0096,-4.0096,-4.0096,-4.0096,-4.3423,-4.3515,-4.3515,-4.3515,-4.3515,-4.2872,-4.0451,-3.9386,-3.7606,-3.2981,-3.1384,-3.0259,-2.835,-3.099,-3.4,-3.5652,-3.9205,-4.2161,-4.3375,-4.3629,-4.3644,-4.3533,-4.3515,-4.3515,-4.3515,-4.3515,-4.3515,-4.3515,-4.3515,-4.3515,-4.3515,-4.3515,-4.3515,-4.3515,-4.3069,-4.2732,-4.2557,-4.1937,-4.1335,-4.0756,-4.0756,-4.0528,-4.0096,-4.0096,-4.0096,-4.0096,-4.0096,-4.0096,-4.0096,-4.0096,-4.0096,-4.0096,-4.0096,-4.0096,-4.0096,-4.0096,-4.0096,-4.0096,-4.0096,-4.0096,-4.0096,-4.0096,-4.0096,-4.0096,-4.0096,-4.0154,-4.0343,-4.0897,-4.0797,-4.0642,-4.1087,-4.1133,-4.0926,-4.0514,-4.0577,-4.0655,-4.0311,-4.0171,-4.0096,-4.0096,-4.0096,-4.0096,-4.0096,-4.0096,-4.0096,-4.0096,-4.0096,-4.0096,-4.0096,-4.0096,-4.0096,-4.0096,-4.0096,-4.0096,-4.0096,-4.0096,-4.0096,-4.0096,-4.0096,-4.0343,-4.088,-4.0903,-4.0903,-4.0903,-4.0903,-4.0631,-4.0096,-4.0096,-4.0096,-4.0096,-4.0096,-4.0096,-4.3515,-4.3515,-4.3515,-4.3515,-4.3515,-4.2415,-3.8303,-3.7041,-3.5151,-2.945,-2.8301,-2.7779,-2.598,-2.9106,-3.2287,-3.3305,-3.7424,-4.0891,-4.2084,-4.2965,-4.3515,-4.3515,-4.3515,-4.3515,-4.3515,-4.3515,-4.3515,-4.3515,-4.3515,-4.3515,-4.3515,-4.3515,-4.3515,-4.3515,-4.325,-4.2976,-4.2693,-4.2402,-4.1958,-4.1358,-4.1064,-4.0756,-4.0521,-4.0229,-4.0096,-4.0096,-4.0096,-4.0096,-4.0096,-4.0096,-4.0096,-4.0096,-4.0096,-4.0096,-4.0096,-4.0096,-4.0096,-4.0096,-4.0096,-4.0096,-4.0096,-4.0096,-4.0096,-4.0096,-4.0096,-4.0096,-4.0204,-4.0733,-4.0709,-4.0648,-4.1223,-4.1133,-4.085,-4.0577,-4.0497,-4.0417,-4.0171,-4.0096,-4.0096,-4.0096,-4.0096,-4.0096,-4.0096,-4.0096,-4.0096,-4.0096,-4.0096,-4.0096,-4.0096,-4.0096,-4.0096,-4.0096,-4.0096,-4.0096,-4.0096,-4.0096,-4.0096,-4.0096,-4.0096,-4.0343,-4.088,-4.0903,-4.0903,-4.0903,-4.0903,-4.0631,-4.0096,-4.0096,-4.0096,-4.0096,-4.0096,-4.0096,-4.3515,-4.3515,-4.3515,-4.3515,-4.3515,-4.2011,-3.6325,-3.4876,-3.2968,-2.6696,-2.5768,-2.575,-2.4649,-2.7706,-3.065,-3.1513,-3.5697,-3.9386,-4.0893,-4.2341,-4.3296,-4.3478,-4.3515,-4.3515,-4.3515,-4.3515,-4.3515,-4.3515,-4.3582,-4.3614,-4.3614,-4.3548,-4.3531,-4.3595,-4.3531,-4.3286,-4.2883,-4.2883,-4.2578,-4.1979,-4.138,-4.1018,-4.088,-4.0343,-4.0096,-4.0096,-4.0096,-4.0096,-4.0096,-4.0096,-4.0096,-4.0096,-4.0096,-4.0096,-4.0096,-4.0096,-4.0096,-4.0096,-4.0096,-4.0096,-4.0096,-4.0096,-4.0096,-4.0096,-4.0096,-4.0096,-4.0179,-4.0625,-4.0726,-4.0827,-4.1308,-4.1064,-4.0726,-4.0726,-4.0417,-4.0096,-4.0096,-4.0096,-4.0096,-4.0096,-4.0096,-4.0096,-4.0096,-4.0096,-4.0096,-4.0096,-4.0096,-4.0096,-4.0096,-4.0096,-4.0096,-4.0096,-4.0096,-4.0096,-4.0096,-4.0096,-4.0096,-4.0096,-4.0096,-4.0286,-4.0709,-4.0726,-4.0726,-4.0726,-4.0726,-4.0504,-4.0096,-4.0096,-4.0096,-4.0096,-4.0096,-4.0096,-4.3515,-4.3515,-4.3515,-4.3515,-4.3515,-4.2011,-3.6395,-3.4486,-3.2284,-2.6586,-2.4879,-2.4593,-2.5172,-2.6245,-2.8246,-3.1904,-3.416,-3.6765,-4.0563,-4.1864,-4.2671,-4.3423,-4.3515,-4.3515,-4.3515,-4.3515,-4.3515,-4.3515,-4.3772,-4.3955,-4.3955,-4.3679,-4.3629,-4.394,-4.3662,-4.348,-4.3427,-4.3427,-4.3142,-4.2616,-4.2018,-4.1424,-4.088,-4.0343,-4.0096,-4.0096,-4.0096,-4.0096,-4.0096,-4.0096,-4.0096,-4.0096,-4.0096,-4.0096,-4.0096,-4.0096,-4.0096,-4.0096,-4.0096,-4.0096,-4.0096,-4.0096,-4.0096,-4.0096,-4.0096,-4.0096,-4.0096,-4.0171,-4.0154,-4.0196,-4.0229,-4.0204,-4.0154,-4.0154,-4.0146,-4.0096,-4.0096,-4.0096,-4.0096,-4.0096,-4.0096,-4.0096,-4.0096,-4.0096,-4.0096,-4.0096,-4.0096,-4.0096,-4.0096,-4.0096,-4.0096,-4.0096,-4.0096,-4.0096,-4.0096,-4.0096,-4.0096,-4.0096,-4.0096,-4.0121,-4.0154,-4.0154,-4.0154,-4.0154,-4.0154,-4.0146,-4.0096,-4.0096,-4.0096,-4.0096,-4.0096,-4.0096,-4.3369,-4.3515,-4.3515,-4.3515,-4.2763,-4.0708,-3.5495,-3.3293,-3.0889,-2.5742,-2.441,-2.43,-2.4622,-2.5338,-2.6869,-2.9941,-3.2197,-3.4454,-3.7059,-3.9423,-4.0965,-4.1311,-4.2176,-4.2965,-4.346,-4.3515,-4.3515,-4.3515,-4.3612,-4.3881,-4.435,-4.402,-4.3865,-4.4001,-4.366,-4.3515,-4.3515,-4.3515,-4.3392,-4.3178,-4.2617,-4.2038,-4.1424,-4.0827,-4.0417,-4.0096,-4.0096,-4.0096,-4.0096,-4.0096,-4.0096,-4.0096,-4.0096,-4.0096,-4.0096,-4.0096,-4.0096,-4.0096,-4.0096,-4.0096,-4.0096,-4.0096,-4.0096,-4.0096,-4.0096,-4.0096,-4.0096,-4.0096,-4.0096,-4.0096,-4.0096,-4.0096,-4.0096,-4.0096,-4.0096,-4.0096,-4.0096,-4.0096,-4.0096,-4.0096,-4.0096,-4.0096,-4.0096,-4.0096,-4.0096,-4.0096,-4.0096,-4.0096,-4.0096,-4.0096,-4.0096,-4.0096,-4.0096,-4.0096,-4.0096,-4.0096,-4.0096,-4.0096,-4.0096,-4.0096,-4.0096,-4.0096,-4.0096,-4.0096,-4.0096,-4.0096,-4.0096,-4.0096,-4.0096,-4.0096,-4.0096,-4.0096,-4.2855,-4.3331,-4.3515,-4.3515,-4.2286,-3.9811,-3.4926,-3.2572,-3.0038,-2.5199,-2.419,-2.419,-2.419,-2.4658,-2.5852,-2.8253,-3.0271,-3.2436,-3.5023,-3.7588,-3.946,-4.0175,-4.1258,-4.2268,-4.3057,-4.3368,-4.3515,-4.3515,-4.3597,-4.3884,-4.4387,-4.4146,-4.4043,-4.4161,-4.3726,-4.3515,-4.3515,-4.3515,-4.3515,-4.3479,-4.2958,-4.2382,-4.1789,-4.1178,-4.0625,-4.0096,-4.0096,-4.0096,-4.0096,-4.0096,-4.0096,-4.0096,-4.0096,-4.0096,-4.0096,-4.0096,-4.0096,-4.0096,-4.0096,-4.0096,-4.0096,-4.0096,-4.0096,-4.0096,-4.0096,-4.0096,-4.0096,-4.0096,-4.0096,-4.0096,-4.0096,-4.0096,-4.0096,-4.0096,-4.0229,-4.0286,-4.0146,-4.0229,-4.0286,-4.0121,-4.0096,-4.0096,-4.0096,-4.0096,-4.0096,-4.0096,-4.0096,-4.0096,-4.0096,-4.0096,-4.0096,-4.0096,-4.0096,-4.0096,-4.0096,-4.0096,-4.0096,-4.0096,-4.0096,-4.0096,-4.0096,-4.0096,-4.0096,-4.0096,-4.0096,-4.0096,-4.0096,-4.0096,-4.0096,-4.0096,-4.0096,-4.0096,-4.1882,-4.2892,-4.3515,-4.3515,-4.2286,-3.9811,-3.4926,-3.2572,-3.0038,-2.5199,-2.419,-2.419,-2.419,-2.4208,-2.4997,-2.7431,-2.8503,-3.073,-3.5605,-3.6997,-3.841,-4.0802,-4.1095,-4.1425,-4.2231,-4.302,-4.3515,-4.3515,-4.382,-4.4001,-4.4016,-4.3998,-4.4175,-4.458,-4.3884,-4.3515,-4.3515,-4.3515,-4.3515,-4.3479,-4.2958,-4.2382,-4.1789,-4.1178,-4.0625,-4.0096,-4.0096,-4.0096,-4.0096,-4.0096,-4.0096,-4.0096,-4.0096,-4.0096,-4.0096,-4.0096,-4.0096,-4.0096,-4.0096,-4.0096,-4.0096,-4.0096,-4.0096,-4.0096,-4.0096,-4.0096,-4.0096,-4.0096,-4.0096,-4.0096,-4.0096,-4.0096,-4.0096,-4.0096,-4.0521,-4.075,-4.0204,-4.0521,-4.0733,-4.0204,-4.0096,-4.0096,-4.0096,-4.0096,-4.0096,-4.0096,-4.0096,-4.0096,-4.0096,-4.0096,-4.0096,-4.0096,-4.0096,-4.0096,-4.0096,-4.0096,-4.0096,-4.0096,-4.0096,-4.0096,-4.0096,-4.0096,-4.0096,-4.0096,-4.0096,-4.0096,-4.0096,-4.0096,-4.0096,-4.0096,-4.0096,-4.0096,-3.8888,-3.9606,-3.9955,-3.8854,-3.7331,-3.5275,-3.2063,-3.0081,-2.8044,-2.485,-2.419,-2.419,-2.419,-2.419,-2.5529,-2.9597,-3.0467,-3.1971,-3.5771,-3.7936,-3.9221,-3.9441,-4.1405,-4.2837,-4.3094,-4.3349,-4.3515,-4.3515,-4.3597,-4.3884,-4.4373,-4.3927,-4.382,-4.4175,-4.3742,-4.3515,-4.3515,-4.3515,-4.3515,-4.3479,-4.2958,-4.2382,-4.1789,-4.1178,-4.0625,-4.0096,-4.0096,-4.0096,-4.0096,-4.0096,-4.0096,-4.0096,-4.0096,-4.0096,-4.0096,-4.0096,-4.0096,-4.0096,-4.0096,-4.0096,-4.0096,-4.0096,-4.0096,-4.0096,-4.0096,-4.0096,-4.0096,-4.0096,-4.0096,-4.0096,-4.0096,-4.0096,-4.0096,-4.0096,-4.0521,-4.0856,-4.0679,-4.1087,-4.1335,-4.0774,-4.0655,-4.0528,-4.0171,-4.0096,-4.0096,-4.0096,-4.0096,-4.0096,-4.0096,-4.0096,-4.0096,-4.0096,-4.0096,-4.0096,-4.0096,-4.0096,-4.0096,-4.0096,-4.0096,-4.0096,-4.0096,-4.0096,-4.0096,-4.0096,-4.0096,-4.0096,-4.0096,-4.0096,-4.0096,-4.0096,-4.0096,-4.0096,-3.5766,-3.6927,-3.7551,-3.6541,-3.4816,-3.2797,-3.0687,-2.8723,-2.6741,-2.463,-2.419,-2.419,-2.419,-2.419,-2.5273,-2.8606,-2.9384,-3.0944,-3.4798,-3.6909,-3.845,-3.9478,-4.1644,-4.3039,-4.3039,-4.3331,-4.3515,-4.3515,-4.3515,-4.3758,-4.4332,-4.3927,-4.3788,-4.4001,-4.366,-4.3515,-4.3515,-4.3515,-4.3515,-4.3497,-4.316,-4.258,-4.1789,-4.1424,-4.0821,-4.0096,-4.0096,-4.0096,0.0,-4.0096,-4.0096,-4.0096,-4.0096,-4.0096,-4.0096,-4.0096,-4.0096,-4.0096,-4.0096,-4.0096,-4.0096,-4.0096,-4.0096,-4.0146,-4.0343,-4.0417,-4.0417,-4.0417,-4.057,-4.0744,-4.0744,-4.0744,-4.0744,-4.0744,-4.1173,-4.1512,-4.1291,-4.1707,-4.1958,-4.1358,-4.1064,-4.0803,-4.0449,-4.0229,-4.0096,-4.0096,-4.0096,-4.0096,-4.0096,-4.0096,-4.0096,-4.0096,-4.0096,-4.0096,-4.0096,-4.0096,-4.0096,-4.0096,-4.0096,-4.0096,-4.0096,-4.0096,-4.0096,-4.0096,-4.0096,-4.0096,-4.0096,-4.0096,-4.0096,-4.0096,-4.0096,-4.0096,0.0,-3.4468,-3.5752,-3.5642,-3.388,-3.1757,-3.021,-2.8117,0.0,-2.452,-2.419,-2.4226,-2.4355,-2.4281,-2.4585,-2.5723,-2.6484,-2.8631,-3.3476,-3.4931,-3.6949,-4.0802,-4.1937,-4.2396,-4.2396,-4.3057,-4.3515,-4.3515,-4.3515,-4.3662,-4.4013,-4.4031,-4.3998,-4.4028,-4.371,-4.3513,-4.3515,-4.3515,-4.3515,-4.3515,-4.3462,-4.2865,-4.181,-4.1768,-4.1145,-4.0096,-4.0096,-4.0096,-4.0096,-4.0096,-4.0096,-4.0096,-4.0096,-4.0096,-4.0096,-4.0096,-4.0096,-4.0096,-4.0096,-4.0121,-4.0171,-4.0171,-4.0171,-4.0237,-4.0733,-4.0903,-4.0903,-4.0949,-4.138,-4.181,-4.181,-4.181,-4.181,-4.181,-4.2262,-4.2557,-4.1979,-4.2342,-4.2578,-4.1979,-4.138,-4.0949,-4.0903,-4.0449,-4.0096,-4.0096,-4.0096,-4.0096,-4.0096,-4.0096,-4.0096,-4.0096,-4.0096,-4.0096,-4.0096,-4.0096,-4.0096,-4.0096,-4.0096,-4.0096,-4.0096,-4.0096,-4.0096,-4.0096,-4.0096,-4.0096,-4.0096,-4.0096,-4.0096,-4.0096,-4.0096,-4.0096,-2.7174,0.0,-3.0418,-2.92,-2.8436,-2.775,0.0,-2.609,-2.5393,-2.4392,-2.419,-2.4575,-2.5805,-2.5034,-2.5676,-3.0191,-3.0558,-3.1971,-3.6853,-3.9313,-4.1167,-4.2745,-4.3094,-4.3222,-4.3222,-4.3404,-4.3515,-4.3515,-4.3515,-4.3775,-4.4414,-4.4161,-4.4132,-4.446,-4.4091,-4.3756,-4.3496,-4.3515,-4.3515,-4.3497,-4.3069,-4.2501,-4.1771,-4.1335,-4.075,-4.0096,-4.0096,-4.0096,-4.0096,-4.0096,-4.0096,-4.0096,-4.0096,-4.0096,-4.0096,-4.0096,-4.0096,-4.0096,-4.0096,-4.0368,-4.0726,-4.0761,-4.0744,-4.075,-4.0856,-4.0903,-4.0995,-4.1468,-4.1686,-4.181,-4.181,-4.181,-4.181,-4.181,-4.2262,-4.2655,-4.2519,-4.2921,-4.3142,-4.2598,-4.2,-4.1446,-4.0972,-4.0449,-4.0096,-4.0096,-4.0096,-4.0096,-4.0096,-4.0096,-4.0096,-4.0096,-4.0096,-4.0096,-4.0096,-4.0096,-4.0096,-4.0096,-4.0096,-4.0096,-4.0096,-4.0096,-4.0096,-4.0096,-4.0096,-4.0096,-4.0096,-4.0096,-4.0096,-4.0096,-4.0096,-4.0096,-2.4842,-2.6888,-2.8785,-2.7923,-2.742,-2.7034,-2.6605,-2.565,-2.4732,-2.4281,-2.419,-2.4465,-2.5346,-2.5988,-2.7152,-2.9464,-3.1647,-3.4504,-3.867,-4.1332,-4.3002,-4.346,-4.3515,-4.3515,-4.3515,-4.3515,-4.3515,-4.3515,-4.3515,-4.3726,-4.4308,-4.4117,-4.4087,-4.4304,-4.4102,-4.3833,-4.3496,-4.3515,-4.3515,-4.3497,-4.3214,-4.277,-4.2203,-4.1874,-4.142,-4.0885,-4.0885,-4.0885,-4.0861,-4.0594,-4.0473,-4.0473,-4.0473,-4.0473,-4.0497,-4.0791,-4.0885,-4.0885,-4.0885,-4.0874,-4.0949,-4.1281,-4.115,-4.0995,-4.1556,-4.1746,-4.1793,-4.2121,-4.2384,-4.2581,-4.2581,-4.2581,-4.2581,-4.2581,-4.2828,-4.3087,-4.3087,-4.3304,-4.341,-4.3105,-4.2599,-4.2021,-4.1424,-4.0885,-4.0427,-4.0146,-4.0096,-4.0096,-4.0096,-4.0096,-4.0096,-4.0096,-4.0096,-4.0096,-4.0096,-4.0096,-4.0096,-4.0096,-4.0096,-4.0096,-4.0096,-4.0096,-4.0096,-4.0096,-4.0096,-4.0096,-4.0096,-4.0096,-4.0096,-4.0096,-4.0096,-4.0096,-2.4649,-2.6924,-2.9042,-2.8418,-2.7952,-2.7559,-2.7321,-2.5658,-2.419,-2.419,-2.419,-2.4428,-2.5162,-2.7236,-2.8693,-2.8319,-3.2472,-3.6747,-3.9662,-4.2064,-4.3515,-4.3515,-4.3515,-4.3515,-4.3515,-4.3515,-4.3515,-4.3515,-4.3515,-4.3646,-4.3986,-4.4001,-4.4001,-4.4001,-4.4001,-4.3833,-4.3496,-4.3515,-4.3515,-4.3515,-4.3515,-4.3214,-4.2711,-4.2711,-4.2362,-4.181,-4.181,-4.181,-4.175,-4.1246,-4.1041,-4.1041,-4.1041,-4.1041,-4.111,-4.1599,-4.181,-4.1793,-4.1916,-4.1534,-4.1133,-4.1729,-4.1599,-4.138,-4.2382,-4.2769,-4.2826,-4.2826,-4.316,-4.3515,-4.3515,-4.3515,-4.3515,-4.3515,-4.3515,-4.3515,-4.3515,-4.3515,-4.3515,-4.3515,-4.3087,-4.2539,-4.2038,-4.1415,-4.0808,-4.0286,-4.0146,-4.0096,-4.0096,-4.0096,-4.0096,-4.0096,-4.0096,-4.0096,-4.0096,-4.0096,-4.0096,-4.0096,-4.0096,-4.0096,-4.0096,-4.0096,-4.0096,-4.0096,-4.0096,-4.0096,-4.0096,-4.0096,-4.0096,-4.0096,-4.0096,-4.0096,-2.6686,-2.8594,-2.92,-2.5786,-2.5878,-2.6429,-2.5052,-2.4465,-2.419,-2.419,-2.419,-2.5438,-2.9542,-2.9017,-2.9714,-3.4977,-3.7698,-3.9551,-4.0747,-4.2415,-4.3515,-4.3515,-4.3515,-4.3515,-4.3515,-4.3515,-4.3515,-4.3515,-4.3515,-4.3646,-4.3986,-4.4001,-4.4001,-4.4001,-4.4001,-4.3833,-4.3496,-4.3515,-4.3515,-4.3515,-4.3515,-4.3214,-4.2711,-4.2711,-4.2362,-4.181,-4.181,-4.181,-4.1793,-4.1686,-4.1664,-4.1664,-4.1664,-4.1664,-4.1664,-4.1768,-4.181,-4.1874,-4.2382,-4.2162,-4.175,-4.2362,-4.25,-4.246,-4.2635,-4.3014,-4.3375,-4.3375,-4.3427,-4.3515,-4.3515,-4.3515,-4.3515,-4.3515,-4.3515,-4.3515,-4.3515,-4.3515,-4.3515,-4.3515,-4.3087,-4.2655,-4.2577,-4.166,-4.0897,-4.078,-4.0392,-4.0096,-4.0096,-4.0096,-4.0096,-4.0096,-4.0096,-4.0096,-4.0096,-4.0096,-4.0096,-4.0096,-4.0096,-4.0096,-4.0096,-4.0096,-4.0096,-4.0096,-4.0096,-4.0096,-4.0096,-4.0096,-4.0096,-4.0096,-4.0096,-4.0096,-2.5548,-2.7034,-2.7915,-2.6502,-2.8656,-3.106,-3.0797,-3.0044,-2.9145,-2.8275,-2.8092,-2.8771,-3.0993,-3.1935,-3.4229,-3.9843,-4.0634,-4.0983,-4.2213,-4.302,-4.3515,-4.3515,-4.3515,-4.3515,-4.3515,-4.3515,-4.3515,-4.3515,-4.3515,-4.3563,-4.3726,-4.3726,-4.3726,-4.3726,-4.3726,-4.3662,-4.3496,-4.3515,-4.3515,-4.3515,-4.3515,-4.3375,-4.3124,-4.3124,-4.2977,-4.2734,-4.2734,-4.2734,-4.2715,-4.2422,-4.2282,-4.2282,-4.2282,-4.2282,-4.2322,-4.26,-4.2734,-4.2753,-4.305,-4.2752,-4.2382,-4.2958,-4.2939,-4.2751,-4.3032,-4.3303,-4.3515,-4.3515,-4.3515,-4.3515,-4.3515,-4.3515,-4.3515,-4.3515,-4.3515,-4.3515,-4.3515,-4.3515,-4.3515,-4.3515,-4.3303,-4.3032,-4.275,-4.1958,-4.1291,-4.0949,-4.0424,-4.0096,-4.0096,-4.0096,-4.0096,-4.0096,-4.0096,-4.0096,-4.0096,-4.0096,-4.0096,-4.0096,-4.0096,-4.0096,-4.0096,-4.0096,-4.0096,-4.0096,-4.0096,-4.0096,-4.0096,-4.0096,-4.0096,-4.0096,-4.0096,-4.0096,-2.4887,-2.5933,-2.7218,-2.8576,-3.0999,-3.3445,-3.5073,-3.4009,-3.254,-3.2045,-3.1966,-3.2149,-3.2719,-3.5495,-3.8854,-4.2359,-4.2213,-4.2084,-4.3331,-4.3515,-4.3515,-4.3515,-4.3515,-4.3515,-4.3515,-4.3515,-4.3515,-4.3515,-4.3515,-4.3515,-4.3515,-4.3515,-4.3515,-4.3515,-4.3515,-4.3531,-4.3631,-4.3548,-4.3515,-4.3515,-4.3515,-4.3515,-4.3515,-4.3515,-4.3515,-4.3515,-4.3515,-4.3515,-4.348,-4.305,-4.2883,-4.2883,-4.2883,-4.2883,-4.2939,-4.3357,-4.3515,-4.3515,-4.3515,-4.3232,-4.2958,-4.3375,-4.3214,-4.2958,-4.3375,-4.3515,-4.3515,-4.3515,-4.3515,-4.3515,-4.3515,-4.3515,-4.3515,-4.3515,-4.3515,-4.3515,-4.3515,-4.3515,-4.3515,-4.3515,-4.3392,-4.3214,-4.2939,-4.2284,-4.1643,-4.1178,-4.0648,-4.0254,-4.0121,-4.0096,-4.0096,-4.0096,-4.0096,-4.0096,-4.0096,-4.0096,-4.0096,-4.0096,-4.0096,-4.0096,-4.0096,-4.0096,-4.0096,-4.0096,-4.0096,-4.0096,-4.0096,-4.0096,-4.0096,-4.0096,-4.0096,-4.0096,-2.6924,-2.7622,-2.8429,-3.1482,-2.9702,-2.8198,-3.1995,-3.1041,-3.0161,-3.3036,-3.3623,-3.4321,-3.6648,-3.9698,-4.1735,-4.1334,-4.2433,-4.3369,-4.3478,-4.3515,-4.3515,-4.3515,-4.3515,-4.3515,-4.3515,-4.3515,-4.3515,-4.3515,-4.3515,-4.3515,-4.3515,-4.3515,-4.3515,-4.3515,-4.3515,-4.3646,-4.3955,-4.3662,-4.3515,-4.3515,-4.3515,-4.3515,-4.3515,-4.3515,-4.3515,-4.3515,-4.3515,-4.3515,-4.3497,-4.3444,-4.3444,-4.3444,-4.3444,-4.3444,-4.3444,-4.3497,-4.3515,-4.3515,-4.3515,-4.3462,-4.3444,-4.3497,-4.3462,-4.3444,-4.3497,-4.3515,-4.3515,-4.3515,-4.3515,-4.3515,-4.3515,-4.3515,-4.3515,-4.3515,-4.3515,-4.3515,-4.3515,-4.3515,-4.3515,-4.3515,-4.3105,-4.2902,-4.3356,-4.2523,-4.1789,-4.1729,-4.1223,-4.0655,-4.0171,-4.0096,-4.0096,-4.0096,-4.0096,-4.0096,-4.0096,-4.0096,-4.0096,-4.0096,-4.0096,-4.0096,-4.0096,-4.0096,-4.0096,-4.0096,-4.0096,-4.0096,-4.0096,-4.0096,-4.0096,-4.0096,-4.0096,-4.0096,-2.5181,-2.6282,-2.7585,-2.9812,-2.9592,-3.0173,-3.5224,-3.6454,-3.6876,-3.8086,-3.8325,-3.8469,-3.8909,-4.1203,-4.2782,-4.1992,-4.2782,-4.3515,-4.3515,-4.3515,-4.3515,-4.3515,-4.3515,-4.3515,-4.3515,-4.3515,-4.3515,-4.3515,-4.3515,-4.3515,-4.3515,-4.3515,-4.3515,-4.3515,-4.3693,-4.3865,-4.4001,-4.4121,-4.418,-4.4184,-4.3728,-4.3515,-4.3515,-4.3515,-4.3515,-4.3515,-4.3515,-4.3515,-4.3515,-4.3515,-4.3515,-4.3515,-4.3515,-4.3515,-4.3515,-4.3515,-4.3515,-4.3515,-4.3515,-4.3515,-4.3515,-4.3515,-4.3515,-4.3515,-4.3515,-4.3515,-4.3515,-4.3515,-4.3515,-4.3515,-4.3515,-4.3515,-4.3515,-4.3515,-4.3515,-4.3515,-4.3515,-4.3515,-4.3515,-4.3515,-4.3339,-4.316,-4.3032,-4.2324,-4.1682,-4.1348,-4.0791,-4.0336,-4.0121,-4.0096,-4.0096,-4.0096,-4.0096,-4.0096,-4.0096,-4.0096,-4.0096,-4.0096,-4.0096,-4.0096,-4.0096,-4.0096,-4.0096,-4.0096,-4.0096,-4.0096,-4.0096,-4.0096,-4.0096,-4.0096,-4.0096,-4.0096,-2.4887,-2.5952,-2.7493,-2.961,-3.0363,-3.2008,-3.7459,-3.9166,-4.0029,-4.1552,-4.1444,-4.1003,-4.0708,-4.1791,-4.2653,-4.2359,-4.2983,-4.3515,-4.3515,-4.3515,-4.3515,-4.3515,-4.3515,-4.3515,-4.3515,-4.3515,-4.3515,-4.3515,-4.3515,-4.3515,-4.3515,-4.3515,-4.3515,-4.3515,-4.3726,-4.394,-4.4175,-4.435,-4.4527,-4.4745,-4.4154,-4.3855,-4.3836,-4.3728,-4.3662,-4.3646,-4.3548,-4.3515,-4.3515,-4.3515,-4.3515,-4.3515,-4.3515,-4.3515,-4.3515,-4.3515,-4.3515,-4.3515,-4.3515,-4.3515,-4.3515,-4.3515,-4.3515,-4.3515,-4.3515,-4.3515,-4.3515,-4.3515,-4.3515,-4.3515,-4.3515,-4.3515,-4.3515,-4.3515,-4.3515,-4.3515,-4.3515,-4.3515,-4.3515,-4.3515,-4.3356,-4.3142,-4.2769,-4.2203,-4.1617,-4.1047,-4.0618,-4.0286,-4.0121,-4.0096,-4.0096,-4.0096,-4.0096,-4.0096,-4.0096,-4.0096,-4.0096,-4.0096,-4.0096,-4.0096,-4.0096,-4.0096,-4.0096,-4.0096,-4.0096,-4.0096,-4.0096,-4.0096,-4.0096,-4.0096,-4.0096,-4.0096,-2.6778,-2.7181,-2.8576,-3.1775,-3.2027,-3.2742,-3.7606,-3.7477,-3.7698,-4.2523,-4.2231,-4.1352,-4.2158,-4.1645,-4.137,-4.2176,-4.2983,-4.3515,-4.3515,-4.3515,-4.3515,-4.3515,-4.3515,-4.3515,-4.3515,-4.3515,-4.3515,-4.3515,-4.3515,-4.3515,-4.3515,-4.3515,-4.3515,-4.3515,-4.3496,-4.3871,-4.458,-4.4204,-4.4387,-4.5096,-4.4776,-4.4612,-4.4599,-4.4175,-4.4016,-4.3986,-4.3662,-4.3515,-4.3496,-4.3496,-4.3515,-4.3515,-4.3515,-4.3515,-4.3515,-4.3515,-4.3515,-4.3515,-4.3515,-4.3515,-4.3515,-4.3515,-4.3515,-4.3515,-4.3515,-4.3515,-4.3515,-4.3515,-4.3515,-4.3515,-4.3515,-4.3515,-4.3515,-4.3515,-4.3515,-4.3515,-4.3515,-4.3515,-4.3515,-4.3515,-4.3069,-4.2693,-4.2693,-4.2183,-4.1599,-4.0995,-4.088,-4.0703,-4.0171,-4.0096,-4.0096,-4.0096,-4.0096,-4.0096,-4.0096,-4.0096,-4.0096,-4.0096,-4.0096,-4.0096,-4.0096,-4.0096,-4.0096,-4.0096,-4.0096,-4.0096,-4.0096,-4.0096,-4.0096,-4.0096,-4.0096,-4.0096,-2.4125,-2.6308,-2.9005,-3.054,-3.3752,-3.7055,-3.9074,-3.9606,-4.0414,-4.2965,-4.3112,-4.269,-4.2359,-4.2561,-4.2671,-4.2359,-4.2983,-4.3515,-4.3515,-4.3515,-4.3515,-4.3515,-4.3515,-4.3515,-4.3515,-4.3515,-4.3515,-4.3515,-4.3515,-4.3515,-4.3515,-4.3515,-4.3515,-4.3515,-4.3726,-4.3974,-4.4175,-4.4574,-4.4877,-4.5096,-4.5243,-4.5063,-4.4612,-4.4474,-4.4414,-4.4419,-4.4323,-4.4106,-4.3833,-4.3597,-4.3515,-4.3515,-4.3515,-4.3515,-4.3515,-4.3515,-4.3515,-4.3515,-4.3515,-4.3515,-4.3515,-4.3515,-4.3515,-4.3515,-4.3515,-4.3515,-4.3515,-4.3515,-4.3515,-4.3515,-4.3515,-4.3515,-4.3515,-4.3515,-4.3515,-4.3515,-4.3515,-4.3515,-4.3515,-4.3515,-4.3375,-4.2995,-4.2203,-4.1916,-4.1464,-4.0473,-4.0336,-4.0286,-4.0121,-4.0096,-4.0096,-4.0096,-4.0096,-4.0096,-4.0096,-4.0096,-4.0096,-4.0096,-4.0096,-4.0096,-4.0096,-4.0096,-4.0096,-4.0096,-4.0096,-4.0096,-4.0096,-4.0096,-4.0096,-4.0096,-4.0096,-4.0096,-2.7024,-2.9299,-3.1885,-3.3995,-3.6395,-3.8762,-4.0855,-4.1699,-4.2323,-4.3313,-4.324,-4.2965,-4.28,-4.291,-4.2965,-4.28,-4.3167,-4.3515,-4.3515,-4.3515,-4.3515,-4.3515,-4.3515,-4.3515,-4.3515,-4.3515,-4.3515,-4.3515,-4.3515,-4.3515,-4.3515,-4.3515,-4.3515,-4.3515,-4.3712,-4.3865,-4.4001,-4.4436,-4.4818,-4.5096,-4.5312,-4.5253,-4.4988,-4.4861,-4.48,-4.4781,-4.4644,-4.4359,-4.3967,-4.3772,-4.3693,-4.3693,-4.3693,-4.3807,-4.3946,-4.3946,-4.3839,-4.3693,-4.3693,-4.3614,-4.3515,-4.3515,-4.3515,-4.3515,-4.3515,-4.3515,-4.3515,-4.3515,-4.3515,-4.3515,-4.3515,-4.3515,-4.3515,-4.3515,-4.3515,-4.3515,-4.3515,-4.3515,-4.3515,-4.3515,-4.3339,-4.2902,-4.1958,-4.1599,-4.115,-4.0229,-4.0096,-4.0096,-4.0096,-4.0096,-4.0096,-4.0096,-4.0096,-4.0096,-4.0096,-4.0096,-4.0096,-4.0096,-4.0096,-4.0096,-4.0096,-4.0096,-4.0096,-4.0096,-4.0096,-4.0096,-4.0096,-4.0096,-4.0096,-4.0096,-4.0096,-4.0096,-3.2467,-3.394,-3.5848,-3.9793,-3.9405,-3.8998,-4.267,-4.3515,-4.3515,-4.3515,-4.291,-4.2635,-4.3369,-4.2892,-4.2653,-4.3386,-4.3515,-4.3515,-4.3515,-4.3515,-4.3515,-4.3515,-4.3515,-4.3515,-4.3515,-4.3515,-4.3515,-4.3515,-4.3515,-4.3515,-4.3515,-4.3515,-4.3515,-4.3515,-4.3515,-4.3646,-4.3955,-4.3967,-4.4346,-4.5,-4.5074,-4.5253,-4.555,-4.5263,-4.5159,-4.5118,-4.4781,-4.4447,-4.4102,-4.4058,-4.4043,-4.4043,-4.4043,-4.4276,-4.4593,-4.4593,-4.435,-4.4001,-4.4001,-4.3772,-4.3515,-4.3515,-4.3515,-4.3515,-4.3515,-4.3515,-4.3515,-4.3515,-4.3515,-4.3515,-4.3515,-4.3515,-4.3515,-4.3515,-4.3515,-4.3515,-4.3515,-4.3515,-4.3515,-4.3515,-4.3124,-4.2559,-4.1916,-4.1358,-4.078,-4.0179,-4.0096,-4.0096,-4.0096,-4.0096,-4.0096,-4.0096,-4.0096,-4.0096,-4.0096,-4.0096,-4.0096,-4.0096,-4.0096,-4.0096,-4.0096,-4.0096,-4.0096,-4.0096,-4.0096,-4.0096,-4.0096,-4.0096,-4.0096,-4.0096,-4.0096,-4.0096,-2.7247,-3.0558,-3.4743,-3.7584,-4.0265,-4.245,-4.3313,-4.3515,-4.3515,-4.3515,-4.3368,-4.3277,-4.3478,-4.3368,-4.3313,-4.3478,-4.3515,-4.3515,-4.3515,-4.3515,-4.3515,-4.3515,-4.3515,-4.3515,-4.3515,-4.3515,-4.3515,-4.3515,-4.3515,-4.3515,-4.3515,-4.3515,-4.3515,-4.3515,-4.3515,-4.3531,-4.3614,-4.3865,-4.4073,-4.4228,-4.483,-4.5148,-4.5211,-4.541,-4.5495,-4.5466,-4.5129,-4.4943,-4.4842,-4.458,-4.4474,-4.4474,-4.4474,-4.4527,-4.4593,-4.4593,-4.435,-4.4001,-4.4001,-4.3772,-4.3515,-4.3515,-4.3515,-4.3515,-4.3515,-4.3515,-4.3515,-4.3515,-4.3515,-4.3515,-4.3515,-4.3515,-4.3515,-4.3515,-4.3515,-4.3515,-4.3515,-4.3515,-4.3515,-4.3515,-4.341,-4.3014,-4.1979,-4.1686,-4.1263,-4.0254,-4.0096,-4.0096,-4.0096,-4.0096,-4.0096,-4.0096,-4.0096,-4.0096,-4.0096,-4.0096,-4.0096,-4.0096,-4.0096,-4.0096,-4.0096,-4.0096,-4.0096,-4.0096,-4.0096,-4.0096,-4.0096,-4.0096,-4.0096,-4.0096,-4.0096,-4.0096,-2.8686,-3.1843,-3.5151,-3.8414,-4.1368,-4.3515,-4.3515,-4.3515,-4.3515,-4.3515,-4.3515,-4.3515,-4.3515,-4.3515,-4.3515,-4.3515,-4.3515,-4.3515,-4.3515,-4.3515,-4.3515,-4.3515,-4.3515,-4.3515,-4.3515,-4.3515,-4.3515,-4.3515,-4.3515,-4.3515,-4.3515,-4.3515,-4.3515,-4.3515,-4.3515,-4.3515,-4.3515,-4.366,-4.3833,-4.4016,-4.4574,-4.5041,-4.5342,-4.5513,-4.5594,-4.5586,-4.5419,-4.5243,-4.5085,-4.4908,-4.4849,-4.4849,-4.4849,-4.4943,-4.5085,-4.5085,-4.4738,-4.4276,-4.4276,-4.3927,-4.3515,-4.3515,-4.3515,-4.3515,-4.3515,-4.3515,-4.3515,-4.3515,-4.3515,-4.3515,-4.3515,-4.3515,-4.3515,-4.3515,-4.3515,-4.3515,-4.3515,-4.3515,-4.3515,-4.3515,-4.3286,-4.2846,-4.1958,-4.1353,-4.0868,-4.0546,-4.0473,-4.0594,-4.0885,-4.0914,-4.0914,-4.0914,-4.0914,-4.0914,-4.0914,-4.0914,-4.0914,-4.0914,-4.0648,-4.0473,-4.0473,-4.0254,-4.0096,-4.0096,-4.0096,-4.0096,-4.0096,-4.0096,-4.0096,-4.0096,-4.0096,-4.0096,-3.032,-3.3335,-3.5977,-4.0086,-4.2304,-4.3515,-4.3515,-4.3515,-4.3515,-4.3515,-4.3515,-4.3515,-4.3515,-4.3515,-4.3515,-4.3515,-4.3515,-4.3515,-4.3515,-4.3515,-4.3515,-4.3515,-4.3515,-4.3515,-4.3515,-4.3515,-4.3515,-4.3515,-4.3515,-4.3515,-4.3515,-4.3515,-4.3515,-4.3515,-4.3515,-4.3515,-4.3515,-4.3515,-4.3629,-4.3909,-4.4378,-4.4954,-4.5594,-4.5594,-4.5594,-4.5594,-4.5594,-4.5438,-4.5191,-4.5191,-4.5191,-4.5191,-4.5191,-4.5352,-4.5594,-4.5594,-4.5171,-4.4593,-4.4593,-4.4125,-4.3515,-4.3515,-4.3515,-4.3515,-4.3515,-4.3515,-4.3515,-4.3515,-4.3515,-4.3515,-4.3515,-4.3515,-4.3515,-4.3515,-4.3515,-4.3515,-4.3515,-4.3515,-4.3515,-4.3515,-4.3087,-4.2539,-4.2041,-4.1099,-4.0546,-4.0972,-4.1064,-4.1246,-4.1746,-4.181,-4.181,-4.181,-4.181,-4.181,-4.181,-4.181,-4.181,-4.181,-4.1335,-4.1018,-4.0903,-4.0473,-4.0179,-4.0096,-4.0096,-4.0096,-4.0096,-4.0096,-4.0096,-4.0096,-4.0096,-4.0096,-2.3355,-2.909,-3.5977,-4.0086,-4.2304,-4.3515,-4.3515,-4.3515,-4.3515,-4.3515,-4.3515,-4.3515,-4.3515,-4.3515,-4.3515,-4.3515,-4.3515,-4.3515,-4.3515,-4.3515,-4.3515,-4.3515,-4.3515,-4.3515,-4.3515,-4.3515,-4.3515,-4.3515,-4.3515,-4.3515,-4.3515,-4.3515,-4.3515,-4.3515,-4.3515,-4.3515,-4.3515,-4.3515,-4.3513,-4.3582,-4.4266,-4.4954,-4.5594,-4.5594,-4.5594,-4.5594,-4.5594,-4.5577,-4.5522,-4.5522,-4.5522,-4.5522,-4.5522,-4.5568,-4.5594,-4.5594,-4.5171,-4.4593,-4.4593,-4.4125,-4.3515,-4.3515,-4.3515,-4.3515,-4.3515,-4.3515,-4.3515,-4.3515,-4.3515,-4.3515,-4.3515,-4.3515,-4.3515,-4.3515,-4.3515,-4.3515,-4.3515,-4.3515,-4.3515,-4.3515,-4.3087,-4.2674,-4.2596,-4.2018,-4.1595,-4.1664,-4.1686,-4.1707,-4.1789,-4.181,-4.181,-4.181,-4.181,-4.181,-4.181,-4.181,-4.181,-4.181,-4.1707,-4.1446,-4.0926,-4.0833,-4.0577,-4.0096,-4.0096,-4.0096,-4.0096,-4.0096,-4.0096,-4.0096,-4.0096,-4.0096,-2.4704,-3.0687,-3.6597,-4.0196,-4.2304,-4.3515,-4.3515,-4.3515,-4.3515,-4.3515,-4.3515,-4.3515,-4.3515,-4.3515,-4.3515,-4.3515,-4.3515,-4.3515,-4.3515,-4.3515,-4.3515,-4.3515,-4.3515,-4.3515,-4.3515,-4.3515,-4.3515,-4.3515,-4.3515,-4.3515,-4.3515,-4.3515,-4.3515,-4.3515,-4.3515,-4.3515,-4.3515,-4.3515,-4.3712,-4.4125,-4.4447,-4.4954,-4.5594,-4.5594,-4.5594,-4.5594,-4.5594,-4.5594,-4.5594,-4.5594,-4.5594,-4.5594,-4.5594,-4.5594,-4.5594,-4.5594,-4.5171,-4.4593,-4.4593,-4.4125,-4.3515,-4.3515,-4.3515,-4.3515,-4.3515,-4.3515,-4.3515,-4.3515,-4.3515,-4.3515,-4.3515,-4.3515,-4.3515,-4.3515,-4.3515,-4.3515,-4.3515,-4.3515,-4.3515,-4.3515,-4.3087,-4.2711,-4.2711,-4.2203,-4.1916,-4.2244,-4.2302,-4.2422,-4.2715,-4.2753,-4.2753,-4.2753,-4.2753,-4.2753,-4.2753,-4.2753,-4.2753,-4.2753,-4.2482,-4.2021,-4.1424,-4.1087,-4.0655,-4.0096,-4.0096,-4.0096,-4.0096,-4.0096,-4.0096,-4.0096,-4.0096,-4.0096,-2.5446,-3.0301,-3.4302,-3.8781,-4.1093,-4.2488,-4.3313,-4.3515,-4.3515,-4.3515,-4.3515,-4.3515,-4.3515,-4.3515,-4.3515,-4.3515,-4.3515,-4.3515,-4.3515,-4.3515,-4.3515,-4.3515,-4.3515,-4.3515,-4.3515,-4.3515,-4.3515,-4.3515,-4.3515,-4.3515,-4.3515,-4.3515,-4.3515,-4.3515,-4.3515,-4.3515,-4.3515,-4.3515,-4.3868,-4.4593,-4.4593,-4.4954,-4.5594,-4.5594,-4.5594,-4.5594,-4.5594,-4.5594,-4.5594,-4.5594,-4.5594,-4.5594,-4.5594,-4.5594,-4.5594,-4.5594,-4.5171,-4.4593,-4.4593,-4.4125,-4.3515,-4.3515,-4.3515,-4.3515,-4.3515,-4.3515,-4.3515,-4.3515,-4.3515,-4.3515,-4.3515,-4.3515,-4.3515,-4.3515,-4.3515,-4.3515,-4.3515,-4.3515,-4.3515,-4.3515,-4.3178,-4.2902,-4.2902,-4.2541,-4.2366,-4.2827,-4.2902,-4.305,-4.3444,-4.3515,-4.3515,-4.3515,-4.3515,-4.3515,-4.3515,-4.3515,-4.3515,-4.3515,-4.2995,-4.244,-4.1814,-4.1223,-4.0655,-4.0096,-4.0096,-4.0096,-4.0096,-4.0096,-4.0096,-4.0096,-4.0096,-4.0096,-2.1722,-2.4061,-2.6722,-3.4578,-3.7753,-3.9753,-4.2817,-4.3515,-4.3515,-4.3515,-4.3515,-4.3515,-4.3515,-4.3515,-4.3515,-4.3515,-4.3515,-4.3515,-4.3515,-4.3515,-4.3515,-4.3515,-4.3515,-4.3515,-4.3515,-4.3515,-4.3515,-4.3515,-4.3515,-4.3515,-4.3515,-4.3515,-4.3515,-4.3515,-4.3515,-4.3515,-4.3515,-4.3515,-4.3868,-4.4593,-4.4593,-4.4954,-4.5594,-4.5594,-4.5594,-4.5594,-4.5594,-4.5594,-4.5594,-4.5594,-4.5594,-4.5594,-4.5594,-4.5594,-4.5594,-4.5594,-4.5171,-4.4593,-4.4593,-4.4125,-4.3515,-4.3515,-4.3515,-4.3515,-4.3515,-4.3515,-4.3515,-4.3515,-4.3515,-4.3515,-4.3515,-4.3515,-4.3515,-4.3515,-4.3515,-4.3515,-4.3515,-4.3515,-4.3515,-4.3515,-4.3479,-4.3444,-4.3444,-4.3427,-4.3427,-4.3444,-4.3444,-4.3462,-4.3497,-4.3515,-4.3515,-4.3515,-4.3515,-4.3515,-4.3515,-4.3515,-4.3515,-4.3515,-4.2995,-4.244,-4.1814,-4.1223,-4.0655,-4.0096,-4.0096,-4.0096,-4.0096,-4.0096,-4.0096,-4.0096,-4.0096,-4.0096,-2.0419,-2.2776,-2.5511,-3.1017,-3.4798,-3.7734,-3.9918,-4.2011,-4.3515,-4.3515,-4.3515,-4.3515,-4.3515,-4.3515,-4.3515,-4.3515,-4.3515,-4.3515,-4.3515,-4.3515,-4.3515,-4.3515,-4.3515,-4.3515,-4.3515,-4.3515,-4.3515,-4.3515,-4.3515,-4.3515,-4.3515,-4.3515,-4.3515,-4.3515,-4.3515,-4.3515,-4.3515,-4.371,-4.4076,-4.4593,-4.4825,-4.515,-4.5594,-4.5594,-4.5594,-4.5594,-4.5594,-4.5594,-4.5594,-4.5594,-4.5594,-4.5594,-4.5594,-4.5594,-4.5577,-4.5352,-4.4988,-4.4553,-4.429,-4.3896,-4.3515,-4.3515,-4.3515,-4.3515,-4.3515,-4.3515,-4.3515,-4.3515,-4.3515,-4.3515,-4.3515,-4.3515,-4.3515,-4.3515,-4.3515,-4.3515,-4.3515,-4.3515,-4.3515,-4.3515,-4.3515,-4.3515,-4.3515,-4.3214,-4.2976,-4.2976,-4.2976,-4.2976,-4.2976,-4.3304,-4.3515,-4.3515,-4.3515,-4.3375,-4.3014,-4.3303,-4.3196,-4.2464,-4.2598,-4.2262,-4.1251,-4.1018,-4.0655,-4.0096,-4.0096,-4.0096,-4.0096,-4.0096,-4.0096,-4.0096,-4.0096,-4.0096,-1.8456,-2.0501,-2.3254,-2.7842,-3.0834,-3.3784,-3.812,-4.0341,-4.1881,-4.3221,-4.3515,-4.3515,-4.3515,-4.3515,-4.3515,-4.3515,-4.3515,-4.3515,-4.3515,-4.3515,-4.3515,-4.3515,-4.3515,-4.3515,-4.3515,-4.3515,-4.3515,-4.3515,-4.3515,-4.3515,-4.3515,-4.3515,-4.3515,-4.3515,-4.3515,-4.3515,-4.3515,-4.3818,-4.419,-4.4593,-4.4931,-4.5282,-4.5594,-4.5594,-4.5594,-4.5594,-4.5594,-4.5594,-4.5594,-4.5594,-4.5594,-4.5594,-4.5594,-4.5522,-4.541,-4.5191,-4.4806,-4.4346,-4.4087,-4.3772,-4.3515,-4.3515,-4.3515,-4.3515,-4.3515,-4.3515,-4.3515,-4.3515,-4.3515,-4.3515,-4.3515,-4.3515,-4.3515,-4.3515,-4.3515,-4.3515,-4.3515,-4.3515,-4.3515,-4.3515,-4.3515,-4.3444,-4.3268,-4.2939,-4.2635,-4.244,-4.2382,-4.2382,-4.2382,-4.2714,-4.294,-4.294,-4.294,-4.279,-4.2422,-4.2715,-4.26,-4.1853,-4.1979,-4.1746,-4.0926,-4.0726,-4.0473,-4.0096,-4.0096,-4.0096,-4.0096,-4.0096,-4.0096,-4.0096,-4.0096,-4.0096,0.0,0.0,0.0,-2.4951,-2.5823,-2.778,-3.7309,-3.8319,-3.8392,-4.2486,-4.3313,-4.3331,-4.3478,-4.3515,-4.3515,-4.3515,-4.3515,-4.3515,-4.3515,-4.3515,-4.3515,-4.3515,-4.3515,-4.3515,-4.3515,-4.3515,-4.3515,-4.3515,-4.3515,-4.3515,-4.3515,-4.3515,-4.3515,-4.3515,-4.3515,-4.3496,-4.3513,-4.3849,-4.4219,-4.4606,-4.4954,-4.5292,-4.5594,-4.5594,-4.5594,-4.5594,-4.5594,-4.5594,-4.5594,-4.5594,-4.5594,-4.5594,-4.5586,-4.539,-4.5096,-4.5074,-4.4612,-4.4001,-4.4001,-4.3772,-4.3515,-4.3515,-4.3515,-4.3515,-4.3515,-4.3515,-4.3515,-4.3515,-4.3515,-4.3515,-4.3515,-4.3515,-4.3515,-4.3515,-4.3515,-4.3515,-4.3515,-4.3515,-4.3515,-4.3515,-4.3515,-4.3321,-4.2788,-4.2692,-4.248,-4.1874,-4.1771,-4.1771,-4.1771,-4.1789,-4.181,-4.181,-4.181,-4.1793,-4.1771,-4.1789,-4.1789,-4.175,-4.1223,-4.088,-4.088,-4.0368,-4.0096,-4.0096,-4.0096,-4.0096,-4.0096,-4.0096,-4.0096,-4.0096,-4.0096,-4.0096,-1.5832,0.0,0.0,0.0,0.0,0.0,-2.8404,-3.0411,-3.2834,-3.808,-3.8704,-3.9365,-4.2872,-4.3515,-4.3515,-4.3515,-4.3515,-4.3515,-4.3515,-4.3515,-4.3515,-4.3515,-4.3515,-4.3515,-4.3515,-4.3515,-4.3515,-4.3515,-4.3515,-4.3515,-4.3515,-4.3515,-4.3515,-4.3515,-4.3515,-4.3631,-4.3865,-4.4233,-4.4618,-4.4985,-4.5312,-4.5504,-4.5594,-4.5594,-4.5594,-4.5594,-4.5594,-4.5594,-4.5594,-4.5594,-4.5594,-4.5577,-4.5332,-4.5191,-4.5041,-4.4489,-4.4175,-4.3971,-4.3726,-4.358,-4.3515,-4.3515,-4.3515,-4.3515,-4.3515,-4.3515,-4.3515,-4.3515,-4.3515,-4.3515,-4.3515,-4.3515,-4.3515,-4.3515,-4.3515,-4.3515,-4.3515,-4.3515,-4.3515,-4.3515,-4.3515,-4.3321,-4.2788,-4.2342,-4.1835,-4.1246,-4.1155,-4.1155,-4.1155,-4.1534,-4.181,-4.181,-4.181,-4.1621,-4.1201,-4.1556,-4.1464,-4.0618,-4.0774,-4.0726,-4.0336,-4.0179,-4.0096,-4.0096,-4.0096,-4.0096,-4.0096,-4.0096,-4.0096,-4.0096,-4.0096,-4.0096,-1.6986,-1.7289,-1.8089,-1.8896,0.0,0.0,-2.666,-2.8723,-3.139,-3.812,-3.9386,-4.0157,-4.2982,-4.3515,-4.3515,-4.3515,-4.3515,-4.3515,-4.3515,-4.3515,-4.3515,-4.3515,-4.3515,-4.3515,-4.3515,-4.3515,-4.3515,-4.3515,-4.3515,-4.3515,-4.3515,-4.3515,-4.3515,-4.3515,-4.3515,-4.3662,-4.4001,-4.4406,-4.4776,-4.5096,-4.5438,-4.5594,-4.5594,-4.5594,-4.5594,-4.5594,-4.5594,-4.5594,-4.5594,-4.5594,-4.5594,-4.5568,-4.5232,-4.5,-4.4806,-4.4219,-4.3909,-4.3756,-4.3563,-4.3515,-4.3515,-4.3515,-4.3515,-4.3515,-4.3515,-4.3515,-4.3515,-4.3515,-4.3515,-4.3515,-4.3515,-4.3515,-4.3515,-4.3515,-4.3515,-4.3515,-4.3515,-4.3515,-4.3515,-4.3515,-4.3515,-4.325,-4.2462,-4.2021,-4.1512,-4.0679,-4.0577,-4.0577,-4.0577,-4.0868,-4.1099,-4.1099,-4.1099,-4.0938,-4.0601,-4.0891,-4.0814,-4.0146,-4.0392,-4.0441,-4.0121,-4.0096,-4.0096,-4.0096,-4.0096,-4.0096,-4.0096,-4.0096,-4.0096,-4.0096,-4.0096,-3.9943,-1.886,-1.8886,-1.9583,-2.0217,-1.8742,0.0,-2.786,-2.9237,-3.0907,-3.8579,-4.0653,-4.1293,-4.1917,-4.2101,-4.2174,-4.2174,-4.2615,-4.3075,-4.346,-4.3515,-4.3515,-4.3515,-4.3515,-4.3515,-4.3515,-4.3515,-4.3515,-4.3515,-4.3515,-4.3515,-4.3515,-4.3515,-4.3515,-4.3515,-4.3515,-4.3695,-4.4058,-4.4433,-4.48,-4.5169,-4.5467,-4.5594,-4.5594,-4.5594,-4.5594,-4.5594,-4.5594,-4.5594,-4.5594,-4.5594,-4.5594,-4.5568,-4.5191,-4.4861,-4.454,-4.4121,-4.3758,-4.3515,-4.3515,-4.3515,-4.3515,-4.3515,-4.3515,-4.3515,-4.3515,-4.3515,-4.3515,-4.3515,-4.3515,-4.3515,-4.3515,-4.3515,-4.3515,-4.3515,-4.3515,-4.3515,-4.3515,-4.3515,-4.3515,-4.3515,-4.3515,-4.3123,-4.2,-4.181,-4.142,-4.0279,-4.0096,-4.0121,-4.0179,-4.0179,-4.0179,-4.0179,-4.0179,-4.0154,-4.0113,-4.0096,-4.0096,-4.0096,-4.0096,-4.0096,-4.0096,-4.0096,-4.0096,-4.0096,-4.0096,-4.0096,-4.0096,-4.0096,-4.0096,-4.0096,-4.0028,-3.9639,-2.0789,-2.0144,-2.0144,-1.9656,-1.9179,0.0,-1.9594,-1.9604,-2.0878,-2.5758,-2.6374,-2.7431,-3.1953,-3.3311,-3.3765,-3.3765,-3.7074,-4.0543,-4.3147,-4.3515,-4.3515,-4.3515,-4.3515,-4.3515,-4.3515,-4.3515,-4.3515,-4.3515,-4.3515,-4.3515,-4.3515,-4.3515,-4.3515,-4.3515,-4.3515,-4.3823,-4.4474,-4.4553,-4.4889,-4.5504,-4.5568,-4.5594,-4.5594,-4.5594,-4.5594,-4.5594,-4.5594,-4.5594,-4.5594,-4.5594,-4.5594,-4.5531,-4.4931,-4.4644,-4.4514,-4.3855,-4.3565,-4.3515,-4.3515,-4.3515,-4.3515,-4.3515,-4.3515,-4.3515,-4.3515,-4.3515,-4.3515,-4.3515,-4.3515,-4.3515,-4.3515,-4.3515,-4.3515,-4.3515,-4.3515,-4.3515,-4.3515,-4.3515,-4.3515,-4.3515,-4.3515,-4.3123,-4.2,-4.181,-4.142,-4.0279,-4.0096,-4.0254,-4.0679,-4.0733,-4.0733,-4.0733,-4.0733,-4.0577,-4.0146,-4.0096,-4.0096,-4.0096,-4.0096,-4.0096,-4.0096,-4.0096,-4.0096,-4.0096,-4.0096,-4.0096,-4.0096,-4.0096,-4.0096,-4.0096,-3.9503,-3.914,-2.2517,-2.1625,-2.1557,-2.0747,-1.9921,0.0,0.0,-2.0236,-2.1318,-2.619,-2.6227,-2.6502,-3.0136,-3.0797,-3.0925,-3.1342,-3.5165,-3.8083,-3.8065,-4.1203,-4.3515,-4.3515,-4.3515,-4.3515,-4.3515,-4.3515,-4.3515,-4.3515,-4.3515,-4.3515,-4.3515,-4.3515,-4.3515,-4.3515,-4.3515,-4.3836,-4.458,-4.4593,-4.4943,-4.5594,-4.5594,-4.5594,-4.5594,-4.5594,-4.5594,-4.5594,-4.5594,-4.5594,-4.5594,-4.5594,-4.5594,-4.5559,-4.5052,-4.4751,-4.4527,-4.3958,-4.3646,-4.3515,-4.3515,-4.3515,-4.3515,-4.3515,-4.3515,-4.3515,-4.3515,-4.3515,-4.3515,-4.3515,-4.3515,-4.3515,-4.3515,-4.3515,-4.3515,-4.3515,-4.3515,-4.3515,-4.3515,-4.3515,-4.3515,-4.3515,-4.3515,-4.3123,-4.2,-4.181,-4.142,-4.0279,-4.0336,-4.0601,-4.0874,-4.1178,-4.1358,-4.1358,-4.1087,-4.0803,-4.0504,-4.0237,-4.0096,-4.0096,-4.0096,-4.0096,-4.0096,-4.0096,-4.0096,-4.0096,-4.0096,-4.0096,-4.0096,-4.0096,-4.0096,-4.0079,-3.8992,-3.8288,-2.4444,-2.3535,-2.3621,-2.2345,-2.1243,-2.0913,0.0,0.0,0.0,-2.7695,-2.7457,-2.6932,-2.8551,-2.8301,-2.8081,-2.8723,-3.2406,-3.4151,-3.117,-3.6633,-4.1038,-4.135,-4.2652,-4.3258,-4.2652,-4.2139,-4.2304,-4.3423,-4.247,-4.2341,-4.3441,-4.3515,-4.3515,-4.3515,-4.3515,-4.3836,-4.458,-4.4593,-4.4943,-4.5594,-4.5594,-4.5594,-4.5594,-4.5594,-4.5594,-4.5594,-4.5594,-4.5594,-4.5594,-4.5594,-4.5594,-4.5568,-4.5232,-4.4896,-4.4553,-4.4146,-4.3788,-4.3515,-4.3515,-4.3515,-4.3515,-4.3515,-4.3515,-4.3515,-4.3515,-4.3515,-4.3515,-4.3515,-4.3515,-4.3515,-4.3515,-4.3515,-4.3515,-4.3515,-4.3515,-4.3515,-4.3515,-4.3515,-4.3515,-4.3515,-4.3515,-4.316,-4.2144,-4.1874,-4.1486,-4.0587,-4.0601,-4.0874,-4.1201,-4.1578,-4.1835,-4.1958,-4.1446,-4.1018,-4.0903,-4.0417,-4.0096,-4.0096,-4.0096,-4.0096,-4.0096,-4.0096,-4.0096,-4.0096,-4.0096,-4.0096,-4.0096,-3.9952,-3.9885,-3.9851,-3.8426,-3.7338,-2.7194,-2.6409,-2.6539,-2.3593,-2.3786,-2.3667,-1.9693,0.0,-1.864,-1.8559,0.0,-1.7693,-1.9308,0.0,0.0,-1.9601,-2.3648,-2.6146,-2.4345,-2.8484,-3.2247,-3.3665,-3.9551,-4.2378,-3.9515,-3.7261,-3.805,-4.3112,-3.8836,-3.816,-4.3239,-4.3515,-4.3515,-4.3515,-4.3515,-4.3836,-4.458,-4.4593,-4.4943,-4.5594,-4.5594,-4.5594,-4.5594,-4.5594,-4.5594,-4.5594,-4.5594,-4.5594,-4.5594,-4.5594,-4.5594,-4.5568,-4.5232,-4.4896,-4.4553,-4.4146,-4.3788,-4.3515,-4.3515,-4.3515,-4.3515,-4.3515,-4.3515,-4.3515,-4.3515,-4.3515,-4.3515,-4.3515,-4.3515,-4.3515,-4.3515,-4.3515,-4.3515,-4.3515,-4.3515,-4.3515,-4.3515,-4.3515,-4.3515,-4.3515,-4.3515,-4.3303,-4.2693,-4.2162,-4.1768,-4.1639,-4.0791,-4.0761,-4.2302,-4.2101,-4.2,-4.2539,-4.2059,-4.149,-4.0949,-4.0417,-4.0096,-4.0096,-4.0096,-4.0096,-4.0096,-4.0096,-4.0096,-4.0096,-4.0096,-4.0096,-4.0096,-3.9368,-3.9078,-3.9089,-3.7627,-3.6537,-2.702,-2.7399,-2.8301,-2.463,-2.4566,-2.4236,-1.9811,-1.8071,-1.7575,-1.817,0.0,0.0,0.0,0.0,0.0,0.0,-2.1418,-2.2942,-1.9887,-2.4869,-2.9402,-3.1005,-3.3513,-3.5679,-3.7165,-3.5903,-3.7353,-4.3057,-3.8215,-3.7481,-4.3203,-4.3515,-4.3515,-4.3515,-4.3515,-4.3836,-4.458,-4.4593,-4.4943,-4.5594,-4.5594,-4.5594,-4.5594,-4.5594,-4.5594,-4.5594,-4.5594,-4.5594,-4.5594,-4.5594,-4.5594,-4.5586,-4.5457,-4.5074,-4.458,-4.4419,-4.3989,-4.3515,-4.3515,-4.3515,-4.3515,-4.3515,-4.3515,-4.3515,-4.3515,-4.3515,-4.3515,-4.3515,-4.3515,-4.3515,-4.3515,-4.3515,-4.3515,-4.3515,-4.3515,-4.3515,-4.3515,-4.3515,-4.341,-4.3105,-4.3304,-4.3321,-4.2788,-4.2203,-4.1686,-4.1335,-4.0874,-4.0961,-4.2038,-4.2262,-4.242,-4.2674,-4.2162,-4.1556,-4.0949,-4.0417,-4.0096,-4.0096,-4.0096,-4.0096,-4.0096,-4.0096,-4.0096,-4.0096,-4.0096,-4.0096,-4.0096,-3.9337,-3.8539,-3.7703,-3.6254,-3.5202,-2.8297,-2.9088,-3.0063,-2.5364,-2.464,-2.4052,-2.0178,-1.8574,-1.821,-1.9381,-1.9062,0.0,0.0,0.0,-1.7935,0.0,0.0,-2.0382,-1.6743,-2.0813,-2.4832,-2.6667,-2.7548,-2.9677,-3.3899,-3.2106,-3.3715,-4.0981,-3.6032,-3.5848,-4.3111,-4.3515,-4.3515,-4.3515,-4.3515,-4.3807,-4.4433,-4.4447,-4.4745,-4.5332,-4.5419,-4.5419,-4.5332,-4.5513,-4.5559,-4.5476,-4.5568,-4.5594,-4.5594,-4.5594,-4.5594,-4.5594,-4.5594,-4.5253,-4.4739,-4.4631,-4.418,-4.3612,-4.3531,-4.3515,-4.3515,-4.3515,-4.3515,-4.3515,-4.3515,-4.3515,-4.3515,-4.3515,-4.3515,-4.3515,-4.3515,-4.3515,-4.3515,-4.3515,-4.3515,-4.3515,-4.3515,-4.3515,-4.3339,-4.2789,-4.3014,-4.3105,-4.2539,-4.2241,-4.1895,-4.1468,-4.1127,-4.115,-4.1707,-4.2183,-4.246,-4.246,-4.2059,-4.1556,-4.0949,-4.0417,-4.0096,-4.0096,-4.0096,-4.0096,-4.0096,-4.0096,-4.0096,-4.0096,-4.0096,-4.0096,-4.0096,-3.9152,-3.7919,-3.6502,-3.5256,-3.422,-3.2622,-3.2331,-3.2155,-2.5786,-2.4208,-2.3364,-2.005,-1.9858,-2.0393,-2.0456,-2.1703,-2.2584,-2.1849,-2.0996,0.0,0.0,0.0,0.0,0.0,-1.4787,-1.5814,-1.8199,-2.2657,-2.6494,-2.8987,-2.3511,-2.4456,-3.5679,-3.054,-3.1751,-4.2892,-4.3515,-4.3515,-4.3515,-4.3515,-4.3679,-4.4031,-4.4031,-4.4219,-4.465,-4.4954,-4.4943,-4.4644,-4.5293,-4.5419,-4.5129,-4.5448,-4.5594,-4.5594,-4.5594,-4.5594,-4.5594,-4.5594,-4.54,-4.5052,-4.4726,-4.4332,-4.394,-4.3595,-4.3515,-4.3515,-4.3515,-4.3515,-4.3515,-4.3515,-4.3515,-4.3515,-4.3515,-4.3515,-4.3515,-4.3515,-4.3515,-4.3515,-4.3515,-4.3515,-4.3515,-4.3515,-4.3515,-4.3339,-4.2789,-4.2711,-4.2539,-4.1937,-4.2302,-4.2655,-4.2635,-4.17,-4.1185,-4.1725,-4.1832,-4.1832,-4.1832,-4.181,-4.1556,-4.0949,-4.0417,-4.0096,-4.0096,-4.0096,-4.0096,-4.0096,-4.0096,-4.0096,-4.0096,-4.0096,-4.0096,-4.0096,-3.8574,-3.7143,-3.5808,-3.5043,-3.3947,-3.5137,-3.6453,-3.682,-2.9262,-2.7787,-2.6612,-2.0656,-2.038,-2.1051,-1.9932,-2.1896,-2.3382,-2.2051,-2.1088,0.0,0.0,0.0,0.0,0.0,-1.3251,-1.3214,-1.4022,-1.9389,0.0,0.0,-2.3831,-2.7291,-3.4876,-3.2908,-3.4908,-4.3074,-4.3515,-4.3515,-4.3515,-4.3515,-4.3662,-4.4001,-4.4001,-4.419,-4.4593,-4.4707,-4.4707,-4.4624,-4.5055,-4.5211,-4.5118,-4.5448,-4.5594,-4.5594,-4.5594,-4.5594,-4.5594,-4.5594,-4.5522,-4.54,-4.5044,-4.4535,-4.3955,-4.3631,-4.3515,-4.3515,-4.3515,-4.3515,-4.3515,-4.3515,-4.3515,-4.3515,-4.3515,-4.3515,-4.3515,-4.3515,-4.3515,-4.3515,-4.3515,-4.3515,-4.3515,-4.3515,-4.3515,-4.3214,-4.2284,-4.244,-4.2382,-4.138,-4.1707,-4.1958,-4.1578,-4.0885,-4.0611,-4.1133,-4.1183,-4.1183,-4.1183,-4.1183,-4.099,-4.0417,-4.0204,-4.0096,-4.0096,-4.0096,-4.0096,-4.0096,-4.0096,-4.0096,-4.0096,-4.0096,-4.0096,-4.0096,-3.8101,-3.6669,-3.5754,-3.4083,-3.2803,-3.8416,-3.9478,-3.9499,-3.2803,-3.1097,-2.9457,-2.329,-2.3162,-2.3969,-2.2602,-2.3768,-2.5254,-2.5944,-2.3511,0.0,0.0,0.0,0.0,0.0,-1.243,-1.2095,-1.2095,0.0,0.0,0.0,0.0,-2.5079,-3.3903,-3.2491,0.0,-4.2635,-4.3332,-4.3515,-4.3515,-4.3515,-4.3614,-4.3836,-4.3836,-4.3958,-4.4194,-4.4337,-4.4323,-4.4223,-4.4818,-4.5041,-4.4943,-4.541,-4.5594,-4.5594,-4.5594,-4.5594,-4.5594,-4.5594,-4.5594,-4.5559,-4.5222,-4.4713,-4.4175,-4.3977,-4.3807,-4.3695,-4.3695,-4.3597,-4.3515,-4.3515,-4.3515,-4.3515,-4.3515,-4.3515,-4.3515,-4.3515,-4.3515,-4.3515,-4.3515,-4.3515,-4.3515,-4.3515,-4.3515,-4.3214,-4.2304,-4.2422,-4.2322,-4.111,-4.1223,-4.1358,-4.099,-4.0625,-4.0424,-4.0601,-4.078,-4.0827,-4.0631,-4.078,-4.0576,-3.979,-3.9723,-3.9605,-3.9326,-3.9334,-3.9453,-3.9706,-3.9421,-3.9411,-3.9662,-3.9662,-3.9528,-3.9277,-3.7861,-3.6711,-3.573,-3.3826,-3.2586]},{"header":{"parameterUnit":"m.s-1","parameterCategory":1,"la1":30.6,"la2":29.2853,"lo1":-89.7004,"lo2":-87.6739,"dx":0.0162,"dy":0.0183,"nx":112,"ny":82,"refTime":"2022-12-04T18:00:00:Z","depth":0,"parameterNumber":3,"parameterNumberName":"V-component_of_WINDS"},"data":[0.0,0.0,0.0,0.0,0.0,0.0,0.0,0.0,0.0,0.0,0.0,0.0,0.0,0.0,0.0,0.0,0.0,0.0,0.0,0.0,0.0,0.0,0.0,0.0,0.0,0.0,0.0,0.0,0.0,0.0,0.0,0.0,0.0,0.0,0.0,0.0,0.0,0.0,0.0,0.0,0.0,0.0,0.0,0.0,0.0,0.0,0.0,0.0,0.0,0.0,0.0,0.0,0.0,0.0,0.0,0.0,0.0,0.0,0.0,0.0,0.0,0.0,0.0,0.0,0.0,0.0,0.0,0.0,0.0,0.0,0.0,0.0,0.0,0.0,0.0,0.0,0.0,0.0,0.0,0.0,0.0,0.0,0.0,0.0,0.0,0.0,0.0,0.0,0.0,0.0,0.6801,0.652,0.8744,1.0779,1.2168,1.191,1.1177,1.0095,0.0,0.0,0.0,0.0,0.0,0.0,0.0,0.0,0.0,0.0,0.0,0.0,0.0,0.0,0.0,0.0,0.0,0.0,0.0,0.0,0.0,0.0,0.0,0.0,0.0,0.0,0.0,0.0,0.0,0.0,0.0,0.0,0.0,0.0,0.0,0.0,0.0,0.0,0.0,0.0,0.0,0.0,0.0,0.0,0.0,0.0,0.0,0.0,0.0,0.0,0.0,0.0,0.0,0.0,0.0,0.0,0.0,0.0,0.0,0.0,0.0,0.0,0.0,0.0,0.0,0.0,0.0,0.0,0.0,0.0,0.0,0.0,0.0,0.0,0.0,0.0,0.0,0.0,0.0,0.0,0.0,0.0,0.0,0.0,0.0,0.0,0.0,0.0,0.0,0.0,0.0,0.0,0.0,0.0,0.0,0.0,0.0,0.0,0.0,0.0,0.0,0.0,0.0,0.0,0.6003,0.8383,0.9118,1.0232,1.215,1.2628,1.2054,1.0203,0.0,0.0,0.0,0.0,0.0,0.0,0.0,0.0,0.0,0.0,0.0,0.0,0.0,0.0,0.0,0.0,0.0,0.0,0.0,0.0,0.0,0.0,0.0,0.0,0.0,0.0,0.0,0.0,0.0,0.0,0.0,0.0,0.0,0.0,0.0,0.0,0.0,0.0,0.0,0.0,0.0,0.0,0.0,0.0,0.0,0.0,0.0,0.0,0.0,0.0,0.0,0.0,0.0,0.0,0.0,0.0,0.0,0.0,0.0,0.0,0.0,0.0,0.0,0.0,0.0,0.0,0.0,0.0,0.0,0.0,0.0,0.0,0.0,0.0,0.0,0.0,0.0,0.0,0.0,0.0,0.0,0.0,0.0,0.0,0.0,0.0,0.0,0.0,0.0,0.0,0.0,0.0,0.0,0.0,0.0,0.0,0.0,0.0,0.0,0.0,0.0,0.0,0.0,0.6359,0.7121,0.9721,1.0086,1.072,1.2187,1.2391,1.1661,0.9838,0.8297,0.0,0.0,0.0,0.0,0.0,0.0,0.0,0.0,0.0,0.0,0.0,0.0,0.0,0.0,0.0,0.0,0.0,0.0,0.0,0.0,0.0,0.0,0.0,0.0,0.0,0.0,0.0,0.0,0.0,0.0,0.0,0.0,0.0,0.0,0.0,0.0,0.0,0.0,0.0,0.0,0.0,0.0,0.0,0.0,0.0,0.0,0.0,0.0,0.0,0.0,0.0,0.0,0.0,0.0,0.0,0.0,0.0,0.0,0.0,0.0,0.0,0.0,0.0,0.0,0.0,0.0,0.0,0.0,0.0,0.0,0.0,0.0,0.0,0.0,0.0,0.0,0.0,0.0,0.0,0.0,0.0,0.0,0.0,0.0,0.0,0.0,0.0,0.0,0.0,0.0,0.0,0.0,0.0,0.0,0.0,0.0,0.0,0.0,0.0,0.0,0.0,0.0,0.7972,0.8746,1.0598,1.0783,1.1199,1.2224,1.2098,1.1228,0.9378,0.8215,0.0,0.0,0.0,0.0,0.0,0.0,0.0,0.0,0.0,0.0,0.0,0.0,0.0,0.0,0.0,0.0,0.0,0.0,0.0,0.0,0.0,0.0,0.0,0.0,0.0,0.0,0.0,0.0,0.0,0.0,0.0,0.0,0.0,0.0,0.0,0.0,0.0,0.0,0.0,0.0,0.0,0.0,0.0,0.0,0.0,0.0,0.0,0.0,0.0,0.0,0.0,0.0,0.0,0.0,0.0,0.0,0.0,0.0,0.0,0.0,0.0,0.0,0.0,0.0,0.0,0.0,0.0,0.0,0.0,0.0,0.0,0.0,0.0,0.0,0.0,0.0,0.0,0.0,0.0,0.0,0.0,0.0,0.0,0.0,0.0,0.0,0.0,0.0,0.0,0.0,0.0,0.0,0.0,0.0,0.0,0.0,0.0,0.0,0.0,0.0,0.0,0.0,0.8814,1.0347,1.0748,1.0783,1.1199,1.2224,1.2285,1.1283,0.8978,0.823,0.0,0.0,0.0,0.0,0.0,0.0,0.0,0.0,0.0,0.0,0.0,0.0,0.0,0.0,0.0,0.0,0.0,0.0,0.0,0.0,0.0,0.0,0.0,0.0,0.0,0.0,0.0,0.0,0.0,0.0,0.0,0.0,0.0,0.0,0.0,0.0,0.0,0.0,0.0,0.0,0.0,0.0,0.0,0.0,0.0,0.0,0.0,0.0,0.0,0.0,0.0,0.0,0.0,0.0,0.0,0.0,0.0,0.0,0.0,0.0,0.0,0.0,0.0,0.0,0.0,0.0,0.0,0.0,0.0,0.0,0.0,0.0,0.0,0.0,0.0,0.0,0.0,0.0,0.0,0.0,0.0,0.0,0.0,0.0,0.0,0.0,0.0,0.0,0.0,0.0,0.0,0.0,0.0,0.0,0.0,0.0,0.0,0.0,0.0,0.0,0.0,0.0,0.9389,1.0844,1.1648,1.1731,1.1885,1.2268,1.2305,1.1223,0.8697,0.0,0.0,0.0,0.0,0.0,0.0,0.0,0.0,0.0,0.0,0.0,0.0,0.0,0.0,0.0,0.0,0.0,0.0,0.0,0.0,0.0,0.0,0.0,0.0,0.0,0.0,0.0,0.0,0.0,0.0,0.0,0.0,0.0,0.0,0.0,0.0,0.0,0.0,0.0,0.0,0.0,0.0,0.0,0.0,0.0,0.0,0.0,0.0,0.0,0.0,0.0,0.0,0.0,0.0,0.0,0.0,0.0,0.0,0.0,0.0,0.0,0.0,0.0,0.0,0.0,0.0,0.0,0.0,0.0,0.0,0.0,0.0,0.0,0.0,0.0,0.0,0.0,0.0,0.0,0.0,0.0,0.0,0.0,0.0,0.0,0.0,0.0,0.0,0.0,0.0,0.0,0.0,0.0,0.0,0.0,0.0,0.0,0.0,0.0,0.0,0.0,0.0,0.8357,1.0064,1.1457,1.2218,1.2305,1.2305,1.2305,1.2305,1.1176,0.8569,0.0,0.0,0.0,0.0,0.0,0.0,0.0,0.0,0.0,0.0,0.0,0.0,0.0,0.0,0.0,0.0,0.0,0.0,0.0,0.0,0.0,0.0,0.0,0.0,0.0,0.0,0.0,0.0,0.0,0.0,0.0,0.0,0.0,0.0,0.0,0.0,0.0,0.0,0.0,0.0,0.0,0.0,0.0,0.0,0.0,0.0,0.0,0.0,0.0,0.0,0.0,0.0,0.0,0.0,0.0,0.0,0.0,0.0,0.0,0.0,0.0,0.0,0.0,0.0,0.0,0.0,0.0,0.0,0.0,0.0,0.0,0.0,0.0,0.0,0.0,0.0,0.0,0.0,0.0,0.0,0.0,0.0,0.0,0.0,0.0,0.0,0.0,0.0,0.0,0.0,0.0,0.0,0.0,0.0,0.0,0.0,0.0,0.0,0.0,0.0,0.0,0.0,0.8731,1.0855,1.2305,1.2305,1.2311,1.2311,1.2311,1.2311,1.1182,0.0,0.0,0.0,0.0,0.0,0.0,0.0,0.0,0.0,0.0,0.0,0.0,0.0,0.0,0.0,0.0,0.0,0.0,0.0,0.0,0.0,0.0,0.0,0.0,0.0,0.0,0.0,0.0,0.0,0.0,0.0,0.0,0.0,0.0,0.0,0.0,0.0,0.0,0.0,0.0,0.0,0.0,0.0,0.0,0.0,0.0,0.0,0.0,0.0,0.0,0.0,0.0,0.0,0.0,0.0,0.0,0.0,0.0,0.0,0.0,0.0,0.0,0.0,0.0,0.0,0.0,0.0,0.0,0.0,0.0,0.0,0.0,0.0,0.0,0.0,0.0,0.0,0.0,0.0,0.0,0.0,0.0,0.0,0.0,0.0,0.0,0.0,0.0,0.0,0.0,0.0,0.0,0.0,0.0,0.0,0.0,0.0,0.0,0.0,0.0,0.0,0.0,0.0,0.8731,1.1035,1.2656,1.2656,1.2812,1.2939,1.2939,1.2739,1.1437,0.8576,0.0,0.0,0.0,0.0,0.0,0.0,0.0,0.0,0.0,0.0,0.0,0.0,0.0,0.0,0.0,0.0,0.0,0.0,0.0,0.0,0.0,0.0,0.0,0.0,0.0,0.0,0.0,0.0,0.0,0.0,0.0,0.0,0.0,0.0,0.0,0.0,0.0,0.0,0.0,0.0,0.0,0.0,0.0,0.0,0.0,0.0,0.0,0.0,0.0,0.0,0.0,0.0,0.0,0.0,0.0,0.0,0.0,0.0,0.0,0.0,0.0,0.0,0.0,0.0,0.0,0.0,0.0,0.0,0.0,0.0,0.0,0.0,0.0,0.0,0.0,0.0,0.0,0.0,0.0,0.0,0.0,0.0,0.0,0.0,0.0,0.0,0.0,0.0,0.0,0.0,0.0,0.0,0.0,0.0,0.0,0.0,0.0,0.0,0.0,0.0,0.0,0.0,0.8731,1.1142,1.2784,1.2784,1.3434,1.3856,1.3856,1.3673,1.2523,1.0078,0.0,0.0,0.0,0.0,0.0,0.0,0.0,0.0,0.0,0.0,0.0,0.0,0.0,0.0,0.0,0.0,0.0,0.0,0.0,0.0,0.0,0.0,0.0,0.0,0.0,0.0,0.0,0.0,0.0,0.0,0.0,0.0,0.0,0.0,0.0,0.0,0.0,0.0,0.0,0.0,0.0,0.0,0.0,0.0,0.0,0.0,0.0,0.0,0.0,0.0,0.0,0.0,0.0,0.0,0.0,0.0,0.0,0.0,0.0,0.0,0.0,0.0,0.0,0.0,0.0,0.0,0.0,0.0,0.0,0.0,0.0,0.0,0.0,0.0,0.0,0.0,0.0,0.0,0.0,0.0,0.0,0.0,0.0,0.0,0.0,0.0,0.0,0.0,0.0,0.0,0.0,0.0,0.0,0.0,0.0,0.0,0.0,0.0,0.0,0.0,0.0,0.0,0.8764,1.1189,1.2876,1.3018,1.4047,1.4775,1.4892,1.4862,1.4064,1.2211,0.0,0.0,0.0,0.0,0.0,0.0,0.0,0.0,0.0,0.0,0.0,0.0,0.0,0.0,0.0,0.0,0.0,0.0,0.0,0.0,0.0,0.0,0.0,0.0,0.0,0.0,0.0,0.0,0.0,0.0,0.0,0.0,0.0,0.0,0.0,0.0,0.0,0.0,0.0,0.0,0.0,0.0,0.0,0.0,0.0,0.0,0.0,0.0,0.0,0.0,0.0,0.0,0.0,0.0,0.0,0.0,0.0,0.0,0.0,0.0,1.1731,1.0233,0.0,0.0,0.0,0.0,0.0,0.0,0.0,0.0,0.0,0.0,0.0,0.0,0.0,0.0,0.0,0.0,0.0,0.0,0.0,0.0,0.0,0.0,0.0,0.0,0.0,0.0,0.0,0.0,0.0,0.0,0.0,0.0,0.0,0.0,0.0,0.0,0.0,0.0,0.0,0.0,0.9018,1.147,1.3541,1.467,1.4478,1.4579,1.5453,1.5295,1.4088,1.1423,1.1348,0.0,0.0,0.0,0.0,0.0,0.0,0.0,0.0,0.0,0.0,0.0,0.0,0.0,0.0,0.0,0.0,0.0,0.0,0.0,0.0,0.0,0.0,0.0,0.0,0.0,0.0,0.0,0.0,0.0,0.0,0.0,0.0,0.0,0.0,0.0,0.0,0.0,0.0,0.0,0.0,0.0,0.0,0.0,0.0,0.0,0.0,0.0,0.0,0.0,0.0,0.0,0.0,0.0,0.0,0.0,0.0,0.0,0.0,0.0,1.404,1.2712,0.0,0.0,0.0,0.0,0.0,0.0,0.0,0.0,0.0,0.0,0.0,0.0,0.0,0.0,0.0,0.0,0.0,0.0,0.0,0.0,0.0,0.0,0.0,0.0,0.0,0.0,0.0,0.0,0.0,0.0,0.0,0.0,0.0,0.0,0.0,0.0,0.0,0.0,0.0,0.0,0.9339,1.1742,1.3863,1.5163,1.5517,1.6075,1.7204,1.6677,1.5802,1.4681,1.3343,0.0,0.0,0.0,0.0,0.0,0.0,0.0,0.0,0.0,0.0,0.0,0.0,0.0,0.0,0.0,0.0,0.0,0.0,0.0,0.0,0.0,0.0,0.0,0.0,0.0,0.0,0.0,0.0,0.0,0.0,0.0,0.0,0.0,0.0,0.0,0.0,0.0,0.0,0.0,0.0,0.0,0.0,0.0,0.0,0.0,0.0,0.0,0.0,0.0,0.0,0.0,0.0,0.0,1.7305,1.7594,1.7613,1.8008,1.8545,1.9049,1.6612,1.5717,1.5808,1.3835,0.0,0.0,0.0,0.0,0.0,0.0,0.0,0.0,0.0,0.0,0.0,0.0,0.0,0.0,0.0,0.0,0.0,0.0,0.0,0.0,0.0,0.0,1.3998,1.4292,1.4853,1.4571,1.1815,0.0,0.0,0.0,0.0,0.0,0.0,0.0,0.0,0.0,0.0,0.0,1.0187,1.2442,1.4333,1.5534,1.6637,1.7617,1.835,1.7738,1.7458,1.7916,1.5314,1.3663,0.0,0.0,0.0,0.0,0.0,0.0,0.0,0.0,0.0,0.0,0.0,0.0,0.0,0.0,0.0,0.0,0.0,0.0,0.0,0.0,0.0,0.0,0.0,0.0,0.0,0.0,0.0,0.0,0.0,0.0,0.0,0.0,1.0013,1.0378,0.0,0.0,0.0,0.0,0.0,0.0,0.0,0.0,0.0,0.0,0.0,0.0,0.0,1.5369,1.6418,1.7983,1.8822,1.8913,2.0459,2.1211,2.1211,2.1269,2.1357,2.1445,2.105,0.0,1.7276,1.6327,0.0,0.0,0.0,0.0,0.0,0.0,0.0,0.0,0.0,0.0,0.0,0.0,0.0,0.0,0.0,0.0,0.0,0.0,0.0,0.0,0.0,0.0,1.846,1.8517,1.8592,1.8318,1.7107,1.3317,0.9984,0.9368,0.837,0.7226,0.0,0.0,0.0,0.0,0.0,0.0,1.2628,1.4193,1.5564,1.6912,1.7188,1.6968,1.6183,1.6846,1.6863,1.5792,1.617,1.5683,1.4138,1.3511,0.0,0.0,0.0,0.0,0.0,0.0,0.0,0.0,0.0,0.0,0.0,0.0,0.0,0.0,0.0,0.0,0.0,0.0,0.0,0.0,0.0,0.0,0.0,0.0,0.0,0.0,0.0,0.0,0.0,1.013,1.0435,1.1277,1.0857,1.0251,0.0,0.0,0.0,0.0,0.0,0.0,0.0,0.0,0.0,1.693,1.7571,1.8424,1.9619,2.0371,2.0752,2.0752,2.1523,2.1885,2.1894,2.2129,2.2236,2.2236,2.2236,2.1525,2.0262,1.8942,1.7394,1.5746,0.0,0.0,0.0,0.0,1.4035,1.4223,1.5541,1.5647,1.511,1.4667,0.0,0.0,0.0,0.0,0.0,0.0,0.0,1.5023,1.6677,1.8008,1.8984,1.9228,1.9473,1.9459,1.8813,1.6508,1.4064,1.2571,1.0942,0.9358,0.7909,0.7672,0.0,0.0,0.0,1.2076,1.4388,1.5709,1.6637,1.7236,1.7302,1.709,1.6642,1.7009,1.7308,1.7391,1.7811,1.7881,1.7418,1.5871,1.412,0.0,0.0,0.0,0.0,0.0,0.0,0.0,0.0,0.0,0.0,0.0,0.0,0.0,0.0,0.0,0.0,0.0,0.0,0.0,0.0,0.0,0.0,0.0,0.0,0.0,0.0,0.0,0.0,1.1512,1.1758,1.2653,1.246,1.1819,0.0,0.0,0.0,0.0,0.0,0.0,1.5965,1.6902,1.7971,1.9174,2.0014,2.0889,2.1875,2.1992,2.2041,2.2041,2.2158,2.2207,2.2217,2.2529,2.2676,2.2676,2.2676,2.2676,2.2559,2.1045,1.9844,1.8831,1.7886,1.6911,1.6143,1.6721,1.6917,1.7093,1.8252,1.8209,1.7589,1.7328,1.637,1.5165,1.4127,0.0,0.0,0.0,0.0,1.6543,1.7852,1.8662,1.9209,1.9541,1.9853,2.0,1.9678,1.8908,1.7633,1.5537,1.3785,1.2131,1.058,1.0316,0.0,1.0997,1.2514,1.4312,1.621,1.7209,1.7747,1.7747,1.7747,1.7496,1.6927,1.6887,1.7374,1.847,1.831,1.8734,2.0022,1.7875,1.6195,1.5231,0.0,0.0,0.0,0.0,0.0,0.0,0.0,0.0,0.0,0.0,0.0,0.0,0.0,0.0,0.0,0.0,0.0,0.0,0.0,0.0,0.0,0.0,0.0,0.0,0.0,0.0,0.0,0.0,0.0,1.4879,1.5145,0.0,0.0,0.0,0.0,1.605,1.689,1.8051,1.9558,2.0128,2.0781,2.1687,2.1777,2.1816,2.1885,2.2275,2.248,2.248,2.2838,2.3033,2.3033,2.3052,2.3062,2.3062,2.3062,2.3062,2.2994,2.2148,2.1025,1.9844,1.9738,1.8984,1.7978,1.8818,1.9131,1.9258,2.0165,2.043,2.0381,2.0381,1.8893,1.6974,1.6466,1.5811,0.0,0.0,1.7722,1.8734,2.0106,2.0478,2.0507,2.0537,2.0556,2.0566,2.0546,1.9863,1.892,1.7917,1.6865,1.5769,1.4596,0.0,1.4506,1.4796,1.4917,1.5938,1.8509,1.8872,1.8917,1.8917,1.8917,1.806,1.5944,1.5779,1.6232,1.7334,1.6437,1.7269,2.0411,1.9029,1.7108,1.4786,1.4088,0.0,0.0,0.0,0.0,0.0,0.0,0.0,0.0,0.0,0.0,0.0,0.0,0.0,0.0,0.0,0.0,0.0,0.0,0.0,0.0,0.0,0.0,0.0,0.0,0.0,0.0,0.0,0.0,1.6634,1.7085,0.0,1.6064,1.6723,1.7615,1.8543,1.9019,1.9811,2.1122,2.1592,2.1963,2.2275,2.2549,2.2652,2.2652,2.2799,2.2877,2.2877,2.3023,2.3091,2.3091,2.3091,2.3091,2.3091,2.3091,2.3091,2.3071,2.2769,2.2256,2.1592,2.1592,2.1143,2.0547,2.085,2.0781,2.0586,2.0889,2.081,2.0605,2.0605,2.0032,1.9359,1.9205,1.8945,1.88,1.9253,1.982,2.0313,2.0556,2.0781,2.0918,2.0674,2.0605,2.0605,2.0605,2.037,2.0031,1.9717,1.8346,1.7088,1.6537,1.6413,1.6422,1.6551,1.7153,1.8192,1.9828,2.004,1.9766,1.9076,1.8997,1.8101,1.5902,1.6314,1.6601,1.6273,1.7245,1.802,1.847,1.9044,1.8294,1.6043,1.5452,1.3202,0.0,0.0,0.0,0.0,0.0,0.0,0.0,0.0,0.0,0.0,0.0,0.0,0.0,0.0,0.0,0.0,0.0,0.0,0.0,0.0,0.0,0.0,0.0,0.0,0.0,1.7072,1.7885,1.832,1.9069,1.9094,1.8082,1.9012,2.0021,2.0703,2.103,2.1495,2.2262,2.2578,2.2682,2.2682,2.2955,2.3091,2.3091,2.3091,2.3091,2.3091,2.3091,2.3091,2.3091,2.3091,2.3091,2.3091,2.3091,2.3091,2.3091,2.3091,2.2925,2.2682,2.2682,2.2549,2.2295,2.2148,2.1914,2.158,2.1298,2.1133,2.0997,2.0703,2.0703,2.0762,2.0644,2.0713,2.0791,2.0791,2.1113,2.1387,2.1124,2.123,2.1377,2.1124,2.0708,2.0499,2.0966,2.0708,2.0539,2.0966,1.9754,1.8648,1.8488,1.8551,1.85,1.8083,1.9146,2.0078,2.0323,2.0772,2.0767,2.0068,1.9273,1.8192,1.6739,1.6203,1.593,1.6002,1.6557,1.7242,1.7989,1.813,1.7639,1.6458,1.5149,1.2954,0.9907,0.0,0.0,0.0,0.0,0.0,0.0,0.0,0.0,0.0,0.0,0.0,0.0,0.0,0.0,0.0,0.0,0.0,0.0,0.0,0.0,0.0,0.0,0.0,1.835,1.9267,1.9962,1.9915,2.1093,2.1375,2.0061,2.1452,2.2487,2.2539,2.2867,2.3091,2.3047,2.3091,2.3091,2.3047,2.3091,2.3091,2.3091,2.3091,2.3091,2.3091,2.3091,2.3091,2.3091,2.3091,2.3091,2.3091,2.3091,2.3091,2.3091,2.3091,2.3091,2.3091,2.3091,2.3091,2.3042,2.2643,2.2519,2.2393,2.1512,2.1533,2.1738,2.0928,2.0898,2.1132,2.0693,2.0869,2.117,2.1129,2.1481,2.1853,2.1843,2.1894,2.1904,2.1894,2.0913,2.034,2.1617,2.0913,2.0382,2.1658,2.1231,2.0644,2.0644,2.0967,2.0781,1.9561,2.081,0.0,2.0137,2.1094,2.1865,2.1826,1.9789,1.8409,1.8366,1.5242,1.4274,1.6513,1.4384,1.4937,1.9185,1.6547,1.5267,1.5909,1.3204,1.1245,1.014,0.0,0.0,0.0,0.0,0.0,0.0,0.0,0.0,0.0,0.0,0.0,0.0,0.0,0.0,0.0,0.0,0.0,0.0,0.0,0.0,0.0,1.7467,1.8789,1.8997,2.0615,2.1447,2.0578,2.1047,2.1339,2.0955,2.1376,2.2005,2.2882,2.3033,2.2721,2.1845,2.2633,2.2677,2.18,2.2633,2.3091,2.3091,2.3091,2.3091,2.3091,2.3091,2.3091,2.3091,2.3091,2.3091,2.3091,2.3091,2.3091,2.3091,2.3091,2.3091,2.3091,2.3091,2.3091,2.3081,2.2964,2.273,2.2432,2.1894,2.1787,2.1846,2.1602,2.1611,2.1506,2.0471,2.0251,2.0134,1.9252,2.0,2.0927,2.0591,2.1442,2.2266,2.1963,2.0913,2.034,2.1617,2.0913,2.0382,2.1658,2.1689,2.1523,2.1523,2.1621,2.1582,2.123,2.1582,2.1758,2.1396,2.166,2.131,1.9756,1.9006,1.8285,1.7533,1.6571,1.6597,1.7946,1.7854,1.7938,1.8362,1.878,1.8252,1.6669,1.3277,1.1249,0.0,0.0,0.0,0.0,0.0,0.0,0.0,0.0,0.0,0.0,0.0,0.0,0.0,0.0,0.0,0.0,0.0,0.0,0.0,0.0,0.0,0.0,1.9146,2.0303,1.9929,2.0938,2.1543,2.1029,2.0704,2.0755,2.1248,2.1293,2.18,2.3003,2.3091,2.2775,2.2076,2.2227,2.2271,2.2076,2.2262,2.2589,2.3091,2.3091,2.3091,2.3091,2.3091,2.3091,2.3091,2.3091,2.3091,2.3091,2.3091,2.3091,2.3091,2.3091,2.3091,2.3091,0.0,0.0,0.0,0.0,2.2945,2.2672,2.2295,2.2266,2.2353,2.2002,2.2002,2.1984,2.1053,2.0552,2.0245,2.0082,2.0097,2.0377,2.1121,2.1639,2.1944,2.1707,2.0712,2.0131,2.1384,2.0669,2.0313,2.2053,2.2412,0.0,2.2412,2.2266,2.1963,2.1456,2.1943,2.2217,2.168,2.208,2.1942,2.068,1.9638,1.9011,1.8887,1.7009,0.0,0.0,0.0,1.7876,1.7852,1.8656,0.0,0.0,0.0,1.1988,1.2098,1.1129,0.0,0.0,0.9613,0.9552,0.0,0.0,0.0,0.0,0.0,0.0,0.0,0.0,0.0,0.0,0.0,0.0,0.0,0.0,0.0,0.0,2.0818,2.2131,2.0962,2.0648,2.0642,2.0846,1.9943,1.9716,2.08,2.1025,2.1623,2.2818,2.3003,2.3047,2.2906,2.2006,0.0,0.0,0.0,2.2031,2.3091,2.3091,2.3091,2.3091,2.3091,2.3091,2.3091,2.3091,2.3091,2.3091,2.3091,2.3091,2.3091,2.3091,2.3091,2.3091,2.3091,2.3091,2.3091,2.3091,2.3091,2.3042,2.2672,0.0,0.0,2.2266,2.2275,2.2467,2.1961,2.1348,2.0918,2.1735,2.0784,1.9997,2.2129,2.1987,2.1293,2.1293,2.0486,1.9943,2.089,2.035,2.0359,2.2501,2.3003,2.3091,2.3091,2.2789,2.2187,2.1065,2.2158,2.2682,2.1551,2.2399,2.2999,2.2756,2.0704,0.0,2.0873,1.6895,1.5893,1.9488,1.7566,1.6872,1.8102,1.7518,1.6704,1.5723,1.3858,1.3165,1.3653,1.3434,1.3307,1.3253,1.0823,1.0403,0.0,0.0,0.0,0.0,0.0,0.0,0.0,0.0,0.0,0.0,0.0,0.0,0.0,0.0,0.0,2.0496,2.1945,2.2553,2.1362,2.0337,1.9414,1.8495,1.8187,1.8141,1.8365,1.9268,2.035,2.1569,2.2536,2.2677,2.1702,2.2359,2.2413,2.165,2.2369,2.2862,2.3091,2.3091,2.3091,2.3091,2.3091,0.0,2.3091,2.3091,2.3091,2.3091,2.3091,2.3091,2.3091,2.3091,2.3091,2.3091,2.3091,2.3091,2.3091,2.3091,2.3091,2.3081,2.3003,2.3023,2.3062,2.2906,2.2906,2.2771,2.1729,2.1307,0.0,1.9125,1.9045,1.9633,2.0087,2.0755,2.1293,2.1293,2.1114,2.0755,1.9988,2.044,2.1069,2.1569,2.2448,2.3091,2.3091,2.3033,2.2886,2.2633,2.2886,2.3003,2.276,2.2945,2.2466,2.0795,1.9291,1.8532,1.8786,1.7,1.7349,2.0766,2.105,2.1135,2.1103,1.9194,1.7921,1.7507,1.5289,1.4085,1.4001,1.3941,1.3921,1.3901,1.3107,1.2907,0.0,0.0,0.0,0.0,0.0,0.0,0.0,0.0,0.0,0.0,0.0,1.7542,1.8872,0.0,2.0993,2.1714,2.2045,2.1756,2.0576,1.936,1.8365,1.7777,1.7131,1.699,1.7645,1.8772,1.9988,2.1203,2.2403,2.2818,2.2217,2.2217,2.2183,2.2192,2.2183,2.2492,2.3091,2.3091,2.3091,2.3091,2.3091,2.3091,2.3091,2.3091,2.3091,2.3091,2.3091,2.3091,2.3091,2.3091,2.3091,2.3091,2.3091,2.3091,2.3091,2.3091,2.3091,2.3091,2.3091,2.3091,2.3091,2.3091,2.3091,2.3003,2.2403,2.1346,2.026,1.967,1.8626,1.8072,1.9943,2.0395,2.0567,2.1159,2.0845,2.0215,1.9625,1.9988,2.0576,2.1159,2.2262,2.3091,2.3091,2.3091,2.3091,2.3091,2.3091,2.3091,2.3091,2.3091,2.2708,2.1669,1.9946,1.908,1.9687,1.8627,1.8637,2.0307,2.1342,2.1823,2.1626,1.9748,1.8387,1.7593,1.556,1.4449,1.4302,1.4162,1.4088,1.4082,1.3935,1.3868,0.0,0.0,0.0,0.0,0.0,0.0,0.0,1.5503,1.6234,1.8248,1.8976,1.962,2.0858,2.165,2.2236,2.2578,2.187,2.089,1.9679,1.8457,1.7598,1.7365,1.6433,1.6197,1.7225,1.8449,1.9534,2.0531,2.1943,2.2633,2.2403,2.1943,2.1987,2.2731,2.2031,2.2129,2.3091,2.3091,2.3091,2.3091,2.3091,2.3091,2.3091,2.3091,2.3091,2.3091,2.3091,2.3091,2.3091,2.3091,2.3091,2.3091,2.3091,2.3091,2.3091,2.3091,2.3091,2.3091,2.3091,2.3091,2.3091,2.3091,2.3091,2.3091,2.3091,2.1587,1.9988,2.0755,1.8664,1.6842,1.9844,2.0034,1.9761,2.0711,2.0576,1.9997,1.9314,1.9542,2.0079,2.08,2.1943,2.2818,2.3047,2.3091,2.3091,2.3091,2.3091,2.3091,2.3091,2.3091,2.3091,2.3091,2.0953,1.9716,2.0206,1.9579,1.9131,1.9131,2.0486,2.1203,2.098,1.9798,1.8535,1.7244,1.5534,1.4636,1.4522,1.4489,1.4374,1.4168,1.4867,1.4825,1.2799,1.3451,1.4396,1.487,1.5402,1.6544,0.0,1.9564,1.9715,2.2032,2.2547,2.2605,2.2789,2.2886,2.2974,2.3013,2.2047,2.089,1.9679,1.8457,1.7271,1.6157,1.5872,1.5879,1.6015,1.7178,1.7963,1.8095,2.0215,2.1025,1.9943,2.1819,2.2492,2.1525,2.2403,2.296,2.3091,2.3091,2.3091,2.3091,2.3091,2.3091,2.3091,2.3091,2.3091,2.3091,2.3091,2.3091,2.3091,2.3091,2.3091,2.3091,2.3091,2.3091,2.3091,2.3091,2.3091,2.3091,2.3091,2.3091,2.3091,2.3091,2.3091,2.3091,2.3091,2.2173,2.089,1.9943,1.8634,1.7591,1.8002,1.8818,1.9534,1.9679,2.1221,2.1819,1.8596,1.9588,2.08,1.9898,2.0666,2.1845,2.2906,2.3091,2.3091,2.3091,2.3091,2.3091,2.3091,2.3091,2.3091,2.3091,2.0953,1.8672,1.6608,1.7311,1.7917,1.7917,2.0034,2.08,1.9761,1.9546,1.8731,1.7251,1.5951,1.5044,1.4522,1.544,1.5383,1.4512,1.7554,1.7353,1.4602,1.5749,1.683,1.7347,1.825,1.937,2.0753,2.0983,2.1342,2.2804,2.3091,2.3091,2.3091,2.3091,2.3091,2.3091,2.1489,2.0079,1.9579,1.7809,1.6386,1.5872,1.5784,1.5784,1.5784,1.6943,1.7692,1.7692,1.9268,2.035,2.0531,2.148,2.2129,2.235,2.2818,2.3091,2.3091,2.3091,2.3091,2.3091,2.3091,2.3091,2.3091,2.3091,2.3091,2.3091,2.3091,2.3091,2.3091,2.3091,2.3091,2.3091,2.3091,2.3091,2.3091,2.3091,2.3091,2.3091,2.3091,2.3091,2.3091,2.3091,2.3091,2.3091,2.3091,2.2262,2.1069,1.9852,1.8634,1.7692,1.7692,1.8048,1.8642,1.9314,1.9724,1.955,1.8056,1.9039,2.0079,1.9579,2.1033,2.2492,2.3003,2.3091,2.3091,2.3091,2.3091,2.3091,2.3091,2.3091,2.2818,2.212,2.1168,1.9579,1.7124,1.7412,1.8002,1.868,1.967,2.035,2.0531,1.9852,1.8875,1.7513,1.6111,1.5277,1.503,1.5331,1.5249,1.4821,1.6992,1.7302,1.5924,1.7311,1.8477,1.9374,2.0676,2.1717,2.1717,2.2002,2.2402,2.2974,2.3091,2.3091,2.3091,2.3091,2.3091,2.3091,2.1355,1.9898,1.9542,1.7669,1.6197,1.5825,1.5784,1.5784,1.5784,1.6622,1.7178,1.7178,1.8319,1.9214,1.9745,2.0432,2.1033,2.1587,2.2271,2.2589,2.2589,2.295,2.3091,2.3091,2.3091,2.3091,2.3091,2.3091,2.3091,2.3091,2.3091,2.3091,2.3091,2.3091,2.3091,2.3091,2.3091,2.3091,2.3091,2.3091,2.3091,2.3091,2.3091,2.3091,2.3091,2.3091,2.3091,2.3047,2.2677,2.1987,2.098,1.9451,1.8365,1.7638,1.7271,1.7458,1.7917,1.8818,1.8588,1.8187,1.8187,1.8864,1.9579,1.9943,2.14,2.2721,2.3047,2.3091,2.3091,2.3091,2.3091,2.3091,2.3091,2.3091,2.2633,2.1426,2.1293,2.044,1.8365,1.8187,1.8549,1.9451,1.9807,2.026,2.08,2.026,1.9268,1.7731,1.659,1.5973,1.5883,1.6024,1.609,1.6179,1.7691,1.8173,1.6377,1.7725,1.9084,2.0708,2.2116,2.3033,2.3033,2.3052,2.3062,2.3091,2.3091,2.3091,2.3091,2.3091,2.3091,2.3091,2.2076,2.0845,1.967,1.8411,1.7178,1.5967,1.5784,1.5784,1.5784,1.5832,1.5879,1.5879,1.7037,1.7225,1.6008,1.8257,1.9039,1.7917,2.0124,2.1337,2.1337,2.2536,2.3091,2.3091,2.3091,2.3091,2.3091,2.3091,2.3091,2.3091,2.3091,2.3091,2.3091,2.3091,2.3091,2.3091,2.3091,2.3091,2.3091,2.3091,2.3091,2.3091,2.3091,2.3091,2.3091,2.3091,2.3091,2.2862,2.1712,2.1337,2.08,1.8411,1.7738,1.7412,1.6204,1.6756,1.7692,1.7738,1.8634,1.9451,1.9451,1.9488,1.9852,2.1025,2.1293,2.1712,2.2906,2.3091,2.3091,2.3091,2.3091,2.3091,2.3091,2.3091,2.2633,2.1426,2.1293,2.08,1.9534,1.9451,1.9451,1.9497,2.0621,2.0755,1.9579,2.0621,2.0124,1.7738,1.763,1.7459,1.7161,1.8179,1.8758,1.9032,2.1296,2.1282,1.5897,1.6774,1.7763,2.0573,2.1593,2.2129,2.2906,2.3091,2.2862,2.2076,2.2536,2.2862,2.2031,2.2536,2.3091,2.3091,2.2076,2.089,1.9679,1.8457,1.7225,1.5967,1.5784,1.5784,1.5784,1.5784,1.5784,1.5784,1.6197,1.6615,1.7037,1.7863,1.8503,1.8864,2.044,2.1293,2.1293,2.2492,2.3091,2.3091,2.3091,2.3091,2.3091,2.3091,2.3091,2.3091,2.3091,2.3091,2.3091,2.3091,2.3091,2.3091,2.3091,2.3091,2.3091,2.3091,2.3091,2.3091,2.3091,2.3091,2.3091,2.3091,2.3091,2.3003,2.2633,2.2492,2.1987,1.9588,1.891,1.8403,1.6339,1.6109,1.6669,1.7505,1.8002,1.8326,1.8326,1.9534,2.0576,2.0169,2.14,2.2633,2.3047,2.3091,2.3091,2.3091,2.3091,2.3091,2.3091,2.3091,2.295,2.2536,2.2492,2.1996,2.08,2.0702,2.0702,2.0702,2.1069,2.148,2.1863,2.1525,2.0935,2.0079,1.9314,1.8846,1.8718,1.9081,1.9315,1.9405,2.0979,2.1353,1.5693,1.6302,1.7009,1.9924,2.0666,2.0845,2.1632,2.1819,2.1587,2.08,2.1085,2.1422,2.1155,2.1293,2.1836,2.2965,2.184,2.0548,1.9816,1.8637,1.7348,1.5981,1.5784,1.5784,1.5784,1.5784,1.5784,1.5784,1.5784,1.6157,1.699,1.7037,1.7404,1.8164,1.9351,2.0215,2.0657,2.1854,2.2677,2.3091,2.3091,2.3091,2.3091,2.3091,2.3091,2.3091,2.3091,2.3091,2.3091,2.3091,2.3091,2.3091,2.3091,2.3091,2.3091,2.3091,2.3091,2.3091,2.3091,2.3091,2.3091,2.3091,2.3091,2.3003,2.2589,2.2448,2.1943,1.9542,1.8864,1.8495,1.6889,1.648,1.6669,1.7505,1.8056,1.8319,1.8319,1.9898,2.1203,2.0854,2.2041,2.3091,2.3091,2.3091,2.3091,2.3091,2.3091,2.3091,2.3091,2.3091,2.3091,2.3091,2.3091,2.2775,2.2031,2.1933,2.1933,2.1933,2.1933,2.2306,2.3047,2.2359,2.1747,2.1293,2.0531,2.0124,2.0124,2.0124,2.035,2.0809,2.1578,2.1933,1.5705,1.6269,1.6776,1.8872,1.9405,1.9405,1.9497,1.9497,1.948,1.9377,1.8949,1.899,2.0241,1.9445,1.9574,2.2519,2.1273,1.9906,1.9945,1.8886,1.7512,1.6001,1.5784,1.5784,1.5784,1.5784,1.5784,1.5784,1.5784,1.5784,1.5784,1.5784,1.5784,1.5784,1.7037,1.828,1.9497,2.0755,2.1987,2.3091,2.3091,2.3091,2.3091,2.3091,2.3091,2.3091,2.3091,2.3091,2.3091,2.3091,2.3091,2.3091,2.3091,2.3091,2.3091,2.3091,2.3091,2.3091,2.3091,2.3091,2.3091,2.3091,2.3091,2.2906,2.1747,2.1382,2.089,1.8457,1.7824,1.787,1.7731,1.7692,1.7731,1.787,1.8726,1.9542,1.9579,2.0531,2.1712,2.2818,2.3047,2.3091,2.3091,2.3091,2.3091,2.3091,2.3091,2.3091,2.3091,2.3091,2.3091,2.3091,2.3091,2.3091,2.3091,2.3091,2.3091,2.3091,2.3091,2.3047,2.3003,2.3003,2.2492,2.1337,2.1293,2.1337,2.1382,2.1382,2.1987,2.3091,2.3091,2.3091,1.5112,1.5597,1.6267,1.7802,1.8141,1.8411,1.9314,1.9497,1.9032,1.7442,1.7752,1.8129,1.7451,1.7892,1.8751,2.0134,1.9929,1.9315,1.845,1.8038,1.7312,1.5974,1.5784,1.5784,1.5784,1.5784,1.5784,1.5784,1.5784,1.5784,1.5784,1.5784,1.5784,1.5784,1.7037,1.828,1.9497,2.1587,2.2818,2.3091,2.3091,2.3091,2.3091,2.3091,2.3091,2.3091,2.3091,2.3091,2.3091,2.3091,2.3091,2.3091,2.3091,2.3091,2.3091,2.3091,2.3091,2.3091,2.3091,2.3091,2.3091,2.3091,2.3091,2.3047,2.2721,2.2633,2.2129,1.9724,1.9679,1.9988,1.8187,1.7692,1.8141,1.9943,1.9943,1.9761,2.0666,2.18,2.2492,2.1889,2.2492,2.3091,2.3091,2.3091,2.3091,2.3091,2.3091,2.3091,2.3091,2.3091,2.3091,2.3091,2.3091,2.3091,2.3091,2.3091,2.3091,2.3091,2.3091,2.2677,2.18,2.1756,2.1614,2.1293,2.1293,2.1747,2.2633,2.2633,2.2818,2.3091,2.3091,2.3091,1.5231,1.5578,1.5967,1.6669,1.685,1.6922,1.7251,1.7287,1.6829,1.5117,1.521,1.5483,1.5078,1.5662,1.6719,1.8394,1.8326,1.8074,1.7988,1.7483,1.6776,1.5893,1.5784,1.5784,1.5784,1.5784,1.5784,1.5784,1.5784,1.5784,1.5784,1.5784,1.5784,1.5784,1.648,1.7716,1.9497,2.1355,2.2589,2.3091,2.3091,2.3091,2.3091,2.3091,2.3091,2.3091,2.3091,2.3091,2.3091,2.3091,2.3091,2.3091,2.3091,2.3091,2.3091,2.3091,2.3091,2.3091,2.3091,2.3091,2.3091,2.3091,2.3091,2.3091,2.3091,2.2721,2.1898,2.0042,1.9633,1.9405,1.8048,1.8095,1.8818,2.0169,2.0809,2.1132,2.1248,2.2262,2.2906,2.2217,2.2633,2.3091,2.3091,2.3091,2.3091,2.3091,2.3091,2.3091,2.3091,2.3091,2.3091,2.3091,2.3091,2.3091,2.3091,2.3091,2.3091,2.3091,2.3091,2.2536,2.1337,2.1293,2.1293,2.1293,2.1293,2.1889,2.3091,2.3091,2.3091,2.3091,2.3091,2.3091,1.5691,1.5784,1.5784,1.5784,1.5784,1.5551,1.4723,1.4489,1.4102,1.2871,1.2331,1.2341,1.3065,1.3306,1.4233,1.683,1.6617,1.6546,1.7802,1.6973,1.6119,1.5811,1.5784,1.5784,1.5784,1.5784,1.5784,1.5784,1.5784,1.5784,1.5784,1.5784,1.5784,1.5784,1.5967,1.707,1.9222,2.044,2.1667,2.2862,2.2862,2.296,2.3091,2.3091,2.3091,2.3091,2.3091,2.3091,2.3091,2.3091,2.3091,2.3091,2.3091,2.3091,2.3091,2.3091,2.3091,2.3091,2.3091,2.3091,2.3091,2.3091,2.3091,2.3091,2.3091,2.235,2.1302,2.0079,1.9093,1.8373,1.8234,1.8948,1.9761,1.9943,2.1445,2.2633,2.1712,2.2359,2.3091,2.3091,2.3091,2.3091,2.3091,2.3091,2.3091,2.3091,2.3091,2.3091,2.3091,2.3091,2.3091,2.3091,2.3091,2.3091,2.3091,2.3091,2.3091,2.3091,2.3091,2.2536,2.1337,2.1293,2.1293,2.1293,2.1293,2.1889,2.3091,2.3091,2.3091,2.3091,2.3091,2.3091,1.5751,1.5784,1.5784,1.5784,1.5784,1.5551,1.4723,1.4335,1.3687,1.2004,1.1423,1.1313,1.1634,1.1974,1.2797,1.4676,1.5098,1.5449,1.6163,1.6041,1.5885,1.5791,1.5784,1.5784,1.5784,1.5784,1.5784,1.5784,1.5784,1.5784,1.5784,1.5784,1.5784,1.5784,1.6803,1.7591,1.801,1.9222,2.044,2.1614,2.1614,2.212,2.3091,2.3091,2.3091,2.3091,2.3091,2.3091,2.3091,2.3091,2.3091,2.3091,2.3091,2.3091,2.3091,2.3091,2.3091,2.3091,2.3091,2.3091,2.3091,2.3091,2.3091,2.3091,2.3091,2.295,2.2536,2.1346,2.1578,2.1952,2.0935,2.0845,2.1248,2.2227,2.2031,2.1845,2.2633,2.296,2.3091,2.3091,2.3091,2.3091,2.3091,2.3091,2.3091,2.3091,2.3091,2.3091,2.3091,2.3091,2.3091,2.3091,2.3091,2.3091,2.3091,2.3091,2.3091,2.3091,2.3091,2.2536,2.1337,2.1293,2.1293,2.1293,2.1293,2.1889,2.3091,2.3091,2.3091,2.3091,2.3091,2.3091,1.5784,1.5784,1.5784,1.5784,1.5784,1.5438,1.3941,1.3527,1.2837,1.0683,1.0301,1.0248,1.0038,1.0882,1.1911,1.2701,1.3899,1.4883,1.5317,1.5638,1.5784,1.5784,1.5784,1.5784,1.5784,1.5784,1.5784,1.5784,1.5784,1.5784,1.5784,1.5784,1.5784,1.5784,1.6386,1.7037,1.7684,1.8272,1.9177,2.0395,2.098,2.1614,2.2173,2.2818,2.3091,2.3091,2.3091,2.3091,2.3091,2.3091,2.3091,2.3091,2.3091,2.3091,2.3091,2.3091,2.3091,2.3091,2.3091,2.3091,2.3091,2.3091,2.3091,2.3091,2.3091,2.3091,2.2862,2.1658,2.1702,2.1898,2.0666,2.0845,2.1436,2.2031,2.2217,2.2403,2.296,2.3091,2.3091,2.3091,2.3091,2.3091,2.3091,2.3091,2.3091,2.3091,2.3091,2.3091,2.3091,2.3091,2.3091,2.3091,2.3091,2.3091,2.3091,2.3091,2.3091,2.3091,2.3091,2.2536,2.1337,2.1293,2.1293,2.1293,2.1293,2.1889,2.3091,2.3091,2.3091,2.3091,2.3091,2.3091,1.5784,1.5784,1.5784,1.5784,1.5784,1.5291,1.3266,1.2737,1.204,0.9684,0.9379,0.9372,0.8971,1.005,1.1156,1.147,1.2993,1.4335,1.4934,1.5411,1.5758,1.5771,1.5784,1.5784,1.5784,1.5784,1.5784,1.5784,1.554,1.5391,1.5391,1.5635,1.5683,1.5384,1.5683,1.6292,1.7271,1.7271,1.7909,1.9131,2.035,2.1069,2.1337,2.2536,2.3091,2.3091,2.3091,2.3091,2.3091,2.3091,2.3091,2.3091,2.3091,2.3091,2.3091,2.3091,2.3091,2.3091,2.3091,2.3091,2.3091,2.3091,2.3091,2.3091,2.3091,2.3091,2.2906,2.1943,2.1712,2.148,2.0539,2.098,2.1712,2.1712,2.2403,2.3091,2.3091,2.3091,2.3091,2.3091,2.3091,2.3091,2.3091,2.3091,2.3091,2.3091,2.3091,2.3091,2.3091,2.3091,2.3091,2.3091,2.3091,2.3091,2.3091,2.3091,2.3091,2.3091,2.3091,2.2677,2.1702,2.1712,2.1712,2.1712,2.1712,2.2164,2.3091,2.3091,2.3091,2.3091,2.3091,2.3091,1.5784,1.5784,1.5784,1.5784,1.5784,1.5291,1.3247,1.2552,1.175,0.9644,0.9024,0.8951,0.9131,0.9552,1.0281,1.1651,1.2476,1.3427,1.4814,1.5237,1.5531,1.5751,1.5784,1.5784,1.5784,1.5784,1.5784,1.5784,1.4752,1.407,1.407,1.5146,1.5289,1.4118,1.5194,1.5879,1.5967,1.5967,1.6615,1.787,1.9093,2.026,2.1337,2.2536,2.3091,2.3091,2.3091,2.3091,2.3091,2.3091,2.3091,2.3091,2.3091,2.3091,2.3091,2.3091,2.3091,2.3091,2.3091,2.3091,2.3091,2.3091,2.3091,2.3091,2.3091,2.3091,2.3091,2.296,2.295,2.2916,2.2818,2.2862,2.295,2.295,2.3003,2.3091,2.3091,2.3091,2.3091,2.3091,2.3091,2.3091,2.3091,2.3091,2.3091,2.3091,2.3091,2.3091,2.3091,2.3091,2.3091,2.3091,2.3091,2.3091,2.3091,2.3091,2.3091,2.3091,2.3091,2.3047,2.295,2.295,2.295,2.295,2.295,2.3003,2.3091,2.3091,2.3091,2.3091,2.3091,2.3091,1.5785,1.5784,1.5784,1.5784,1.5565,1.4816,1.2919,1.2118,1.1243,0.9337,0.8884,0.8844,0.8931,0.9191,0.978,1.0935,1.1759,1.2583,1.3534,1.4349,1.491,1.4985,1.5351,1.5638,1.5764,1.5784,1.5784,1.5784,1.5337,1.4364,1.277,1.3932,1.4411,1.3926,1.514,1.5784,1.5784,1.5784,1.6062,1.6574,1.7816,1.9047,2.026,2.148,2.2403,2.3091,2.3091,2.3091,2.3091,2.3091,2.3091,2.3091,2.3091,2.3091,2.3091,2.3091,2.3091,2.3091,2.3091,2.3091,2.3091,2.3091,2.3091,2.3091,2.3091,2.3091,2.3091,2.3091,2.3091,2.3091,2.3091,2.3091,2.3091,2.3091,2.3091,2.3091,2.3091,2.3091,2.3091,2.3091,2.3091,2.3091,2.3091,2.3091,2.3091,2.3091,2.3091,2.3091,2.3091,2.3091,2.3091,2.3091,2.3091,2.3091,2.3091,2.3091,2.3091,2.3091,2.3091,2.3091,2.3091,2.3091,2.3091,2.3091,2.3091,2.3091,2.3091,2.3091,2.3091,2.3091,2.3091,2.3091,1.5598,1.5718,1.5784,1.5784,1.5391,1.4539,1.2712,1.1815,1.0896,0.9172,0.8804,0.8804,0.8804,0.8944,0.9377,1.0318,1.1055,1.1846,1.279,1.3681,1.4362,1.4623,1.5017,1.5384,1.5671,1.5731,1.5784,1.5784,1.5439,1.4418,1.2571,1.3392,1.3728,1.3343,1.4949,1.5784,1.5784,1.5784,1.5784,1.5825,1.7084,1.8319,1.9542,2.0755,2.1943,2.3091,2.3091,2.3091,2.3091,2.3091,2.3091,2.3091,2.3091,2.3091,2.3091,2.3091,2.3091,2.3091,2.3091,2.3091,2.3091,2.3091,2.3091,2.3091,2.3091,2.3091,2.3091,2.3091,2.3091,2.3091,2.3091,2.3091,2.3091,2.3091,2.2818,2.2677,2.3003,2.2818,2.2677,2.3047,2.3091,2.3091,2.3091,2.3091,2.3091,2.3091,2.3091,2.3091,2.3091,2.3091,2.3091,2.3091,2.3091,2.3091,2.3091,2.3091,2.3091,2.3091,2.3091,2.3091,2.3091,2.3091,2.3091,2.3091,2.3091,2.3091,2.3091,2.3091,2.3091,2.3091,2.3091,2.3091,1.5244,1.5611,1.5784,1.5784,1.5391,1.4539,1.2712,1.1815,1.0896,0.9172,0.8804,0.8804,0.8804,0.8811,0.9098,0.995,1.0374,1.1223,1.2959,1.342,1.3933,1.4901,1.5008,1.5129,1.5371,1.5658,1.5784,1.5784,1.4609,1.3926,1.3878,1.3872,1.3295,1.1945,1.4418,1.5784,1.5784,1.5784,1.5784,1.5825,1.7084,1.8319,1.9542,2.0755,2.1943,2.3091,2.3091,2.3091,2.3091,2.3091,2.3091,2.3091,2.3091,2.3091,2.3091,2.3091,2.3091,2.3091,2.3091,2.3091,2.3091,2.3091,2.3091,2.3091,2.3091,2.3091,2.3091,2.3091,2.3091,2.3091,2.3091,2.3091,2.3091,2.3091,2.2173,2.1667,2.2862,2.2173,2.1658,2.2862,2.3091,2.3091,2.3091,2.3091,2.3091,2.3091,2.3091,2.3091,2.3091,2.3091,2.3091,2.3091,2.3091,2.3091,2.3091,2.3091,2.3091,2.3091,2.3091,2.3091,2.3091,2.3091,2.3091,2.3091,2.3091,2.3091,2.3091,2.3091,2.3091,2.3091,2.3091,2.3091,1.4106,1.4416,1.4543,1.4142,1.3587,1.2839,1.167,1.0949,1.0207,0.9045,0.8804,0.8804,0.8804,0.8804,0.9292,1.0736,1.1089,1.1637,1.3019,1.3808,1.4275,1.4355,1.507,1.5591,1.5685,1.5724,1.5784,1.5784,1.5439,1.4418,1.2619,1.422,1.4609,1.3295,1.4902,1.5784,1.5784,1.5784,1.5784,1.5825,1.7084,1.8319,1.9542,2.0755,2.1943,2.3091,2.3091,2.3091,2.3091,2.3091,2.3091,2.3091,2.3091,2.3091,2.3091,2.3091,2.3091,2.3091,2.3091,2.3091,2.3091,2.3091,2.3091,2.3091,2.3091,2.3091,2.3091,2.3091,2.3091,2.3091,2.3091,2.3091,2.3091,2.3091,2.2173,2.1382,2.18,2.0935,2.044,2.1623,2.1845,2.212,2.296,2.3091,2.3091,2.3091,2.3091,2.3091,2.3091,2.3091,2.3091,2.3091,2.3091,2.3091,2.3091,2.3091,2.3091,2.3091,2.3091,2.3091,2.3091,2.3091,2.3091,2.3091,2.3091,2.3091,2.3091,2.3091,2.3091,2.3091,2.3091,2.3091,1.2974,1.344,1.3667,1.33,1.2672,1.1937,1.1169,1.0454,0.9733,0.8965,0.8804,0.8804,0.8804,0.8804,0.9198,1.0376,1.0695,1.1263,1.2665,1.3434,1.3995,1.4369,1.5157,1.5665,1.5665,1.5718,1.5784,1.5784,1.5784,1.4854,1.2764,1.422,1.4704,1.3926,1.514,1.5784,1.5784,1.5784,1.5784,1.5832,1.6622,1.7855,1.9542,2.026,2.1534,2.3091,2.3091,2.3091,0.0,2.3091,2.3091,2.3091,2.3091,2.3091,2.3091,2.3091,2.3091,2.3091,2.3091,2.3091,2.3091,2.3091,2.3091,2.3003,2.2536,2.2403,2.2403,2.2403,2.2085,2.1721,2.1721,2.1721,2.1721,2.1721,2.0809,2.0079,2.0531,1.967,1.9177,2.0395,2.098,2.1525,2.2306,2.2818,2.3091,2.3091,2.3091,2.3091,2.3091,2.3091,2.3091,2.3091,2.3091,2.3091,2.3091,2.3091,2.3091,2.3091,2.3091,2.3091,2.3091,2.3091,2.3091,2.3091,2.3091,2.3091,2.3091,2.3091,2.3091,2.3091,2.3091,2.3091,0.0,1.2545,1.3013,1.2973,1.2331,1.1598,1.0995,1.0234,0.0,0.8925,0.8804,0.8818,0.8864,0.8838,0.8918,0.9331,0.9639,1.0421,1.2184,1.2757,1.3494,1.4901,1.5264,1.5431,1.5431,1.5671,1.5784,1.5784,1.5784,1.5194,1.3824,1.383,1.3872,1.3776,1.4997,1.573,1.5784,1.5784,1.5784,1.5784,1.5872,1.721,1.9497,1.9588,2.0908,2.3091,2.3091,2.3091,2.3091,2.3091,2.3091,2.3091,2.3091,2.3091,2.3091,2.3091,2.3091,2.3091,2.3091,2.3047,2.296,2.296,2.296,2.2765,2.1658,2.1293,2.1293,2.1203,2.035,1.9497,1.9497,1.9497,1.9497,1.9497,1.8596,1.801,1.9131,1.8411,1.7909,1.9131,2.035,2.1203,2.1293,2.2306,2.3091,2.3091,2.3091,2.3091,2.3091,2.3091,2.3091,2.3091,2.3091,2.3091,2.3091,2.3091,2.3091,2.3091,2.3091,2.3091,2.3091,2.3091,2.3091,2.3091,2.3091,2.3091,2.3091,2.3091,2.3091,2.3091,2.3091,2.3091,0.9857,0.0,1.1109,1.0628,1.0385,1.01,0.0,0.9464,0.9211,0.8878,0.8804,0.8945,0.9392,0.9112,0.9345,1.0989,1.1122,1.1637,1.3414,1.4309,1.4983,1.5558,1.5685,1.5732,1.5732,1.5744,1.5784,1.5784,1.5784,1.4806,1.2474,1.3343,1.344,1.2382,1.3638,1.48,1.5778,1.5784,1.5784,1.5832,1.6803,1.8041,1.9534,2.044,2.1667,2.3091,2.3091,2.3091,2.3091,2.3091,2.3091,2.3091,2.3091,2.3091,2.3091,2.3091,2.3091,2.3091,2.3091,2.2492,2.1712,2.173,2.1721,2.1667,2.1382,2.1293,2.1114,2.0169,1.9716,1.9497,1.9497,1.9497,1.9497,1.9497,1.8596,1.7777,1.8048,1.7124,1.6615,1.7863,1.9085,2.0215,2.1159,2.2306,2.3091,2.3091,2.3091,2.3091,2.3091,2.3091,2.3091,2.3091,2.3091,2.3091,2.3091,2.3091,2.3091,2.3091,2.3091,2.3091,2.3091,2.3091,2.3091,2.3091,2.3091,2.3091,2.3091,2.3091,2.3091,2.3091,2.3091,2.3091,0.9011,0.9786,1.0512,1.0198,0.998,0.984,0.965,0.9304,0.8971,0.8838,0.8804,0.8905,0.9225,0.9459,0.9916,1.076,1.1558,1.2559,1.4075,1.5044,1.5651,1.5764,1.5784,1.5784,1.5784,1.5784,1.5784,1.5784,1.5784,1.4949,1.2915,1.3488,1.3584,1.2861,1.3536,1.4507,1.5778,1.5784,1.5784,1.5832,1.648,1.7498,1.868,1.936,2.0314,2.1454,2.1454,2.1454,2.1498,2.2041,2.2262,2.2262,2.2262,2.2262,2.2217,2.1632,2.1454,2.1454,2.1454,2.1391,2.1203,2.0638,2.0854,2.1114,1.9988,1.9633,1.9488,1.8864,1.8265,1.7801,1.7801,1.7801,1.7801,1.7801,1.7304,1.681,1.681,1.6298,1.6015,1.6709,1.7809,1.9039,2.026,2.1454,2.2467,2.3003,2.3091,2.3091,2.3091,2.3091,2.3091,2.3091,2.3091,2.3091,2.3091,2.3091,2.3091,2.3091,2.3091,2.3091,2.3091,2.3091,2.3091,2.3091,2.3091,2.3091,2.3091,2.3091,2.3091,2.3091,2.3091,2.3091,0.8971,0.98,1.0606,1.0378,1.0174,0.9997,0.991,0.9339,0.8804,0.8804,0.8804,0.8891,0.9158,0.9913,1.0479,1.0307,1.1859,1.342,1.4436,1.5258,1.5784,1.5784,1.5784,1.5784,1.5784,1.5784,1.5784,1.5784,1.5784,1.5242,1.3974,1.3926,1.3926,1.3926,1.3926,1.4507,1.5778,1.5784,1.5784,1.5784,1.5784,1.648,1.7692,1.7692,1.8365,1.9497,1.9497,1.9497,1.9579,2.0621,2.1025,2.1025,2.1025,2.1025,2.089,1.9898,1.9497,1.9488,1.9268,2.0034,2.0845,1.9625,1.9898,2.035,1.8319,1.7552,1.7412,1.7412,1.6622,1.5784,1.5784,1.5784,1.5784,1.5784,1.5784,1.5784,1.5784,1.5784,1.5784,1.5784,1.681,1.8002,1.9047,2.0367,2.1641,2.2677,2.3003,2.3091,2.3091,2.3091,2.3091,2.3091,2.3091,2.3091,2.3091,2.3091,2.3091,2.3091,2.3091,2.3091,2.3091,2.3091,2.3091,2.3091,2.3091,2.3091,2.3091,2.3091,2.3091,2.3091,2.3091,2.3091,0.9713,1.0408,1.0628,0.9385,0.9419,0.9619,0.9118,0.8905,0.8804,0.8804,0.8804,0.9259,1.0716,1.0561,1.0815,1.2687,1.3721,1.4396,1.4881,1.5438,1.5784,1.5784,1.5784,1.5784,1.5784,1.5784,1.5784,1.5784,1.5784,1.5242,1.3974,1.3926,1.3926,1.3926,1.3926,1.4507,1.5778,1.5784,1.5784,1.5784,1.5784,1.648,1.7692,1.7692,1.8365,1.9497,1.9497,1.9497,1.9488,1.9716,1.9761,1.9761,1.9761,1.9761,1.9761,1.9588,1.9497,1.936,1.8319,1.8772,1.9579,1.8365,1.8095,1.8187,1.7824,1.6943,1.6109,1.6109,1.5967,1.5784,1.5784,1.5784,1.5784,1.5784,1.5784,1.5784,1.5784,1.5784,1.5784,1.5784,1.681,1.7777,1.7963,1.9815,2.1346,2.1569,2.2448,2.3091,2.3091,2.3091,2.3091,2.3091,2.3091,2.3091,2.3091,2.3091,2.3091,2.3091,2.3091,2.3091,2.3091,2.3091,2.3091,2.3091,2.3091,2.3091,2.3091,2.3091,2.3091,2.3091,2.3091,2.3091,0.9299,0.984,1.016,0.9646,1.0466,1.1343,1.1209,1.0935,1.0608,1.0256,1.019,1.0436,1.1242,1.1623,1.2458,1.4452,1.479,1.4917,1.5364,1.5658,1.5784,1.5784,1.5784,1.5784,1.5784,1.5784,1.5784,1.5784,1.5784,1.5534,1.4949,1.4949,1.4949,1.4949,1.4949,1.5194,1.5778,1.5784,1.5784,1.5784,1.5784,1.6109,1.6662,1.6662,1.6983,1.7483,1.7483,1.7483,1.7529,1.8226,1.8549,1.8549,1.8549,1.8549,1.8457,1.7755,1.7483,1.7436,1.685,1.749,1.8319,1.7084,1.7131,1.7544,1.6897,1.6244,1.5784,1.5784,1.5784,1.5784,1.5784,1.5784,1.5784,1.5784,1.5784,1.5784,1.5784,1.5784,1.5784,1.5784,1.6244,1.6897,1.7598,1.9177,2.0531,2.1203,2.235,2.3091,2.3091,2.3091,2.3091,2.3091,2.3091,2.3091,2.3091,2.3091,2.3091,2.3091,2.3091,2.3091,2.3091,2.3091,2.3091,2.3091,2.3091,2.3091,2.3091,2.3091,2.3091,2.3091,2.3091,2.3091,0.9058,0.9439,0.9907,1.0401,1.1283,1.2214,1.2766,1.2378,1.1844,1.1663,1.1595,1.1662,1.1868,1.2919,1.4142,1.5418,1.5364,1.5317,1.5718,1.5784,1.5784,1.5784,1.5784,1.5784,1.5784,1.5784,1.5784,1.5784,1.5784,1.5784,1.5784,1.5784,1.5784,1.5784,1.5784,1.5683,1.5343,1.5635,1.5784,1.5784,1.5784,1.5784,1.5784,1.5784,1.5784,1.5784,1.5784,1.5784,1.5879,1.685,1.7271,1.7271,1.7271,1.7271,1.7131,1.6157,1.5784,1.5784,1.5784,1.6433,1.7084,1.6109,1.648,1.7084,1.6109,1.5784,1.5784,1.5784,1.5784,1.5784,1.5784,1.5784,1.5784,1.5784,1.5784,1.5784,1.5784,1.5784,1.5784,1.5784,1.6062,1.648,1.7131,1.8495,1.9807,2.0755,2.1898,2.2775,2.3047,2.3091,2.3091,2.3091,2.3091,2.3091,2.3091,2.3091,2.3091,2.3091,2.3091,2.3091,2.3091,2.3091,2.3091,2.3091,2.3091,2.3091,2.3091,2.3091,2.3091,2.3091,2.3091,2.3091,0.98,1.0053,1.0347,1.1497,1.0847,1.0298,1.1685,1.1337,1.1015,1.2024,1.2238,1.2492,1.3293,1.4449,1.519,1.5095,1.5444,1.5785,1.5771,1.5784,1.5784,1.5784,1.5784,1.5784,1.5784,1.5784,1.5784,1.5784,1.5784,1.5784,1.5784,1.5784,1.5784,1.5784,1.5784,1.5242,1.407,1.5194,1.5784,1.5784,1.5784,1.5784,1.5784,1.5784,1.5784,1.5784,1.5784,1.5784,1.5832,1.592,1.592,1.592,1.592,1.592,1.592,1.5832,1.5784,1.5784,1.5784,1.5872,1.592,1.5832,1.5872,1.592,1.5832,1.5784,1.5784,1.5784,1.5784,1.5784,1.5784,1.5784,1.5784,1.5784,1.5784,1.5784,1.5784,1.5784,1.5784,1.5784,1.6763,1.7225,1.6103,1.794,1.9542,1.9625,2.0666,2.1845,2.296,2.3091,2.3091,2.3091,2.3091,2.3091,2.3091,2.3091,2.3091,2.3091,2.3091,2.3091,2.3091,2.3091,2.3091,2.3091,2.3091,2.3091,2.3091,2.3091,2.3091,2.3091,2.3091,2.3091,0.9165,0.9566,1.004,1.0888,1.0807,1.0982,1.2864,1.3313,1.3467,1.3909,1.3996,1.4001,1.4162,1.4997,1.5571,1.5284,1.5571,1.5784,1.5784,1.5784,1.5784,1.5784,1.5784,1.5784,1.5784,1.5784,1.5784,1.5784,1.5784,1.5784,1.5784,1.5784,1.5784,1.5784,1.5045,1.4411,1.3926,1.3542,1.3349,1.3403,1.5003,1.5784,1.5784,1.5784,1.5784,1.5784,1.5784,1.5784,1.5784,1.5784,1.5784,1.5784,1.5784,1.5784,1.5784,1.5784,1.5784,1.5784,1.5784,1.5784,1.5784,1.5784,1.5784,1.5784,1.5784,1.5784,1.5784,1.5784,1.5784,1.5784,1.5784,1.5784,1.5784,1.5784,1.5784,1.5784,1.5784,1.5784,1.5784,1.5784,1.6204,1.6622,1.6951,1.8403,1.977,2.0503,2.1632,2.2589,2.3047,2.3091,2.3091,2.3091,2.3091,2.3091,2.3091,2.3091,2.3091,2.3091,2.3091,2.3091,2.3091,2.3091,2.3091,2.3091,2.3091,2.3091,2.3091,2.3091,2.3091,2.3091,2.3091,2.3091,0.9058,0.9446,1.0007,1.0814,1.1089,1.165,1.3634,1.4255,1.4569,1.5124,1.5135,1.4975,1.4816,1.5211,1.5524,1.5418,1.5645,1.5784,1.5784,1.5784,1.5784,1.5784,1.5784,1.5784,1.5784,1.5784,1.5784,1.5784,1.5784,1.5784,1.5784,1.5784,1.5784,1.5784,1.4949,1.4118,1.3295,1.277,1.2139,1.1312,1.3499,1.4567,1.4561,1.5003,1.5194,1.5242,1.5635,1.5784,1.5784,1.5784,1.5784,1.5784,1.5784,1.5784,1.5784,1.5784,1.5784,1.5784,1.5784,1.5784,1.5784,1.5784,1.5784,1.5784,1.5784,1.5784,1.5784,1.5784,1.5784,1.5784,1.5784,1.5784,1.5784,1.5784,1.5784,1.5784,1.5784,1.5784,1.5784,1.5784,1.6103,1.6669,1.7552,1.868,1.9906,2.1141,2.1996,2.2677,2.3047,2.3091,2.3091,2.3091,2.3091,2.3091,2.3091,2.3091,2.3091,2.3091,2.3091,2.3091,2.3091,2.3091,2.3091,2.3091,2.3091,2.3091,2.3091,2.3091,2.3091,2.3091,2.3091,2.3091,0.9746,0.9893,1.0401,1.1605,1.1657,1.1917,1.3687,1.3641,1.3721,1.5425,1.5371,1.5102,1.5344,1.5209,1.5109,1.5351,1.5645,1.5784,1.5784,1.5784,1.5784,1.5784,1.5784,1.5784,1.5784,1.5784,1.5784,1.5784,1.5784,1.5784,1.5784,1.5784,1.5784,1.5784,1.5778,1.4519,1.1945,1.3199,1.2571,0.9998,1.1268,1.1901,1.195,1.3295,1.3878,1.3974,1.5194,1.5784,1.5778,1.5778,1.5784,1.5784,1.5784,1.5784,1.5784,1.5784,1.5784,1.5784,1.5784,1.5784,1.5784,1.5784,1.5784,1.5784,1.5784,1.5784,1.5784,1.5784,1.5784,1.5784,1.5784,1.5784,1.5784,1.5784,1.5784,1.5784,1.5784,1.5784,1.5784,1.5784,1.6803,1.7684,1.7684,1.8726,1.9898,2.1114,2.1337,2.1756,2.296,2.3091,2.3091,2.3091,2.3091,2.3091,2.3091,2.3091,2.3091,2.3091,2.3091,2.3091,2.3091,2.3091,2.3091,2.3091,2.3091,2.3091,2.3091,2.3091,2.3091,2.3091,2.3091,2.3091,0.8811,0.9608,1.0593,1.1116,1.2285,1.3487,1.4222,1.4416,1.471,1.5638,1.5691,1.5538,1.5418,1.5491,1.5531,1.5418,1.5645,1.5784,1.5784,1.5784,1.5784,1.5784,1.5784,1.5784,1.5784,1.5784,1.5784,1.5784,1.5784,1.5784,1.5784,1.5784,1.5784,1.5784,1.4949,1.4076,1.3295,1.1891,1.0774,0.9998,0.941,1.0145,1.1901,1.2334,1.2474,1.2528,1.2866,1.359,1.4507,1.5439,1.5784,1.5784,1.5784,1.5784,1.5784,1.5784,1.5784,1.5784,1.5784,1.5784,1.5784,1.5784,1.5784,1.5784,1.5784,1.5784,1.5784,1.5784,1.5784,1.5784,1.5784,1.5784,1.5784,1.5784,1.5784,1.5784,1.5784,1.5784,1.5784,1.5784,1.6109,1.6936,1.868,1.9268,2.0223,2.2262,2.2589,2.2677,2.3047,2.3091,2.3091,2.3091,2.3091,2.3091,2.3091,2.3091,2.3091,2.3091,2.3091,2.3091,2.3091,2.3091,2.3091,2.3091,2.3091,2.3091,2.3091,2.3091,2.3091,2.3091,2.3091,2.3091,0.9869,1.07,1.1645,1.2415,1.3247,1.4108,1.487,1.5177,1.5404,1.5711,1.5738,1.5638,1.5578,1.5618,1.5638,1.5578,1.5712,1.5784,1.5784,1.5784,1.5784,1.5784,1.5784,1.5784,1.5784,1.5784,1.5784,1.5784,1.5784,1.5784,1.5784,1.5784,1.5784,1.5784,1.5051,1.4411,1.3926,1.2323,1.1019,0.9998,0.9167,0.9361,1.0386,1.0925,1.117,1.1165,1.1702,1.2668,1.3968,1.4752,1.5045,1.5045,1.5045,1.4711,1.4226,1.4226,1.4615,1.5045,1.5045,1.5391,1.5784,1.5784,1.5784,1.5784,1.5784,1.5784,1.5784,1.5784,1.5784,1.5784,1.5784,1.5784,1.5784,1.5784,1.5784,1.5784,1.5784,1.5784,1.5784,1.5784,1.6204,1.7171,1.9177,1.9898,2.0854,2.2818,2.3091,2.3091,2.3091,2.3091,2.3091,2.3091,2.3091,2.3091,2.3091,2.3091,2.3091,2.3091,2.3091,2.3091,2.3091,2.3091,2.3091,2.3091,2.3091,2.3091,2.3091,2.3091,2.3091,2.3091,2.3091,2.3091,1.1817,1.2395,1.3092,1.4532,1.4342,1.4146,1.5478,1.5784,1.5784,1.5784,1.5618,1.5518,1.5785,1.5611,1.5524,1.5738,1.5784,1.5784,1.5784,1.5784,1.5784,1.5784,1.5784,1.5784,1.5784,1.5784,1.5784,1.5784,1.5784,1.5784,1.5784,1.5784,1.5784,1.5784,1.5784,1.5242,1.407,1.3968,1.2716,1.0337,1.0096,0.9361,0.8237,0.9312,0.9805,0.9899,1.1165,1.2431,1.3536,1.368,1.3728,1.3728,1.3728,1.2958,1.1896,1.1896,1.277,1.3926,1.3926,1.4752,1.5784,1.5784,1.5784,1.5784,1.5784,1.5784,1.5784,1.5784,1.5784,1.5784,1.5784,1.5784,1.5784,1.5784,1.5784,1.5784,1.5784,1.5784,1.5784,1.5784,1.6716,1.7956,1.9268,2.0395,2.1569,2.2906,2.3091,2.3091,2.3091,2.3091,2.3091,2.3091,2.3091,2.3091,2.3091,2.3091,2.3091,2.3091,2.3091,2.3091,2.3091,2.3091,2.3091,2.3091,2.3091,2.3091,2.3091,2.3091,2.3091,2.3091,2.3091,2.3091,0.9884,1.1122,1.2645,1.3633,1.4605,1.5398,1.5711,1.5784,1.5784,1.5784,1.5731,1.5752,1.5771,1.5731,1.5711,1.5771,1.5784,1.5784,1.5784,1.5784,1.5784,1.5784,1.5784,1.5784,1.5784,1.5784,1.5784,1.5784,1.5784,1.5784,1.5784,1.5784,1.5784,1.5784,1.5784,1.5683,1.5391,1.4411,1.3632,1.3049,1.097,0.9854,0.9558,0.8775,0.8432,0.8478,0.985,1.0583,1.0921,1.1945,1.2334,1.2334,1.2334,1.2139,1.1896,1.1896,1.277,1.3926,1.3926,1.4752,1.5784,1.5784,1.5784,1.5784,1.5784,1.5784,1.5784,1.5784,1.5784,1.5784,1.5784,1.5784,1.5784,1.5784,1.5784,1.5784,1.5784,1.5784,1.5784,1.5784,1.6015,1.6889,1.9131,1.9716,2.0629,2.2775,2.3091,2.3091,2.3091,2.3091,2.3091,2.3091,2.3091,2.3091,2.3091,2.3091,2.3091,2.3091,2.3091,2.3091,2.3091,2.3091,2.3091,2.3091,2.3091,2.3091,2.3091,2.3091,2.3091,2.3091,2.3091,2.3091,1.0441,1.159,1.2837,1.3981,1.5057,1.5784,1.5784,1.5784,1.5784,1.5784,1.5784,1.5784,1.5784,1.5784,1.5784,1.5784,1.5784,1.5784,1.5784,1.5784,1.5784,1.5784,1.5784,1.5784,1.5784,1.5784,1.5784,1.5784,1.5784,1.5784,1.5784,1.5784,1.5784,1.5784,1.5784,1.5784,1.5784,1.514,1.4507,1.3878,1.1891,1.0243,0.9019,0.8333,0.7988,0.8038,0.8726,0.941,1.0047,1.073,1.0974,1.0974,1.0974,1.0583,1.0047,1.0047,1.1258,1.2958,1.2958,1.422,1.5784,1.5784,1.5784,1.5784,1.5784,1.5784,1.5784,1.5784,1.5784,1.5784,1.5784,1.5784,1.5784,1.5784,1.5784,1.5784,1.5784,1.5784,1.5784,1.5784,1.6292,1.7311,1.9177,2.0449,2.1445,2.2129,2.2262,2.2041,2.1454,2.1355,2.1355,2.1355,2.1355,2.1355,2.1355,2.1355,2.1355,2.1355,2.1898,2.2262,2.2262,2.2775,2.3091,2.3091,2.3091,2.3091,2.3091,2.3091,2.3091,2.3091,2.3091,2.3091,1.1035,1.2174,1.3139,1.464,1.5398,1.5784,1.5784,1.5784,1.5784,1.5784,1.5784,1.5784,1.5784,1.5784,1.5784,1.5784,1.5784,1.5784,1.5784,1.5784,1.5784,1.5784,1.5784,1.5784,1.5784,1.5784,1.5784,1.5784,1.5784,1.5784,1.5784,1.5784,1.5784,1.5784,1.5784,1.5784,1.5784,1.5784,1.5289,1.4214,1.2673,1.0534,0.7988,0.7988,0.7988,0.7988,0.7988,0.8627,0.9657,0.9657,0.9657,0.9657,0.9657,0.897,0.7988,0.7988,0.9653,1.1896,1.1896,1.3596,1.5784,1.5784,1.5784,1.5784,1.5784,1.5784,1.5784,1.5784,1.5784,1.5784,1.5784,1.5784,1.5784,1.5784,1.5784,1.5784,1.5784,1.5784,1.5784,1.5784,1.681,1.8002,1.8993,2.0998,2.2129,2.1159,2.098,2.0621,1.9633,1.9497,1.9497,1.9497,1.9497,1.9497,1.9497,1.9497,1.9497,1.9497,2.044,2.1069,2.1293,2.2262,2.2906,2.3091,2.3091,2.3091,2.3091,2.3091,2.3091,2.3091,2.3091,2.3091,0.8472,1.0588,1.3139,1.464,1.5398,1.5784,1.5784,1.5784,1.5784,1.5784,1.5784,1.5784,1.5784,1.5784,1.5784,1.5784,1.5784,1.5784,1.5784,1.5784,1.5784,1.5784,1.5784,1.5784,1.5784,1.5784,1.5784,1.5784,1.5784,1.5784,1.5784,1.5784,1.5784,1.5784,1.5784,1.5784,1.5784,1.5784,1.573,1.554,1.306,1.0534,0.7988,0.7988,0.7988,0.7988,0.7988,0.8088,0.8283,0.8283,0.8283,0.8283,0.8283,0.8137,0.7988,0.7988,0.9653,1.1896,1.1896,1.3596,1.5784,1.5784,1.5784,1.5784,1.5784,1.5784,1.5784,1.5784,1.5784,1.5784,1.5784,1.5784,1.5784,1.5784,1.5784,1.5784,1.5784,1.5784,1.5784,1.5784,1.681,1.7731,1.7917,1.9093,1.9951,1.9761,1.9716,1.967,1.9542,1.9497,1.9497,1.9497,1.9497,1.9497,1.9497,1.9497,1.9497,1.9497,1.967,2.0215,2.1248,2.1426,2.2031,2.3091,2.3091,2.3091,2.3091,2.3091,2.3091,2.3091,2.3091,2.3091,0.8991,1.1169,1.332,1.468,1.5398,1.5784,1.5784,1.5784,1.5784,1.5784,1.5784,1.5784,1.5784,1.5784,1.5784,1.5784,1.5784,1.5784,1.5784,1.5784,1.5784,1.5784,1.5784,1.5784,1.5784,1.5784,1.5784,1.5784,1.5784,1.5784,1.5784,1.5784,1.5784,1.5784,1.5784,1.5784,1.5784,1.5784,1.5051,1.3596,1.2431,1.0534,0.7988,0.7988,0.7988,0.7988,0.7988,0.7988,0.7988,0.7988,0.7988,0.7988,0.7988,0.7988,0.7988,0.7988,0.9653,1.1896,1.1896,1.3596,1.5784,1.5784,1.5784,1.5784,1.5784,1.5784,1.5784,1.5784,1.5784,1.5784,1.5784,1.5784,1.5784,1.5784,1.5784,1.5784,1.5784,1.5784,1.5784,1.5784,1.681,1.7692,1.7692,1.868,1.9268,1.8588,1.8503,1.8226,1.7529,1.7436,1.7436,1.7436,1.7436,1.7436,1.7436,1.7436,1.7436,1.7436,1.8087,1.9039,2.026,2.0935,2.1845,2.3091,2.3091,2.3091,2.3091,2.3091,2.3091,2.3091,2.3091,2.3091,0.9293,1.1029,1.2485,1.4115,1.4957,1.5464,1.5711,1.5784,1.5784,1.5784,1.5784,1.5784,1.5784,1.5784,1.5784,1.5784,1.5784,1.5784,1.5784,1.5784,1.5784,1.5784,1.5784,1.5784,1.5784,1.5784,1.5784,1.5784,1.5784,1.5784,1.5784,1.5784,1.5784,1.5784,1.5784,1.5784,1.5784,1.5784,1.4465,1.1896,1.1896,1.0534,0.7988,0.7988,0.7988,0.7988,0.7988,0.7988,0.7988,0.7988,0.7988,0.7988,0.7988,0.7988,0.7988,0.7988,0.9653,1.1896,1.1896,1.3596,1.5784,1.5784,1.5784,1.5784,1.5784,1.5784,1.5784,1.5784,1.5784,1.5784,1.5784,1.5784,1.5784,1.5784,1.5784,1.5784,1.5784,1.5784,1.5784,1.5784,1.6574,1.7225,1.7225,1.7948,1.8257,1.7358,1.7225,1.685,1.592,1.5784,1.5784,1.5784,1.5784,1.5784,1.5784,1.5784,1.5784,1.5784,1.699,1.8234,1.9443,2.0666,2.1845,2.3091,2.3091,2.3091,2.3091,2.3091,2.3091,2.3091,2.3091,2.3091,0.7933,0.8758,0.9726,1.2585,1.3741,1.4469,1.5531,1.5784,1.5784,1.5784,1.5784,1.5784,1.5784,1.5784,1.5784,1.5784,1.5784,1.5784,1.5784,1.5784,1.5784,1.5784,1.5784,1.5784,1.5784,1.5784,1.5784,1.5784,1.5784,1.5784,1.5784,1.5784,1.5784,1.5784,1.5784,1.5784,1.5784,1.5784,1.4465,1.1896,1.1896,1.0534,0.7988,0.7988,0.7988,0.7988,0.7988,0.7988,0.7988,0.7988,0.7988,0.7988,0.7988,0.7988,0.7988,0.7988,0.9653,1.1896,1.1896,1.3596,1.5784,1.5784,1.5784,1.5784,1.5784,1.5784,1.5784,1.5784,1.5784,1.5784,1.5784,1.5784,1.5784,1.5784,1.5784,1.5784,1.5784,1.5784,1.5784,1.5784,1.5825,1.592,1.592,1.5967,1.5967,1.592,1.592,1.5872,1.5832,1.5784,1.5784,1.5784,1.5784,1.5784,1.5784,1.5784,1.5784,1.5784,1.699,1.8234,1.9443,2.0666,2.1845,2.3091,2.3091,2.3091,2.3091,2.3091,2.3091,2.3091,2.3091,2.3091,0.7457,0.829,0.9285,1.1289,1.2665,1.3734,1.4529,1.5291,1.5784,1.5784,1.5784,1.5784,1.5784,1.5784,1.5784,1.5784,1.5784,1.5784,1.5784,1.5784,1.5784,1.5784,1.5784,1.5784,1.5784,1.5784,1.5784,1.5784,1.5784,1.5784,1.5784,1.5784,1.5784,1.5784,1.5784,1.5784,1.5784,1.4997,1.3686,1.1896,1.1072,0.9752,0.7988,0.7988,0.7988,0.7988,0.7988,0.7988,0.7988,0.7988,0.7988,0.7988,0.7988,0.7988,0.8088,0.897,1.0386,1.2042,1.2909,1.4316,1.5784,1.5784,1.5784,1.5784,1.5784,1.5784,1.5784,1.5784,1.5784,1.5784,1.5784,1.5784,1.5784,1.5784,1.5784,1.5784,1.5784,1.5784,1.5784,1.5784,1.5784,1.5784,1.5784,1.648,1.7037,1.7037,1.7037,1.7037,1.7037,1.6298,1.5784,1.5784,1.5784,1.6109,1.6943,1.6244,1.6473,1.8079,1.7863,1.8596,2.0567,2.1069,2.1845,2.3091,2.3091,2.3091,2.3091,2.3091,2.3091,2.3091,2.3091,2.3091,0.674,0.7462,0.8464,1.0134,1.1223,1.2254,1.3874,1.4683,1.5192,1.5678,1.5784,1.5784,1.5784,1.5784,1.5784,1.5784,1.5784,1.5784,1.5784,1.5784,1.5784,1.5784,1.5784,1.5784,1.5784,1.5784,1.5784,1.5784,1.5784,1.5784,1.5784,1.5784,1.5784,1.5784,1.5784,1.5784,1.5784,1.4555,1.3247,1.1896,1.0632,0.9316,0.7988,0.7988,0.7988,0.7988,0.7988,0.7988,0.7988,0.7988,0.7988,0.7988,0.7988,0.8283,0.8775,0.9657,1.1068,1.2716,1.3584,1.4752,1.5784,1.5784,1.5784,1.5784,1.5784,1.5784,1.5784,1.5784,1.5784,1.5784,1.5784,1.5784,1.5784,1.5784,1.5784,1.5784,1.5784,1.5784,1.5784,1.5784,1.5784,1.592,1.6339,1.7131,1.7824,1.8234,1.8319,1.8319,1.8319,1.7584,1.7023,1.7023,1.7023,1.7397,1.8226,1.7529,1.7755,1.9405,1.9131,1.9633,2.1248,2.1712,2.2262,2.3091,2.3091,2.3091,2.3091,2.3091,2.3091,2.3091,2.3091,2.3091,0.0,0.0,0.0,0.9112,0.9399,1.0077,1.3533,1.39,1.3926,1.5411,1.5711,1.5718,1.5771,1.5784,1.5784,1.5784,1.5784,1.5784,1.5784,1.5784,1.5784,1.5784,1.5784,1.5784,1.5784,1.5784,1.5784,1.5784,1.5784,1.5784,1.5784,1.5784,1.5784,1.5784,1.5784,1.5778,1.573,1.4459,1.3151,1.1848,1.0534,0.9266,0.7988,0.7988,0.7988,0.7988,0.7988,0.7988,0.7988,0.7988,0.7988,0.7988,0.8038,0.8874,0.9998,1.0096,1.1745,1.3926,1.3926,1.4752,1.5784,1.5784,1.5784,1.5784,1.5784,1.5784,1.5784,1.5784,1.5784,1.5784,1.5784,1.5784,1.5784,1.5784,1.5784,1.5784,1.5784,1.5784,1.5784,1.5784,1.5784,1.6197,1.7505,1.7738,1.8141,1.936,1.9534,1.9534,1.9534,1.9542,1.9497,1.9497,1.9497,1.9488,1.9534,1.9542,1.9542,1.9579,2.0666,2.1337,2.1337,2.2492,2.3091,2.3091,2.3091,2.3091,2.3091,2.3091,2.3091,2.3091,2.3091,2.3091,0.5841,0.0,0.0,0.0,0.0,0.0,1.0303,1.1069,1.1951,1.3813,1.4039,1.4279,1.5551,1.5784,1.5784,1.5784,1.5784,1.5784,1.5784,1.5784,1.5784,1.5784,1.5784,1.5784,1.5784,1.5784,1.5784,1.5784,1.5784,1.5784,1.5784,1.5784,1.5784,1.5784,1.5784,1.5343,1.4411,1.3102,1.1799,1.0489,0.9167,0.8382,0.7988,0.7988,0.7988,0.7988,0.7988,0.7988,0.7988,0.7988,0.7988,0.8088,0.9069,0.9657,1.0243,1.2129,1.3295,1.4022,1.4949,1.5486,1.5784,1.5784,1.5784,1.5784,1.5784,1.5784,1.5784,1.5784,1.5784,1.5784,1.5784,1.5784,1.5784,1.5784,1.5784,1.5784,1.5784,1.5784,1.5784,1.5784,1.5784,1.6197,1.7505,1.8411,1.9397,2.0621,2.08,2.08,2.08,2.0034,1.9497,1.9497,1.9497,1.9852,2.0711,1.9988,2.0223,2.1996,2.1623,2.1712,2.2589,2.2906,2.3091,2.3091,2.3091,2.3091,2.3091,2.3091,2.3091,2.3091,2.3091,2.3091,0.6267,0.6293,0.6606,0.6901,0.0,0.0,0.967,1.0454,1.1464,1.3874,1.4335,1.4616,1.5591,1.5784,1.5784,1.5784,1.5784,1.5784,1.5784,1.5784,1.5784,1.5784,1.5784,1.5784,1.5784,1.5784,1.5784,1.5784,1.5784,1.5784,1.5784,1.5784,1.5784,1.5784,1.5784,1.5194,1.3926,1.2576,1.1268,0.9998,0.8627,0.7988,0.7988,0.7988,0.7988,0.7988,0.7988,0.7988,0.7988,0.7988,0.7988,0.8137,0.946,1.0337,1.1068,1.3151,1.4214,1.48,1.5534,1.5784,1.5784,1.5784,1.5784,1.5784,1.5784,1.5784,1.5784,1.5784,1.5784,1.5784,1.5784,1.5784,1.5784,1.5784,1.5784,1.5784,1.5784,1.5784,1.5784,1.5784,1.5784,1.6386,1.8133,1.9039,2.0079,2.18,2.2031,2.2031,2.2031,2.1445,2.0998,2.0998,2.0998,2.1311,2.1987,2.14,2.1587,2.3003,2.2448,2.2359,2.3047,2.3091,2.3091,2.3091,2.3091,2.3091,2.3091,2.3091,2.3091,2.3091,2.3091,2.3003,0.6888,0.6874,0.7128,0.7383,0.6868,0.0,1.014,1.0641,1.1249,1.4041,1.4796,1.4978,1.5205,1.5271,1.5298,1.5298,1.5458,1.5678,1.5764,1.5784,1.5784,1.5784,1.5784,1.5784,1.5784,1.5784,1.5784,1.5784,1.5784,1.5784,1.5784,1.5784,1.5784,1.5784,1.5784,1.5099,1.368,1.2479,1.117,0.9756,0.8581,0.7988,0.7988,0.7988,0.7988,0.7988,0.7988,0.7988,0.7988,0.7988,0.7988,0.8137,0.9657,1.0925,1.2091,1.3542,1.4854,1.5784,1.5784,1.5784,1.5784,1.5784,1.5784,1.5784,1.5784,1.5784,1.5784,1.5784,1.5784,1.5784,1.5784,1.5784,1.5784,1.5784,1.5784,1.5784,1.5784,1.5784,1.5784,1.5784,1.5784,1.6608,1.9085,1.9497,2.0314,2.2731,2.3091,2.3047,2.2906,2.2906,2.2906,2.2906,2.2906,2.295,2.3101,2.3091,2.3091,2.3091,2.3091,2.3091,2.3091,2.3091,2.3091,2.3091,2.3091,2.3091,2.3091,2.3091,2.3091,2.3091,2.3052,2.2828,0.7695,0.7357,0.7357,0.7154,0.6981,0.0,0.7156,0.7184,0.7625,0.9407,0.9599,0.995,1.163,1.2124,1.2248,1.2248,1.3494,1.4756,1.5651,1.5784,1.5784,1.5784,1.5784,1.5784,1.5784,1.5784,1.5784,1.5784,1.5784,1.5784,1.5784,1.5784,1.5784,1.5784,1.5784,1.4663,1.2334,1.2042,1.0725,0.8382,0.8137,0.7988,0.7988,0.7988,0.7988,0.7988,0.7988,0.7988,0.7988,0.7988,0.7988,0.8233,1.0632,1.1702,1.2188,1.4567,1.5588,1.5784,1.5784,1.5784,1.5784,1.5784,1.5784,1.5784,1.5784,1.5784,1.5784,1.5784,1.5784,1.5784,1.5784,1.5784,1.5784,1.5784,1.5784,1.5784,1.5784,1.5784,1.5784,1.5784,1.5784,1.6608,1.9085,1.9497,2.0314,2.2731,2.3091,2.2775,2.18,2.1658,2.1658,2.1658,2.1658,2.2031,2.3003,2.3091,2.3091,2.3091,2.3091,2.3091,2.3091,2.3091,2.3091,2.3091,2.3091,2.3091,2.3091,2.3091,2.3091,2.3091,2.275,2.2598,0.8757,0.8193,0.7873,0.7526,0.7226,0.0,0.0,0.739,0.7785,0.9532,0.9546,0.9646,1.0969,1.1209,1.1256,1.1369,1.2799,1.3861,1.3854,1.4997,1.5784,1.5784,1.5784,1.5784,1.5784,1.5784,1.5784,1.5784,1.5784,1.5784,1.5784,1.5784,1.5784,1.5784,1.5784,1.4561,1.1945,1.1896,1.0583,0.7988,0.7988,0.7988,0.7988,0.7988,0.7988,0.7988,0.7988,0.7988,0.7988,0.7988,0.7988,0.8187,1.0194,1.1365,1.2139,1.4124,1.5242,1.5784,1.5784,1.5784,1.5784,1.5784,1.5784,1.5784,1.5784,1.5784,1.5784,1.5784,1.5784,1.5784,1.5784,1.5784,1.5784,1.5784,1.5784,1.5784,1.5784,1.5784,1.5784,1.5784,1.5784,1.6608,1.9085,1.9497,2.0314,2.2731,2.2589,2.1987,2.1391,2.0755,2.0395,2.0395,2.0935,2.1525,2.2164,2.2765,2.3091,2.3091,2.3091,2.3091,2.3091,2.3091,2.3091,2.3091,2.3091,2.3091,2.3091,2.3091,2.3091,2.3081,2.3198,2.3119,0.9938,0.9211,0.8597,0.8105,0.7706,0.7586,0.0,0.0,0.0,1.008,0.9993,0.9836,1.0356,1.0301,1.0221,1.0454,1.1755,1.2388,1.1383,1.3333,1.4937,1.505,1.5471,1.5691,1.5471,1.5337,1.5398,1.5751,1.5458,1.5411,1.5758,1.5784,1.5784,1.5784,1.5784,1.4561,1.1945,1.1896,1.0583,0.7988,0.7988,0.7988,0.7988,0.7988,0.7988,0.7988,0.7988,0.7988,0.7988,0.7988,0.7988,0.8137,0.946,1.0779,1.2042,1.3392,1.4704,1.5784,1.5784,1.5784,1.5784,1.5784,1.5784,1.5784,1.5784,1.5784,1.5784,1.5784,1.5784,1.5784,1.5784,1.5784,1.5784,1.5784,1.5784,1.5784,1.5784,1.5784,1.5784,1.5784,1.5784,1.6513,1.8764,1.936,2.0178,2.2094,2.1987,2.1391,2.0711,1.9943,1.9397,1.9177,2.0215,2.1069,2.1293,2.2403,2.3091,2.3091,2.3091,2.3091,2.3091,2.3091,2.3091,2.3091,2.3091,2.3091,2.3091,2.3299,2.326,2.3008,2.3605,2.3616,1.1056,1.0336,0.9659,0.8616,0.8657,0.8585,0.7168,0.0,0.6807,0.6801,0.0,0.644,0.7027,0.0,0.0,0.7134,0.8578,0.9484,0.8891,1.0367,1.1737,1.2295,1.4396,1.5424,1.4382,1.3608,1.3896,1.5691,1.4135,1.3936,1.5684,1.5784,1.5784,1.5784,1.5784,1.4561,1.1945,1.1896,1.0583,0.7988,0.7988,0.7988,0.7988,0.7988,0.7988,0.7988,0.7988,0.7988,0.7988,0.7988,0.7988,0.8137,0.946,1.0779,1.2042,1.3392,1.4704,1.5784,1.5784,1.5784,1.5784,1.5784,1.5784,1.5784,1.5784,1.5784,1.5784,1.5784,1.5784,1.5784,1.5784,1.5784,1.5784,1.5784,1.5784,1.5784,1.5784,1.5784,1.5784,1.5784,1.5784,1.6244,1.7684,1.8772,1.9588,1.9861,2.1632,2.173,1.8503,1.891,1.9085,1.8002,1.9001,2.0124,2.1203,2.2403,2.3091,2.3091,2.3091,2.3091,2.3091,2.3091,2.3091,2.3091,2.3091,2.3091,2.3091,2.4125,2.3888,2.2568,2.3115,2.3165,1.1574,1.107,1.0301,0.8965,0.8911,0.8791,0.7186,0.66,0.6419,0.6613,0.0,0.0,0.0,0.0,0.0,0.0,0.7796,0.835,0.7263,0.9051,1.0701,1.1323,1.2198,1.2986,1.3527,1.3112,1.3641,1.5671,1.3956,1.3688,1.5671,1.5784,1.5784,1.5784,1.5784,1.4561,1.1945,1.1896,1.0583,0.7988,0.7988,0.7988,0.7988,0.7988,0.7988,0.7988,0.7988,0.7988,0.7988,0.7988,0.7988,0.8038,0.863,1.0096,1.1945,1.2528,1.4028,1.5784,1.5784,1.5784,1.5784,1.5784,1.5784,1.5784,1.5784,1.5784,1.5784,1.5784,1.5784,1.5784,1.5784,1.5784,1.5784,1.5784,1.5784,1.5784,1.5784,1.5784,1.6015,1.6763,1.6298,1.6197,1.7505,1.868,1.9716,2.044,2.1391,2.1266,1.9047,1.8596,1.828,1.7731,1.8772,1.9988,2.1203,2.2403,2.3091,2.3091,2.3091,2.3091,2.3091,2.3091,2.3091,2.3091,2.3091,2.3091,2.3091,2.3345,2.3271,2.2991,2.4454,2.4878,1.2747,1.2049,1.0942,0.9232,0.8938,0.8725,0.7319,0.676,0.6673,0.7054,0.6961,0.0,0.0,0.0,0.6572,0.0,0.0,0.7444,0.6135,0.7575,0.9038,0.9706,1.0027,1.0802,1.2338,1.1725,1.2271,1.4865,1.3159,1.3092,1.5638,1.5784,1.5784,1.5784,1.5784,1.4711,1.2479,1.2431,1.1312,0.9069,0.8726,0.8726,0.9069,0.8333,0.8187,0.8531,0.8137,0.7988,0.7988,0.7988,0.7988,0.7988,0.7988,0.9361,1.1414,1.175,1.3349,1.5337,1.5683,1.5784,1.5784,1.5784,1.5784,1.5784,1.5784,1.5784,1.5784,1.5784,1.5784,1.5784,1.5784,1.5784,1.5784,1.5784,1.5784,1.5784,1.5784,1.5784,1.6204,1.7451,1.6943,1.6709,1.8002,1.8642,1.9314,2.0169,2.0899,2.0854,1.967,1.8726,1.8187,1.8187,1.9001,1.9988,2.1203,2.2403,2.3091,2.3091,2.3091,2.3091,2.3091,2.3091,2.3091,2.3091,2.3091,2.3091,2.3091,2.3005,2.3237,2.3761,2.5206,2.5728,1.5169,1.3558,1.1703,0.9385,0.8811,0.8504,0.7273,0.7228,0.7473,0.7471,0.7926,0.8248,0.7925,0.7642,0.0,0.0,0.0,0.0,0.0,0.54,0.5775,0.6646,0.8218,0.961,1.0586,0.8557,0.8871,1.2986,1.1116,1.1557,1.5611,1.5784,1.5784,1.5784,1.5784,1.5146,1.383,1.383,1.3151,1.1755,1.0534,1.0583,1.1702,0.9164,0.8726,0.985,0.8577,0.7988,0.7988,0.7988,0.7988,0.7988,0.7988,0.8825,1.0194,1.1463,1.2764,1.4118,1.5384,1.5784,1.5784,1.5784,1.5784,1.5784,1.5784,1.5784,1.5784,1.5784,1.5784,1.5784,1.5784,1.5784,1.5784,1.5784,1.5784,1.5784,1.5784,1.5784,1.6204,1.7451,1.7692,1.8002,1.9222,1.8503,1.7777,1.7824,1.9778,2.0872,1.9679,1.9451,1.9451,1.9451,1.9497,1.9988,2.1203,2.2403,2.3091,2.3091,2.3091,2.3091,2.3091,2.3091,2.3091,2.3091,2.3091,2.3091,2.3091,2.3812,2.4352,2.4726,2.4424,2.4551,1.6245,1.5193,1.3447,1.0687,1.0114,0.9686,0.7493,0.7393,0.7662,0.7255,0.7969,0.851,0.7999,0.7675,0.0,0.0,0.0,0.0,0.0,0.4823,0.481,0.5104,0.7033,0.0,0.0,0.8703,0.9933,1.2737,1.1977,1.2705,1.5624,1.5784,1.5784,1.5784,1.5784,1.5194,1.3926,1.3926,1.3247,1.1896,1.1458,1.1458,1.1853,1.0092,0.9558,0.9899,0.8577,0.7988,0.7988,0.7988,0.7988,0.7988,0.7988,0.8283,0.8825,1.0141,1.2037,1.407,1.5343,1.5784,1.5784,1.5784,1.5784,1.5784,1.5784,1.5784,1.5784,1.5784,1.5784,1.5784,1.5784,1.5784,1.5784,1.5784,1.5784,1.5784,1.5784,1.5784,1.6426,1.8495,1.8234,1.8319,2.035,1.967,1.9177,1.9943,2.1454,2.205,2.0845,2.0702,2.0702,2.0702,2.0702,2.1168,2.2403,2.2862,2.3091,2.3091,2.3091,2.3091,2.3091,2.3091,2.3091,2.3091,2.3091,2.3091,2.3091,2.3463,2.4041,2.4804,2.4763,2.5171,1.7054,1.6,1.4425,1.198,1.1357,1.0722,0.8477,0.843,0.8724,0.8199,0.8651,0.9192,0.9411,0.8557,0.0,0.0,0.0,0.0,0.0,0.4509,0.4402,0.4402,0.0,0.0,0.0,0.0,0.9159,1.2382,1.1866,0.0,1.5518,1.5772,1.5784,1.5784,1.5784,1.5391,1.4561,1.4561,1.4124,1.3301,1.2818,1.2866,1.3204,1.1019,1.0243,1.0583,0.8775,0.7988,0.7988,0.7988,0.7988,0.7988,0.7988,0.7988,0.8187,0.9509,1.1356,1.3295,1.413,1.4711,1.5099,1.5099,1.5439,1.5784,1.5784,1.5784,1.5784,1.5784,1.5784,1.5784,1.5784,1.5784,1.5784,1.5784,1.5784,1.5784,1.5784,1.5784,1.6426,1.8449,1.8226,1.8457,2.089,2.0666,2.0395,2.1168,2.1943,2.235,2.1987,2.1569,2.148,2.1889,2.1569,2.1745,2.28,2.2877,2.2808,2.2705,2.2652,2.2721,2.2867,2.3279,2.3564,2.3714,2.3714,2.3634,2.3483,2.3031,2.3219,2.4043,2.4351,2.5004]}]]